<?xml version="1.0" encoding="UTF-8" standalone="no" ?>
<gpx xmlns="http://www.topografix.com/GPX/1/1" xmlns:xsi="http://www.w3.org/2001/XMLSchema-instance" xsi:schemaLocation="http://www.topografix.com/GPX/1/1 http://www.topografix.com/GPX/1/1/gpx.xsd" version="1.1" creator="VisuGPX - https://www.visugpx.com">
  <metadata>
    <name>Sun Trip 2019</name>
    <desc><![CDATA[Le parcours du Sun Trip 2019]]></desc>
  </metadata>
  <trk>
    <name><![CDATA[J7]]></name>
    <trkseg>
      <trkpt lat="46.35564" lon="6.1466">
        <ele>472</ele>
        <time>2019-04-16T10:23:05Z</time>
      </trkpt>
      <trkpt lat="46.35565" lon="6.14653">
        <ele>472</ele>
        <time>2019-04-16T10:24:05Z</time>
      </trkpt>
      <trkpt lat="46.35565" lon="6.14648">
        <ele>472</ele>
        <time>2019-04-16T10:25:05Z</time>
      </trkpt>
      <trkpt lat="46.35561" lon="6.14639">
        <ele>472</ele>
        <time>2019-04-16T10:26:05Z</time>
      </trkpt>
      <trkpt lat="46.35558" lon="6.14636">
        <ele>472</ele>
        <time>2019-04-16T10:27:05Z</time>
      </trkpt>
      <trkpt lat="46.35552" lon="6.14633">
        <ele>472</ele>
        <time>2019-04-16T10:28:05Z</time>
      </trkpt>
      <trkpt lat="46.35543" lon="6.14638">
        <ele>472</ele>
        <time>2019-04-16T10:29:05Z</time>
      </trkpt>
      <trkpt lat="46.35528" lon="6.1463">
        <ele>472</ele>
        <time>2019-04-16T10:30:05Z</time>
      </trkpt>
      <trkpt lat="46.35261" lon="6.14266">
        <ele>475</ele>
        <time>2019-04-16T10:31:05Z</time>
      </trkpt>
      <trkpt lat="46.35208" lon="6.14197">
        <ele>475</ele>
        <time>2019-04-16T10:32:05Z</time>
      </trkpt>
      <trkpt lat="46.35209" lon="6.14188">
        <ele>475</ele>
        <time>2019-04-16T10:33:05Z</time>
      </trkpt>
      <trkpt lat="46.35206" lon="6.1418">
        <ele>475</ele>
        <time>2019-04-16T10:34:05Z</time>
      </trkpt>
      <trkpt lat="46.35198" lon="6.14176">
        <ele>475</ele>
        <time>2019-04-16T10:35:05Z</time>
      </trkpt>
      <trkpt lat="46.35193" lon="6.14178">
        <ele>475</ele>
        <time>2019-04-16T10:36:05Z</time>
      </trkpt>
      <trkpt lat="46.35189" lon="6.14187">
        <ele>475</ele>
        <time>2019-04-16T10:37:05Z</time>
      </trkpt>
      <trkpt lat="46.35191" lon="6.14198">
        <ele>475</ele>
        <time>2019-04-16T10:38:05Z</time>
      </trkpt>
      <trkpt lat="46.34812" lon="6.14763">
        <ele>470</ele>
        <time>2019-04-16T10:39:05Z</time>
      </trkpt>
      <trkpt lat="46.34772" lon="6.1482">
        <ele>468</ele>
        <time>2019-04-16T10:40:05Z</time>
      </trkpt>
      <trkpt lat="46.34753" lon="6.14823">
        <ele>467</ele>
        <time>2019-04-16T10:41:05Z</time>
      </trkpt>
      <trkpt lat="46.34745" lon="6.14832">
        <ele>467</ele>
        <time>2019-04-16T10:42:05Z</time>
      </trkpt>
      <trkpt lat="46.34743" lon="6.14842">
        <ele>467</ele>
        <time>2019-04-16T10:43:05Z</time>
      </trkpt>
      <trkpt lat="46.34744" lon="6.14851">
        <ele>467</ele>
        <time>2019-04-16T10:44:05Z</time>
      </trkpt>
      <trkpt lat="46.34696" lon="6.14923">
        <ele>468</ele>
        <time>2019-04-16T10:45:05Z</time>
      </trkpt>
      <trkpt lat="46.34668" lon="6.14972">
        <ele>467</ele>
        <time>2019-04-16T10:46:05Z</time>
      </trkpt>
      <trkpt lat="46.34666" lon="6.14987">
        <ele>467</ele>
        <time>2019-04-16T10:47:05Z</time>
      </trkpt>
      <trkpt lat="46.34642" lon="6.15042">
        <ele>468</ele>
        <time>2019-04-16T10:48:05Z</time>
      </trkpt>
      <trkpt lat="46.34585" lon="6.15205">
        <ele>467</ele>
        <time>2019-04-16T10:49:05Z</time>
      </trkpt>
      <trkpt lat="46.34573" lon="6.15227">
        <ele>466</ele>
        <time>2019-04-16T10:50:05Z</time>
      </trkpt>
      <trkpt lat="46.34567" lon="6.15247">
        <ele>465</ele>
        <time>2019-04-16T10:51:05Z</time>
      </trkpt>
      <trkpt lat="46.34564" lon="6.15274">
        <ele>466</ele>
        <time>2019-04-16T10:52:05Z</time>
      </trkpt>
      <trkpt lat="46.34549" lon="6.1533">
        <ele>466</ele>
        <time>2019-04-16T10:53:05Z</time>
      </trkpt>
      <trkpt lat="46.34491" lon="6.15516">
        <ele>470</ele>
        <time>2019-04-16T10:54:05Z</time>
      </trkpt>
      <trkpt lat="46.34475" lon="6.15556">
        <ele>469</ele>
        <time>2019-04-16T10:55:05Z</time>
      </trkpt>
      <trkpt lat="46.34451" lon="6.15604">
        <ele>468</ele>
        <time>2019-04-16T10:56:05Z</time>
      </trkpt>
      <trkpt lat="46.34284" lon="6.15905">
        <ele>471</ele>
        <time>2019-04-16T10:57:05Z</time>
      </trkpt>
      <trkpt lat="46.34275" lon="6.15902">
        <ele>471</ele>
        <time>2019-04-16T10:58:05Z</time>
      </trkpt>
      <trkpt lat="46.34269" lon="6.15907">
        <ele>471</ele>
        <time>2019-04-16T10:59:05Z</time>
      </trkpt>
      <trkpt lat="46.34267" lon="6.15917">
        <ele>471</ele>
        <time>2019-04-16T11:00:05Z</time>
      </trkpt>
      <trkpt lat="46.34269" lon="6.15926">
        <ele>471</ele>
        <time>2019-04-16T11:01:05Z</time>
      </trkpt>
      <trkpt lat="46.34272" lon="6.1593">
        <ele>471</ele>
        <time>2019-04-16T11:02:05Z</time>
      </trkpt>
      <trkpt lat="46.34148" lon="6.16154">
        <ele>476</ele>
        <time>2019-04-16T11:03:05Z</time>
      </trkpt>
      <trkpt lat="46.34089" lon="6.16253">
        <ele>479</ele>
        <time>2019-04-16T11:04:05Z</time>
      </trkpt>
      <trkpt lat="46.34063" lon="6.16304">
        <ele>479</ele>
        <time>2019-04-16T11:05:05Z</time>
      </trkpt>
      <trkpt lat="46.34039" lon="6.16356">
        <ele>479</ele>
        <time>2019-04-16T11:06:05Z</time>
      </trkpt>
      <trkpt lat="46.33993" lon="6.16437">
        <ele>479</ele>
        <time>2019-04-16T11:07:05Z</time>
      </trkpt>
      <trkpt lat="46.33985" lon="6.16443">
        <ele>479</ele>
        <time>2019-04-16T11:08:05Z</time>
      </trkpt>
      <trkpt lat="46.33955" lon="6.16495">
        <ele>477</ele>
        <time>2019-04-16T11:09:05Z</time>
      </trkpt>
      <trkpt lat="46.3395" lon="6.16513">
        <ele>477</ele>
        <time>2019-04-16T11:10:05Z</time>
      </trkpt>
      <trkpt lat="46.33941" lon="6.16527">
        <ele>476</ele>
        <time>2019-04-16T11:11:05Z</time>
      </trkpt>
      <trkpt lat="46.33865" lon="6.16625">
        <ele>474</ele>
        <time>2019-04-16T11:12:05Z</time>
      </trkpt>
      <trkpt lat="46.33856" lon="6.16634">
        <ele>473</ele>
        <time>2019-04-16T11:13:05Z</time>
      </trkpt>
      <trkpt lat="46.33848" lon="6.16627">
        <ele>473</ele>
        <time>2019-04-16T11:14:05Z</time>
      </trkpt>
      <trkpt lat="46.33841" lon="6.16629">
        <ele>473</ele>
        <time>2019-04-16T11:15:05Z</time>
      </trkpt>
      <trkpt lat="46.33838" lon="6.16634">
        <ele>473</ele>
        <time>2019-04-16T11:16:05Z</time>
      </trkpt>
      <trkpt lat="46.33836" lon="6.16648">
        <ele>472</ele>
        <time>2019-04-16T11:17:05Z</time>
      </trkpt>
      <trkpt lat="46.33754" lon="6.16685">
        <ele>470</ele>
        <time>2019-04-16T11:18:05Z</time>
      </trkpt>
      <trkpt lat="46.33673" lon="6.16719">
        <ele>465</ele>
        <time>2019-04-16T11:19:05Z</time>
      </trkpt>
      <trkpt lat="46.33608" lon="6.1675">
        <ele>459</ele>
        <time>2019-04-16T11:20:05Z</time>
      </trkpt>
      <trkpt lat="46.33476" lon="6.16808">
        <ele>451</ele>
        <time>2019-04-16T11:21:05Z</time>
      </trkpt>
      <trkpt lat="46.33083" lon="6.16965">
        <ele>437</ele>
        <time>2019-04-16T11:22:05Z</time>
      </trkpt>
      <trkpt lat="46.32957" lon="6.17053">
        <ele>436</ele>
        <time>2019-04-16T11:23:05Z</time>
      </trkpt>
      <trkpt lat="46.32915" lon="6.17073">
        <ele>435</ele>
        <time>2019-04-16T11:24:05Z</time>
      </trkpt>
      <trkpt lat="46.32879" lon="6.17087">
        <ele>435</ele>
        <time>2019-04-16T11:25:05Z</time>
      </trkpt>
      <trkpt lat="46.32843" lon="6.17095">
        <ele>435</ele>
        <time>2019-04-16T11:26:05Z</time>
      </trkpt>
      <trkpt lat="46.32763" lon="6.17103">
        <ele>434</ele>
        <time>2019-04-16T11:27:05Z</time>
      </trkpt>
      <trkpt lat="46.32603" lon="6.17129">
        <ele>431</ele>
        <time>2019-04-16T11:28:05Z</time>
      </trkpt>
      <trkpt lat="46.3254" lon="6.17155">
        <ele>428</ele>
        <time>2019-04-16T11:29:05Z</time>
      </trkpt>
      <trkpt lat="46.32476" lon="6.17176">
        <ele>426</ele>
        <time>2019-04-16T11:30:05Z</time>
      </trkpt>
      <trkpt lat="46.32411" lon="6.17209">
        <ele>426</ele>
        <time>2019-04-16T11:31:05Z</time>
      </trkpt>
      <trkpt lat="46.32382" lon="6.17228">
        <ele>426</ele>
        <time>2019-04-16T11:32:05Z</time>
      </trkpt>
      <trkpt lat="46.32268" lon="6.1732">
        <ele>427</ele>
        <time>2019-04-16T11:33:05Z</time>
      </trkpt>
      <trkpt lat="46.32241" lon="6.17335">
        <ele>427</ele>
        <time>2019-04-16T11:34:05Z</time>
      </trkpt>
      <trkpt lat="46.32181" lon="6.17344">
        <ele>428</ele>
        <time>2019-04-16T11:35:05Z</time>
      </trkpt>
      <trkpt lat="46.32125" lon="6.17357">
        <ele>426</ele>
        <time>2019-04-16T11:36:05Z</time>
      </trkpt>
      <trkpt lat="46.32087" lon="6.17362">
        <ele>425</ele>
        <time>2019-04-16T11:37:05Z</time>
      </trkpt>
      <trkpt lat="46.32063" lon="6.17371">
        <ele>424</ele>
        <time>2019-04-16T11:38:05Z</time>
      </trkpt>
      <trkpt lat="46.32034" lon="6.17386">
        <ele>424</ele>
        <time>2019-04-16T11:39:05Z</time>
      </trkpt>
      <trkpt lat="46.32006" lon="6.17417">
        <ele>423</ele>
        <time>2019-04-16T11:40:05Z</time>
      </trkpt>
      <trkpt lat="46.32" lon="6.1742">
        <ele>423</ele>
        <time>2019-04-16T11:41:05Z</time>
      </trkpt>
      <trkpt lat="46.3199" lon="6.17419">
        <ele>423</ele>
        <time>2019-04-16T11:42:05Z</time>
      </trkpt>
      <trkpt lat="46.31926" lon="6.17372">
        <ele>424</ele>
        <time>2019-04-16T11:43:05Z</time>
      </trkpt>
      <trkpt lat="46.31836" lon="6.17348">
        <ele>421</ele>
        <time>2019-04-16T11:44:05Z</time>
      </trkpt>
      <trkpt lat="46.31818" lon="6.17346">
        <ele>421</ele>
        <time>2019-04-16T11:45:05Z</time>
      </trkpt>
      <trkpt lat="46.31817" lon="6.1734">
        <ele>421</ele>
        <time>2019-04-16T11:46:05Z</time>
      </trkpt>
      <trkpt lat="46.31796" lon="6.1732">
        <ele>421</ele>
        <time>2019-04-16T11:47:05Z</time>
      </trkpt>
      <trkpt lat="46.31759" lon="6.1726">
        <ele>422</ele>
        <time>2019-04-16T11:48:05Z</time>
      </trkpt>
      <trkpt lat="46.31748" lon="6.1725">
        <ele>422</ele>
        <time>2019-04-16T11:49:05Z</time>
      </trkpt>
      <trkpt lat="46.31746" lon="6.1723">
        <ele>422</ele>
        <time>2019-04-16T11:50:05Z</time>
      </trkpt>
      <trkpt lat="46.31724" lon="6.17165">
        <ele>423</ele>
        <time>2019-04-16T11:51:05Z</time>
      </trkpt>
      <trkpt lat="46.31691" lon="6.17047">
        <ele>425</ele>
        <time>2019-04-16T11:52:05Z</time>
      </trkpt>
      <trkpt lat="46.31679" lon="6.17023">
        <ele>426</ele>
        <time>2019-04-16T11:53:05Z</time>
      </trkpt>
      <trkpt lat="46.31588" lon="6.16947">
        <ele>425</ele>
        <time>2019-04-16T11:54:05Z</time>
      </trkpt>
      <trkpt lat="46.3157" lon="6.16928">
        <ele>425</ele>
        <time>2019-04-16T11:55:05Z</time>
      </trkpt>
      <trkpt lat="46.31547" lon="6.16893">
        <ele>425</ele>
        <time>2019-04-16T11:56:05Z</time>
      </trkpt>
      <trkpt lat="46.31465" lon="6.16787">
        <ele>425</ele>
        <time>2019-04-16T11:57:05Z</time>
      </trkpt>
      <trkpt lat="46.31432" lon="6.16752">
        <ele>426</ele>
        <time>2019-04-16T11:58:05Z</time>
      </trkpt>
      <trkpt lat="46.31378" lon="6.16713">
        <ele>425</ele>
        <time>2019-04-16T11:59:05Z</time>
      </trkpt>
      <trkpt lat="46.31333" lon="6.16689">
        <ele>424</ele>
        <time>2019-04-16T12:00:05Z</time>
      </trkpt>
      <trkpt lat="46.31306" lon="6.1667">
        <ele>424</ele>
        <time>2019-04-16T12:01:05Z</time>
      </trkpt>
      <trkpt lat="46.3128" lon="6.16647">
        <ele>424</ele>
        <time>2019-04-16T12:02:05Z</time>
      </trkpt>
      <trkpt lat="46.31231" lon="6.16596">
        <ele>424</ele>
        <time>2019-04-16T12:03:05Z</time>
      </trkpt>
      <trkpt lat="46.3122" lon="6.16583">
        <ele>423</ele>
        <time>2019-04-16T12:04:05Z</time>
      </trkpt>
      <trkpt lat="46.3118" lon="6.16521">
        <ele>424</ele>
        <time>2019-04-16T12:05:05Z</time>
      </trkpt>
      <trkpt lat="46.31162" lon="6.16501">
        <ele>424</ele>
        <time>2019-04-16T12:06:05Z</time>
      </trkpt>
      <trkpt lat="46.311" lon="6.16458">
        <ele>422</ele>
        <time>2019-04-16T12:07:05Z</time>
      </trkpt>
      <trkpt lat="46.31039" lon="6.16421">
        <ele>421</ele>
        <time>2019-04-16T12:08:05Z</time>
      </trkpt>
      <trkpt lat="46.31" lon="6.16385">
        <ele>422</ele>
        <time>2019-04-16T12:09:05Z</time>
      </trkpt>
      <trkpt lat="46.30975" lon="6.16356">
        <ele>423</ele>
        <time>2019-04-16T12:10:05Z</time>
      </trkpt>
      <trkpt lat="46.30943" lon="6.16303">
        <ele>424</ele>
        <time>2019-04-16T12:11:05Z</time>
      </trkpt>
      <trkpt lat="46.30932" lon="6.16282">
        <ele>424</ele>
        <time>2019-04-16T12:12:05Z</time>
      </trkpt>
      <trkpt lat="46.30916" lon="6.16243">
        <ele>426</ele>
        <time>2019-04-16T12:13:05Z</time>
      </trkpt>
      <trkpt lat="46.30894" lon="6.16204">
        <ele>425</ele>
        <time>2019-04-16T12:14:05Z</time>
      </trkpt>
      <trkpt lat="46.30862" lon="6.16155">
        <ele>424</ele>
        <time>2019-04-16T12:15:05Z</time>
      </trkpt>
      <trkpt lat="46.30855" lon="6.16146">
        <ele>424</ele>
        <time>2019-04-16T12:16:05Z</time>
      </trkpt>
      <trkpt lat="46.30832" lon="6.16109">
        <ele>423</ele>
        <time>2019-04-16T12:17:05Z</time>
      </trkpt>
      <trkpt lat="46.30825" lon="6.16105">
        <ele>423</ele>
        <time>2019-04-16T12:18:05Z</time>
      </trkpt>
      <trkpt lat="46.30821" lon="6.16108">
        <ele>423</ele>
        <time>2019-04-16T12:19:05Z</time>
      </trkpt>
      <trkpt lat="46.30737" lon="6.163">
        <ele>421</ele>
        <time>2019-04-16T12:20:05Z</time>
      </trkpt>
      <trkpt lat="46.30706" lon="6.16301">
        <ele>422</ele>
        <time>2019-04-16T12:21:05Z</time>
      </trkpt>
      <trkpt lat="46.30692" lon="6.16308">
        <ele>422</ele>
        <time>2019-04-16T12:22:05Z</time>
      </trkpt>
      <trkpt lat="46.30687" lon="6.16294">
        <ele>422</ele>
        <time>2019-04-16T12:23:05Z</time>
      </trkpt>
      <trkpt lat="46.30677" lon="6.1628">
        <ele>421</ele>
        <time>2019-04-16T12:24:05Z</time>
      </trkpt>
      <trkpt lat="46.30662" lon="6.16266">
        <ele>421</ele>
        <time>2019-04-16T12:25:05Z</time>
      </trkpt>
      <trkpt lat="46.30648" lon="6.16258">
        <ele>421</ele>
        <time>2019-04-16T12:26:05Z</time>
      </trkpt>
      <trkpt lat="46.30648" lon="6.16261">
        <ele>421</ele>
        <time>2019-04-16T12:27:05Z</time>
      </trkpt>
      <trkpt lat="46.30109" lon="6.16198">
        <ele>431</ele>
        <time>2019-04-16T12:28:05Z</time>
      </trkpt>
      <trkpt lat="46.30107" lon="6.16203">
        <ele>430</ele>
        <time>2019-04-16T12:29:05Z</time>
      </trkpt>
      <trkpt lat="46.30058" lon="6.16163">
        <ele>430</ele>
        <time>2019-04-16T12:30:05Z</time>
      </trkpt>
      <trkpt lat="46.30038" lon="6.16143">
        <ele>430</ele>
        <time>2019-04-16T12:31:05Z</time>
      </trkpt>
      <trkpt lat="46.30076" lon="6.16049">
        <ele>434</ele>
        <time>2019-04-16T12:32:05Z</time>
      </trkpt>
      <trkpt lat="46.30034" lon="6.15881">
        <ele>434</ele>
        <time>2019-04-16T12:33:05Z</time>
      </trkpt>
      <trkpt lat="46.2999" lon="6.15749">
        <ele>436</ele>
        <time>2019-04-16T12:34:05Z</time>
      </trkpt>
      <trkpt lat="46.29904" lon="6.15583">
        <ele>431</ele>
        <time>2019-04-16T12:35:05Z</time>
      </trkpt>
      <trkpt lat="46.29842" lon="6.15505">
        <ele>428</ele>
        <time>2019-04-16T12:36:05Z</time>
      </trkpt>
      <trkpt lat="46.29787" lon="6.15443">
        <ele>427</ele>
        <time>2019-04-16T12:37:05Z</time>
      </trkpt>
      <trkpt lat="46.29823" lon="6.15373">
        <ele>433</ele>
        <time>2019-04-16T12:38:05Z</time>
      </trkpt>
      <trkpt lat="46.29828" lon="6.15362">
        <ele>434</ele>
        <time>2019-04-16T12:39:05Z</time>
      </trkpt>
      <trkpt lat="46.29636" lon="6.15148">
        <ele>429</ele>
        <time>2019-04-16T12:40:05Z</time>
      </trkpt>
      <trkpt lat="46.29444" lon="6.14929">
        <ele>434</ele>
        <time>2019-04-16T12:41:05Z</time>
      </trkpt>
      <trkpt lat="46.29754" lon="6.1436">
        <ele>436</ele>
        <time>2019-04-16T12:42:05Z</time>
      </trkpt>
      <trkpt lat="46.29306" lon="6.13928">
        <ele>443</ele>
        <time>2019-04-16T12:43:05Z</time>
      </trkpt>
      <trkpt lat="46.28873" lon="6.13506">
        <ele>437</ele>
        <time>2019-04-16T12:44:05Z</time>
      </trkpt>
      <trkpt lat="46.28857" lon="6.13497">
        <ele>436</ele>
        <time>2019-04-16T12:45:05Z</time>
      </trkpt>
      <trkpt lat="46.28847" lon="6.13495">
        <ele>436</ele>
        <time>2019-04-16T12:46:05Z</time>
      </trkpt>
      <trkpt lat="46.28609" lon="6.13491">
        <ele>440</ele>
        <time>2019-04-16T12:47:05Z</time>
      </trkpt>
      <trkpt lat="46.28585" lon="6.13492">
        <ele>439</ele>
        <time>2019-04-16T12:48:05Z</time>
      </trkpt>
      <trkpt lat="46.28509" lon="6.13226">
        <ele>435</ele>
        <time>2019-04-16T12:49:05Z</time>
      </trkpt>
      <trkpt lat="46.28511" lon="6.13204">
        <ele>433</ele>
        <time>2019-04-16T12:50:05Z</time>
      </trkpt>
      <trkpt lat="46.28529" lon="6.13151">
        <ele>429</ele>
        <time>2019-04-16T12:51:05Z</time>
      </trkpt>
      <trkpt lat="46.28528" lon="6.13137">
        <ele>427</ele>
        <time>2019-04-16T12:52:05Z</time>
      </trkpt>
      <trkpt lat="46.28523" lon="6.13131">
        <ele>427</ele>
        <time>2019-04-16T12:53:05Z</time>
      </trkpt>
      <trkpt lat="46.28474" lon="6.13112">
        <ele>424</ele>
        <time>2019-04-16T12:54:05Z</time>
      </trkpt>
      <trkpt lat="46.28457" lon="6.13099">
        <ele>422</ele>
        <time>2019-04-16T12:55:05Z</time>
      </trkpt>
      <trkpt lat="46.2845" lon="6.1309">
        <ele>421</ele>
        <time>2019-04-16T12:56:05Z</time>
      </trkpt>
      <trkpt lat="46.28432" lon="6.13078">
        <ele>420</ele>
        <time>2019-04-16T12:57:05Z</time>
      </trkpt>
      <trkpt lat="46.28455" lon="6.12997">
        <ele>420</ele>
        <time>2019-04-16T12:58:05Z</time>
      </trkpt>
      <trkpt lat="46.28457" lon="6.12986">
        <ele>420</ele>
        <time>2019-04-16T12:59:05Z</time>
      </trkpt>
      <trkpt lat="46.28453" lon="6.12978">
        <ele>420</ele>
        <time>2019-04-16T13:00:05Z</time>
      </trkpt>
      <trkpt lat="46.28446" lon="6.12973">
        <ele>420</ele>
        <time>2019-04-16T13:01:05Z</time>
      </trkpt>
      <trkpt lat="46.28425" lon="6.12971">
        <ele>420</ele>
        <time>2019-04-16T13:02:05Z</time>
      </trkpt>
      <trkpt lat="46.2839" lon="6.12961">
        <ele>423</ele>
        <time>2019-04-16T13:03:05Z</time>
      </trkpt>
      <trkpt lat="46.28325" lon="6.12928">
        <ele>432</ele>
        <time>2019-04-16T13:04:05Z</time>
      </trkpt>
      <trkpt lat="46.28315" lon="6.12922">
        <ele>434</ele>
        <time>2019-04-16T13:05:05Z</time>
      </trkpt>
      <trkpt lat="46.28305" lon="6.12913">
        <ele>436</ele>
        <time>2019-04-16T13:06:05Z</time>
      </trkpt>
      <trkpt lat="46.2829" lon="6.12897">
        <ele>440</ele>
        <time>2019-04-16T13:07:05Z</time>
      </trkpt>
      <trkpt lat="46.28268" lon="6.1286">
        <ele>444</ele>
        <time>2019-04-16T13:08:05Z</time>
      </trkpt>
      <trkpt lat="46.28252" lon="6.12838">
        <ele>446</ele>
        <time>2019-04-16T13:09:05Z</time>
      </trkpt>
      <trkpt lat="46.28232" lon="6.12817">
        <ele>446</ele>
        <time>2019-04-16T13:10:05Z</time>
      </trkpt>
      <trkpt lat="46.28189" lon="6.12784">
        <ele>445</ele>
        <time>2019-04-16T13:11:05Z</time>
      </trkpt>
      <trkpt lat="46.28137" lon="6.12733">
        <ele>444</ele>
        <time>2019-04-16T13:12:05Z</time>
      </trkpt>
      <trkpt lat="46.28129" lon="6.12729">
        <ele>444</ele>
        <time>2019-04-16T13:13:05Z</time>
      </trkpt>
      <trkpt lat="46.28024" lon="6.12672">
        <ele>443</ele>
        <time>2019-04-16T13:14:05Z</time>
      </trkpt>
      <trkpt lat="46.28" lon="6.12667">
        <ele>442</ele>
        <time>2019-04-16T13:15:05Z</time>
      </trkpt>
      <trkpt lat="46.27897" lon="6.1266">
        <ele>442</ele>
        <time>2019-04-16T13:16:05Z</time>
      </trkpt>
      <trkpt lat="46.27878" lon="6.12657">
        <ele>441</ele>
        <time>2019-04-16T13:17:05Z</time>
      </trkpt>
      <trkpt lat="46.27854" lon="6.12644">
        <ele>441</ele>
        <time>2019-04-16T13:18:05Z</time>
      </trkpt>
      <trkpt lat="46.27722" lon="6.12521">
        <ele>438</ele>
        <time>2019-04-16T13:19:05Z</time>
      </trkpt>
      <trkpt lat="46.27699" lon="6.12502">
        <ele>437</ele>
        <time>2019-04-16T13:20:05Z</time>
      </trkpt>
      <trkpt lat="46.27689" lon="6.12496">
        <ele>436</ele>
        <time>2019-04-16T13:21:05Z</time>
      </trkpt>
      <trkpt lat="46.27596" lon="6.12468">
        <ele>430</ele>
        <time>2019-04-16T13:22:05Z</time>
      </trkpt>
      <trkpt lat="46.27578" lon="6.12459">
        <ele>429</ele>
        <time>2019-04-16T13:23:05Z</time>
      </trkpt>
      <trkpt lat="46.27557" lon="6.12444">
        <ele>429</ele>
        <time>2019-04-16T13:24:05Z</time>
      </trkpt>
      <trkpt lat="46.27513" lon="6.12402">
        <ele>429</ele>
        <time>2019-04-16T13:25:05Z</time>
      </trkpt>
      <trkpt lat="46.27439" lon="6.12319">
        <ele>430</ele>
        <time>2019-04-16T13:26:05Z</time>
      </trkpt>
      <trkpt lat="46.27391" lon="6.12281">
        <ele>430</ele>
        <time>2019-04-16T13:27:05Z</time>
      </trkpt>
      <trkpt lat="46.27388" lon="6.12276">
        <ele>430</ele>
        <time>2019-04-16T13:28:05Z</time>
      </trkpt>
      <trkpt lat="46.27374" lon="6.12297">
        <ele>430</ele>
        <time>2019-04-16T13:29:05Z</time>
      </trkpt>
      <trkpt lat="46.27364" lon="6.12288">
        <ele>430</ele>
        <time>2019-04-16T13:30:05Z</time>
      </trkpt>
      <trkpt lat="46.2735" lon="6.12281">
        <ele>430</ele>
        <time>2019-04-16T13:31:05Z</time>
      </trkpt>
      <trkpt lat="46.27339" lon="6.1227">
        <ele>430</ele>
        <time>2019-04-16T13:32:05Z</time>
      </trkpt>
      <trkpt lat="46.27269" lon="6.12188">
        <ele>433</ele>
        <time>2019-04-16T13:33:05Z</time>
      </trkpt>
      <trkpt lat="46.27213" lon="6.12131">
        <ele>436</ele>
        <time>2019-04-16T13:34:05Z</time>
      </trkpt>
      <trkpt lat="46.2715" lon="6.12068">
        <ele>438</ele>
        <time>2019-04-16T13:35:05Z</time>
      </trkpt>
      <trkpt lat="46.27137" lon="6.12059">
        <ele>438</ele>
        <time>2019-04-16T13:36:05Z</time>
      </trkpt>
      <trkpt lat="46.27129" lon="6.12057">
        <ele>439</ele>
        <time>2019-04-16T13:37:05Z</time>
      </trkpt>
      <trkpt lat="46.27123" lon="6.12057">
        <ele>439</ele>
        <time>2019-04-16T13:38:05Z</time>
      </trkpt>
      <trkpt lat="46.27116" lon="6.12062">
        <ele>439</ele>
        <time>2019-04-16T13:39:05Z</time>
      </trkpt>
      <trkpt lat="46.27108" lon="6.12074">
        <ele>439</ele>
        <time>2019-04-16T13:40:05Z</time>
      </trkpt>
      <trkpt lat="46.2704" lon="6.12208">
        <ele>435</ele>
        <time>2019-04-16T13:41:05Z</time>
      </trkpt>
      <trkpt lat="46.27029" lon="6.12227">
        <ele>434</ele>
        <time>2019-04-16T13:42:05Z</time>
      </trkpt>
      <trkpt lat="46.2701" lon="6.1225">
        <ele>434</ele>
        <time>2019-04-16T13:43:05Z</time>
      </trkpt>
      <trkpt lat="46.26985" lon="6.12217">
        <ele>434</ele>
        <time>2019-04-16T13:44:05Z</time>
      </trkpt>
      <trkpt lat="46.26937" lon="6.12172">
        <ele>433</ele>
        <time>2019-04-16T13:45:05Z</time>
      </trkpt>
      <trkpt lat="46.26923" lon="6.12163">
        <ele>433</ele>
        <time>2019-04-16T13:46:05Z</time>
      </trkpt>
      <trkpt lat="46.26916" lon="6.12162">
        <ele>433</ele>
        <time>2019-04-16T13:47:05Z</time>
      </trkpt>
      <trkpt lat="46.26909" lon="6.12165">
        <ele>433</ele>
        <time>2019-04-16T13:48:05Z</time>
      </trkpt>
      <trkpt lat="46.26903" lon="6.12171">
        <ele>433</ele>
        <time>2019-04-16T13:49:05Z</time>
      </trkpt>
      <trkpt lat="46.26837" lon="6.12269">
        <ele>432</ele>
        <time>2019-04-16T13:50:05Z</time>
      </trkpt>
      <trkpt lat="46.26815" lon="6.12318">
        <ele>431</ele>
        <time>2019-04-16T13:51:05Z</time>
      </trkpt>
      <trkpt lat="46.26778" lon="6.12447">
        <ele>430</ele>
        <time>2019-04-16T13:52:05Z</time>
      </trkpt>
      <trkpt lat="46.26751" lon="6.12497">
        <ele>430</ele>
        <time>2019-04-16T13:53:05Z</time>
      </trkpt>
      <trkpt lat="46.26736" lon="6.12517">
        <ele>429</ele>
        <time>2019-04-16T13:54:05Z</time>
      </trkpt>
      <trkpt lat="46.26724" lon="6.12525">
        <ele>428</ele>
        <time>2019-04-16T13:55:05Z</time>
      </trkpt>
      <trkpt lat="46.26712" lon="6.12529">
        <ele>427</ele>
        <time>2019-04-16T13:56:05Z</time>
      </trkpt>
      <trkpt lat="46.26694" lon="6.12529">
        <ele>426</ele>
        <time>2019-04-16T13:57:05Z</time>
      </trkpt>
      <trkpt lat="46.26637" lon="6.12517">
        <ele>424</ele>
        <time>2019-04-16T13:58:05Z</time>
      </trkpt>
      <trkpt lat="46.26623" lon="6.12512">
        <ele>424</ele>
        <time>2019-04-16T13:59:05Z</time>
      </trkpt>
      <trkpt lat="46.26582" lon="6.12491">
        <ele>423</ele>
        <time>2019-04-16T14:00:05Z</time>
      </trkpt>
      <trkpt lat="46.26545" lon="6.12479">
        <ele>422</ele>
        <time>2019-04-16T14:01:05Z</time>
      </trkpt>
      <trkpt lat="46.26504" lon="6.12473">
        <ele>421</ele>
        <time>2019-04-16T14:02:05Z</time>
      </trkpt>
      <trkpt lat="46.26439" lon="6.12478">
        <ele>421</ele>
        <time>2019-04-16T14:03:05Z</time>
      </trkpt>
      <trkpt lat="46.26384" lon="6.12473">
        <ele>421</ele>
        <time>2019-04-16T14:04:05Z</time>
      </trkpt>
      <trkpt lat="46.26364" lon="6.12474">
        <ele>421</ele>
        <time>2019-04-16T14:05:05Z</time>
      </trkpt>
      <trkpt lat="46.26356" lon="6.12481">
        <ele>421</ele>
        <time>2019-04-16T14:06:05Z</time>
      </trkpt>
      <trkpt lat="46.26354" lon="6.12478">
        <ele>421</ele>
        <time>2019-04-16T14:07:05Z</time>
      </trkpt>
      <trkpt lat="46.26346" lon="6.12478">
        <ele>421</ele>
        <time>2019-04-16T14:08:05Z</time>
      </trkpt>
      <trkpt lat="46.26344" lon="6.1248">
        <ele>421</ele>
        <time>2019-04-16T14:09:05Z</time>
      </trkpt>
      <trkpt lat="46.2634" lon="6.12488">
        <ele>421</ele>
        <time>2019-04-16T14:10:05Z</time>
      </trkpt>
      <trkpt lat="46.2634" lon="6.12493">
        <ele>421</ele>
        <time>2019-04-16T14:11:05Z</time>
      </trkpt>
      <trkpt lat="46.26326" lon="6.12497">
        <ele>421</ele>
        <time>2019-04-16T14:12:05Z</time>
      </trkpt>
      <trkpt lat="46.26294" lon="6.12511">
        <ele>421</ele>
        <time>2019-04-16T14:13:05Z</time>
      </trkpt>
      <trkpt lat="46.26234" lon="6.12545">
        <ele>422</ele>
        <time>2019-04-16T14:14:05Z</time>
      </trkpt>
      <trkpt lat="46.26219" lon="6.1255">
        <ele>422</ele>
        <time>2019-04-16T14:15:05Z</time>
      </trkpt>
      <trkpt lat="46.26203" lon="6.12553">
        <ele>422</ele>
        <time>2019-04-16T14:16:05Z</time>
      </trkpt>
      <trkpt lat="46.26147" lon="6.1256">
        <ele>423</ele>
        <time>2019-04-16T14:17:05Z</time>
      </trkpt>
      <trkpt lat="46.26125" lon="6.12568">
        <ele>424</ele>
        <time>2019-04-16T14:18:05Z</time>
      </trkpt>
      <trkpt lat="46.26098" lon="6.12587">
        <ele>425</ele>
        <time>2019-04-16T14:19:05Z</time>
      </trkpt>
      <trkpt lat="46.26081" lon="6.12604">
        <ele>425</ele>
        <time>2019-04-16T14:20:05Z</time>
      </trkpt>
      <trkpt lat="46.26032" lon="6.12524">
        <ele>424</ele>
        <time>2019-04-16T14:21:05Z</time>
      </trkpt>
      <trkpt lat="46.26023" lon="6.12516">
        <ele>424</ele>
        <time>2019-04-16T14:22:05Z</time>
      </trkpt>
      <trkpt lat="46.26012" lon="6.12513">
        <ele>424</ele>
        <time>2019-04-16T14:23:05Z</time>
      </trkpt>
      <trkpt lat="46.25819" lon="6.12546">
        <ele>420</ele>
        <time>2019-04-16T14:24:05Z</time>
      </trkpt>
      <trkpt lat="46.25792" lon="6.12544">
        <ele>421</ele>
        <time>2019-04-16T14:25:05Z</time>
      </trkpt>
      <trkpt lat="46.25741" lon="6.12527">
        <ele>420</ele>
        <time>2019-04-16T14:26:05Z</time>
      </trkpt>
      <trkpt lat="46.25705" lon="6.12521">
        <ele>421</ele>
        <time>2019-04-16T14:27:05Z</time>
      </trkpt>
      <trkpt lat="46.25678" lon="6.12528">
        <ele>421</ele>
        <time>2019-04-16T14:28:05Z</time>
      </trkpt>
      <trkpt lat="46.25664" lon="6.12537">
        <ele>421</ele>
        <time>2019-04-16T14:29:05Z</time>
      </trkpt>
      <trkpt lat="46.25596" lon="6.12572">
        <ele>420</ele>
        <time>2019-04-16T14:30:05Z</time>
      </trkpt>
      <trkpt lat="46.25544" lon="6.12611">
        <ele>417</ele>
        <time>2019-04-16T14:31:05Z</time>
      </trkpt>
      <trkpt lat="46.25489" lon="6.12639">
        <ele>414</ele>
        <time>2019-04-16T14:32:05Z</time>
      </trkpt>
      <trkpt lat="46.25471" lon="6.12655">
        <ele>414</ele>
        <time>2019-04-16T14:33:05Z</time>
      </trkpt>
      <trkpt lat="46.2546" lon="6.12676">
        <ele>414</ele>
        <time>2019-04-16T14:34:05Z</time>
      </trkpt>
      <trkpt lat="46.25356" lon="6.1296">
        <ele>411</ele>
        <time>2019-04-16T14:35:05Z</time>
      </trkpt>
      <trkpt lat="46.25261" lon="6.12965">
        <ele>406</ele>
        <time>2019-04-16T14:36:05Z</time>
      </trkpt>
      <trkpt lat="46.25215" lon="6.12975">
        <ele>406</ele>
        <time>2019-04-16T14:37:05Z</time>
      </trkpt>
      <trkpt lat="46.2511" lon="6.13014">
        <ele>406</ele>
        <time>2019-04-16T14:38:05Z</time>
      </trkpt>
      <trkpt lat="46.25086" lon="6.13022">
        <ele>406</ele>
        <time>2019-04-16T14:39:05Z</time>
      </trkpt>
      <trkpt lat="46.25049" lon="6.13026">
        <ele>407</ele>
        <time>2019-04-16T14:40:05Z</time>
      </trkpt>
      <trkpt lat="46.25016" lon="6.13025">
        <ele>408</ele>
        <time>2019-04-16T14:41:05Z</time>
      </trkpt>
      <trkpt lat="46.25016" lon="6.13043">
        <ele>408</ele>
        <time>2019-04-16T14:42:05Z</time>
      </trkpt>
      <trkpt lat="46.25033" lon="6.13147">
        <ele>408</ele>
        <time>2019-04-16T14:43:05Z</time>
      </trkpt>
      <trkpt lat="46.25042" lon="6.13212">
        <ele>407</ele>
        <time>2019-04-16T14:44:05Z</time>
      </trkpt>
      <trkpt lat="46.25059" lon="6.13311">
        <ele>404</ele>
        <time>2019-04-16T14:45:05Z</time>
      </trkpt>
      <trkpt lat="46.25076" lon="6.13436">
        <ele>408</ele>
        <time>2019-04-16T14:46:05Z</time>
      </trkpt>
      <trkpt lat="46.25086" lon="6.1353">
        <ele>409</ele>
        <time>2019-04-16T14:47:05Z</time>
      </trkpt>
      <trkpt lat="46.25086" lon="6.13539">
        <ele>409</ele>
        <time>2019-04-16T14:48:05Z</time>
      </trkpt>
      <trkpt lat="46.25083" lon="6.13551">
        <ele>408</ele>
        <time>2019-04-16T14:49:05Z</time>
      </trkpt>
      <trkpt lat="46.25076" lon="6.13565">
        <ele>407</ele>
        <time>2019-04-16T14:50:05Z</time>
      </trkpt>
      <trkpt lat="46.25062" lon="6.13585">
        <ele>405</ele>
        <time>2019-04-16T14:51:05Z</time>
      </trkpt>
      <trkpt lat="46.25043" lon="6.13605">
        <ele>404</ele>
        <time>2019-04-16T14:52:05Z</time>
      </trkpt>
      <trkpt lat="46.25" lon="6.13642">
        <ele>400</ele>
        <time>2019-04-16T14:53:05Z</time>
      </trkpt>
      <trkpt lat="46.24916" lon="6.1371">
        <ele>404</ele>
        <time>2019-04-16T14:54:05Z</time>
      </trkpt>
      <trkpt lat="46.24907" lon="6.13669">
        <ele>403</ele>
        <time>2019-04-16T14:55:05Z</time>
      </trkpt>
      <trkpt lat="46.24855" lon="6.13668">
        <ele>405</ele>
        <time>2019-04-16T14:56:05Z</time>
      </trkpt>
      <trkpt lat="46.24815" lon="6.13683">
        <ele>406</ele>
        <time>2019-04-16T14:57:05Z</time>
      </trkpt>
      <trkpt lat="46.24803" lon="6.13691">
        <ele>407</ele>
        <time>2019-04-16T14:58:05Z</time>
      </trkpt>
      <trkpt lat="46.24771" lon="6.13721">
        <ele>408</ele>
        <time>2019-04-16T14:59:05Z</time>
      </trkpt>
      <trkpt lat="46.24739" lon="6.13739">
        <ele>409</ele>
        <time>2019-04-16T15:00:05Z</time>
      </trkpt>
      <trkpt lat="46.24731" lon="6.13741">
        <ele>409</ele>
        <time>2019-04-16T15:01:05Z</time>
      </trkpt>
      <trkpt lat="46.24667" lon="6.13734">
        <ele>410</ele>
        <time>2019-04-16T15:02:05Z</time>
      </trkpt>
      <trkpt lat="46.24634" lon="6.13733">
        <ele>411</ele>
        <time>2019-04-16T15:03:05Z</time>
      </trkpt>
      <trkpt lat="46.2461" lon="6.13729">
        <ele>412</ele>
        <time>2019-04-16T15:04:05Z</time>
      </trkpt>
      <trkpt lat="46.24538" lon="6.13737">
        <ele>414</ele>
        <time>2019-04-16T15:05:05Z</time>
      </trkpt>
      <trkpt lat="46.24516" lon="6.13751">
        <ele>414</ele>
        <time>2019-04-16T15:06:05Z</time>
      </trkpt>
      <trkpt lat="46.24503" lon="6.13752">
        <ele>415</ele>
        <time>2019-04-16T15:07:05Z</time>
      </trkpt>
      <trkpt lat="46.24495" lon="6.13763">
        <ele>414</ele>
        <time>2019-04-16T15:08:05Z</time>
      </trkpt>
      <trkpt lat="46.24448" lon="6.13797">
        <ele>413</ele>
        <time>2019-04-16T15:09:05Z</time>
      </trkpt>
      <trkpt lat="46.24431" lon="6.13816">
        <ele>412</ele>
        <time>2019-04-16T15:10:05Z</time>
      </trkpt>
      <trkpt lat="46.24402" lon="6.13857">
        <ele>413</ele>
        <time>2019-04-16T15:11:05Z</time>
      </trkpt>
      <trkpt lat="46.24375" lon="6.13922">
        <ele>414</ele>
        <time>2019-04-16T15:12:05Z</time>
      </trkpt>
      <trkpt lat="46.24341" lon="6.13987">
        <ele>414</ele>
        <time>2019-04-16T15:13:05Z</time>
      </trkpt>
      <trkpt lat="46.24295" lon="6.14084">
        <ele>416</ele>
        <time>2019-04-16T15:14:05Z</time>
      </trkpt>
      <trkpt lat="46.24285" lon="6.141">
        <ele>417</ele>
        <time>2019-04-16T15:15:05Z</time>
      </trkpt>
      <trkpt lat="46.24274" lon="6.14128">
        <ele>418</ele>
        <time>2019-04-16T15:16:05Z</time>
      </trkpt>
      <trkpt lat="46.24274" lon="6.14138">
        <ele>418</ele>
        <time>2019-04-16T15:17:05Z</time>
      </trkpt>
      <trkpt lat="46.2426" lon="6.14179">
        <ele>420</ele>
        <time>2019-04-16T15:18:05Z</time>
      </trkpt>
      <trkpt lat="46.24238" lon="6.1427">
        <ele>423</ele>
        <time>2019-04-16T15:19:05Z</time>
      </trkpt>
      <trkpt lat="46.24222" lon="6.14316">
        <ele>424</ele>
        <time>2019-04-16T15:20:05Z</time>
      </trkpt>
      <trkpt lat="46.242" lon="6.14358">
        <ele>423</ele>
        <time>2019-04-16T15:21:05Z</time>
      </trkpt>
      <trkpt lat="46.24211" lon="6.14354">
        <ele>423</ele>
        <time>2019-04-16T15:22:05Z</time>
      </trkpt>
      <trkpt lat="46.24224" lon="6.14356">
        <ele>422</ele>
        <time>2019-04-16T15:23:05Z</time>
      </trkpt>
      <trkpt lat="46.24232" lon="6.14364">
        <ele>421</ele>
        <time>2019-04-16T15:24:05Z</time>
      </trkpt>
      <trkpt lat="46.24254" lon="6.14413">
        <ele>418</ele>
        <time>2019-04-16T15:25:05Z</time>
      </trkpt>
      <trkpt lat="46.24302" lon="6.14481">
        <ele>410</ele>
        <time>2019-04-16T15:26:05Z</time>
      </trkpt>
      <trkpt lat="46.24329" lon="6.14525">
        <ele>408</ele>
        <time>2019-04-16T15:27:05Z</time>
      </trkpt>
      <trkpt lat="46.24339" lon="6.14551">
        <ele>407</ele>
        <time>2019-04-16T15:28:05Z</time>
      </trkpt>
      <trkpt lat="46.24343" lon="6.14589">
        <ele>404</ele>
        <time>2019-04-16T15:29:05Z</time>
      </trkpt>
      <trkpt lat="46.24341" lon="6.14638">
        <ele>400</ele>
        <time>2019-04-16T15:30:05Z</time>
      </trkpt>
      <trkpt lat="46.24333" lon="6.14677">
        <ele>396</ele>
        <time>2019-04-16T15:31:05Z</time>
      </trkpt>
      <trkpt lat="46.24308" lon="6.14664">
        <ele>397</ele>
        <time>2019-04-16T15:32:05Z</time>
      </trkpt>
      <trkpt lat="46.24241" lon="6.14612">
        <ele>397</ele>
        <time>2019-04-16T15:33:05Z</time>
      </trkpt>
      <trkpt lat="46.24183" lon="6.14593">
        <ele>397</ele>
        <time>2019-04-16T15:34:05Z</time>
      </trkpt>
      <trkpt lat="46.24155" lon="6.14592">
        <ele>397</ele>
        <time>2019-04-16T15:35:05Z</time>
      </trkpt>
      <trkpt lat="46.24128" lon="6.14597">
        <ele>397</ele>
        <time>2019-04-16T15:36:05Z</time>
      </trkpt>
      <trkpt lat="46.24097" lon="6.14606">
        <ele>397</ele>
        <time>2019-04-16T15:37:05Z</time>
      </trkpt>
      <trkpt lat="46.24087" lon="6.14613">
        <ele>396</ele>
        <time>2019-04-16T15:38:05Z</time>
      </trkpt>
      <trkpt lat="46.24068" lon="6.14651">
        <ele>394</ele>
        <time>2019-04-16T15:39:05Z</time>
      </trkpt>
      <trkpt lat="46.24059" lon="6.1466">
        <ele>394</ele>
        <time>2019-04-16T15:40:05Z</time>
      </trkpt>
      <trkpt lat="46.23995" lon="6.14701">
        <ele>394</ele>
        <time>2019-04-16T15:41:05Z</time>
      </trkpt>
      <trkpt lat="46.2398" lon="6.14703">
        <ele>394</ele>
        <time>2019-04-16T15:42:05Z</time>
      </trkpt>
      <trkpt lat="46.23828" lon="6.14691">
        <ele>395</ele>
        <time>2019-04-16T15:43:05Z</time>
      </trkpt>
      <trkpt lat="46.2372" lon="6.14678">
        <ele>396</ele>
        <time>2019-04-16T15:44:05Z</time>
      </trkpt>
      <trkpt lat="46.23691" lon="6.1467">
        <ele>398</ele>
        <time>2019-04-16T15:45:05Z</time>
      </trkpt>
      <trkpt lat="46.23692" lon="6.14677">
        <ele>397</ele>
        <time>2019-04-16T15:46:05Z</time>
      </trkpt>
      <trkpt lat="46.23689" lon="6.147">
        <ele>395</ele>
        <time>2019-04-16T15:47:05Z</time>
      </trkpt>
      <trkpt lat="46.23689" lon="6.14791">
        <ele>389</ele>
        <time>2019-04-16T15:48:05Z</time>
      </trkpt>
      <trkpt lat="46.23691" lon="6.14803">
        <ele>388</ele>
        <time>2019-04-16T15:49:05Z</time>
      </trkpt>
      <trkpt lat="46.23693" lon="6.14812">
        <ele>388</ele>
        <time>2019-04-16T15:50:05Z</time>
      </trkpt>
      <trkpt lat="46.23689" lon="6.1482">
        <ele>388</ele>
        <time>2019-04-16T15:51:05Z</time>
      </trkpt>
      <trkpt lat="46.2369" lon="6.14827">
        <ele>387</ele>
        <time>2019-04-16T15:52:05Z</time>
      </trkpt>
      <trkpt lat="46.23693" lon="6.14833">
        <ele>387</ele>
        <time>2019-04-16T15:53:05Z</time>
      </trkpt>
      <trkpt lat="46.23693" lon="6.14865">
        <ele>386</ele>
        <time>2019-04-16T15:54:05Z</time>
      </trkpt>
      <trkpt lat="46.2368" lon="6.14894">
        <ele>385</ele>
        <time>2019-04-16T15:55:05Z</time>
      </trkpt>
      <trkpt lat="46.23254" lon="6.14937">
        <ele>382</ele>
        <time>2019-04-16T15:56:05Z</time>
      </trkpt>
      <trkpt lat="46.2317" lon="6.14939">
        <ele>381</ele>
        <time>2019-04-16T15:57:05Z</time>
      </trkpt>
      <trkpt lat="46.23062" lon="6.14933">
        <ele>380</ele>
        <time>2019-04-16T15:58:05Z</time>
      </trkpt>
      <trkpt lat="46.22968" lon="6.1492">
        <ele>380</ele>
        <time>2019-04-16T15:59:05Z</time>
      </trkpt>
      <trkpt lat="46.22878" lon="6.14901">
        <ele>380</ele>
        <time>2019-04-16T16:00:05Z</time>
      </trkpt>
      <trkpt lat="46.22809" lon="6.14881">
        <ele>380</ele>
        <time>2019-04-16T16:01:05Z</time>
      </trkpt>
      <trkpt lat="46.22799" lon="6.14884">
        <ele>380</ele>
        <time>2019-04-16T16:02:05Z</time>
      </trkpt>
      <trkpt lat="46.22773" lon="6.14876">
        <ele>380</ele>
        <time>2019-04-16T16:03:05Z</time>
      </trkpt>
      <trkpt lat="46.22594" lon="6.14803">
        <ele>381</ele>
        <time>2019-04-16T16:04:05Z</time>
      </trkpt>
      <trkpt lat="46.22578" lon="6.14797">
        <ele>381</ele>
        <time>2019-04-16T16:05:05Z</time>
      </trkpt>
      <trkpt lat="46.2255" lon="6.14792">
        <ele>382</ele>
        <time>2019-04-16T16:06:05Z</time>
      </trkpt>
      <trkpt lat="46.22517" lon="6.14793">
        <ele>383</ele>
        <time>2019-04-16T16:07:05Z</time>
      </trkpt>
      <trkpt lat="46.22491" lon="6.14799">
        <ele>383</ele>
        <time>2019-04-16T16:08:05Z</time>
      </trkpt>
      <trkpt lat="46.22406" lon="6.14837">
        <ele>381</ele>
        <time>2019-04-16T16:09:05Z</time>
      </trkpt>
      <trkpt lat="46.22398" lon="6.14834">
        <ele>382</ele>
        <time>2019-04-16T16:10:05Z</time>
      </trkpt>
      <trkpt lat="46.22234" lon="6.14912">
        <ele>391</ele>
        <time>2019-04-16T16:11:05Z</time>
      </trkpt>
      <trkpt lat="46.22226" lon="6.14923">
        <ele>391</ele>
        <time>2019-04-16T16:12:05Z</time>
      </trkpt>
      <trkpt lat="46.22231" lon="6.14925">
        <ele>391</ele>
        <time>2019-04-16T16:13:05Z</time>
      </trkpt>
      <trkpt lat="46.22236" lon="6.14923">
        <ele>390</ele>
        <time>2019-04-16T16:14:05Z</time>
      </trkpt>
      <trkpt lat="46.22238" lon="6.14931">
        <ele>390</ele>
        <time>2019-04-16T16:15:05Z</time>
      </trkpt>
      <trkpt lat="46.22183" lon="6.14957">
        <ele>392</ele>
        <time>2019-04-16T16:16:05Z</time>
      </trkpt>
      <trkpt lat="46.22238" lon="6.14931">
        <ele>390</ele>
        <time>2019-04-16T16:17:05Z</time>
      </trkpt>
      <trkpt lat="46.22234" lon="6.14912">
        <ele>391</ele>
        <time>2019-04-16T16:18:05Z</time>
      </trkpt>
      <trkpt lat="46.22226" lon="6.14923">
        <ele>391</ele>
        <time>2019-04-16T16:19:05Z</time>
      </trkpt>
      <trkpt lat="46.22128" lon="6.14972">
        <ele>392</ele>
        <time>2019-04-16T16:20:05Z</time>
      </trkpt>
      <trkpt lat="46.22081" lon="6.14993">
        <ele>391</ele>
        <time>2019-04-16T16:21:05Z</time>
      </trkpt>
      <trkpt lat="46.22059" lon="6.14991">
        <ele>390</ele>
        <time>2019-04-16T16:22:05Z</time>
      </trkpt>
      <trkpt lat="46.22021" lon="6.14973">
        <ele>389</ele>
        <time>2019-04-16T16:23:05Z</time>
      </trkpt>
      <trkpt lat="46.21928" lon="6.14913">
        <ele>388</ele>
        <time>2019-04-16T16:24:05Z</time>
      </trkpt>
      <trkpt lat="46.21904" lon="6.1489">
        <ele>389</ele>
        <time>2019-04-16T16:25:05Z</time>
      </trkpt>
      <trkpt lat="46.2188" lon="6.14885">
        <ele>389</ele>
        <time>2019-04-16T16:26:05Z</time>
      </trkpt>
      <trkpt lat="46.21873" lon="6.149">
        <ele>389</ele>
        <time>2019-04-16T16:27:05Z</time>
      </trkpt>
      <trkpt lat="46.21852" lon="6.14934">
        <ele>390</ele>
        <time>2019-04-16T16:28:05Z</time>
      </trkpt>
      <trkpt lat="46.21778" lon="6.15019">
        <ele>389</ele>
        <time>2019-04-16T16:29:05Z</time>
      </trkpt>
      <trkpt lat="46.21741" lon="6.15054">
        <ele>385</ele>
        <time>2019-04-16T16:30:05Z</time>
      </trkpt>
      <trkpt lat="46.21695" lon="6.15093">
        <ele>381</ele>
        <time>2019-04-16T16:31:05Z</time>
      </trkpt>
      <trkpt lat="46.21653" lon="6.15123">
        <ele>379</ele>
        <time>2019-04-16T16:32:05Z</time>
      </trkpt>
      <trkpt lat="46.21636" lon="6.15141">
        <ele>378</ele>
        <time>2019-04-16T16:33:05Z</time>
      </trkpt>
      <trkpt lat="46.21618" lon="6.15154">
        <ele>376</ele>
        <time>2019-04-16T16:34:05Z</time>
      </trkpt>
      <trkpt lat="46.21585" lon="6.1517">
        <ele>372</ele>
        <time>2019-04-16T16:35:05Z</time>
      </trkpt>
      <trkpt lat="46.21549" lon="6.15181">
        <ele>375</ele>
        <time>2019-04-16T16:36:05Z</time>
      </trkpt>
      <trkpt lat="46.21163" lon="6.15285">
        <ele>377</ele>
        <time>2019-04-16T16:37:05Z</time>
      </trkpt>
      <trkpt lat="46.21162" lon="6.15274">
        <ele>378</ele>
        <time>2019-04-16T16:38:05Z</time>
      </trkpt>
      <trkpt lat="46.2115" lon="6.15272">
        <ele>378</ele>
        <time>2019-04-16T16:39:05Z</time>
      </trkpt>
      <trkpt lat="46.21133" lon="6.1526">
        <ele>378</ele>
        <time>2019-04-16T16:40:05Z</time>
      </trkpt>
      <trkpt lat="46.2089" lon="6.14993">
        <ele>380</ele>
        <time>2019-04-16T16:41:05Z</time>
      </trkpt>
      <trkpt lat="46.20803" lon="6.14896">
        <ele>378</ele>
        <time>2019-04-16T16:42:05Z</time>
      </trkpt>
      <trkpt lat="46.20747" lon="6.14831">
        <ele>379</ele>
        <time>2019-04-16T16:43:05Z</time>
      </trkpt>
      <trkpt lat="46.20707" lon="6.14788">
        <ele>378</ele>
        <time>2019-04-16T16:44:05Z</time>
      </trkpt>
      <trkpt lat="46.20701" lon="6.148">
        <ele>377</ele>
        <time>2019-04-16T16:45:05Z</time>
      </trkpt>
      <trkpt lat="46.2073" lon="6.14832">
        <ele>378</ele>
        <time>2019-04-16T16:46:05Z</time>
      </trkpt>
      <trkpt lat="46.20701" lon="6.148">
        <ele>377</ele>
        <time>2019-04-16T16:47:05Z</time>
      </trkpt>
      <trkpt lat="46.20707" lon="6.14788">
        <ele>378</ele>
        <time>2019-04-16T16:48:05Z</time>
      </trkpt>
      <trkpt lat="46.20694" lon="6.1477">
        <ele>378</ele>
        <time>2019-04-16T16:49:05Z</time>
      </trkpt>
      <trkpt lat="46.20492" lon="6.14963">
        <ele>373</ele>
        <time>2019-04-16T16:50:05Z</time>
      </trkpt>
      <trkpt lat="46.20472" lon="6.14972">
        <ele>374</ele>
        <time>2019-04-16T16:51:05Z</time>
      </trkpt>
      <trkpt lat="46.20417" lon="6.15024">
        <ele>376</ele>
        <time>2019-04-16T16:52:05Z</time>
      </trkpt>
      <trkpt lat="46.20397" lon="6.15064">
        <ele>377</ele>
        <time>2019-04-16T16:53:05Z</time>
      </trkpt>
      <trkpt lat="46.20382" lon="6.15115">
        <ele>378</ele>
        <time>2019-04-16T16:54:05Z</time>
      </trkpt>
      <trkpt lat="46.20346" lon="6.15288">
        <ele>377</ele>
        <time>2019-04-16T16:55:05Z</time>
      </trkpt>
      <trkpt lat="46.20296" lon="6.15513">
        <ele>382</ele>
        <time>2019-04-16T16:56:05Z</time>
      </trkpt>
      <trkpt lat="46.20266" lon="6.15659">
        <ele>384</ele>
        <time>2019-04-16T16:57:05Z</time>
      </trkpt>
      <trkpt lat="46.20257" lon="6.15685">
        <ele>385</ele>
        <time>2019-04-16T16:58:05Z</time>
      </trkpt>
      <trkpt lat="46.20173" lon="6.1589">
        <ele>387</ele>
        <time>2019-04-16T16:59:05Z</time>
      </trkpt>
      <trkpt lat="46.20111" lon="6.16046">
        <ele>395</ele>
        <time>2019-04-16T17:00:05Z</time>
      </trkpt>
      <trkpt lat="46.20136" lon="6.16097">
        <ele>395</ele>
        <time>2019-04-16T17:01:05Z</time>
      </trkpt>
      <trkpt lat="46.20143" lon="6.16116">
        <ele>394</ele>
        <time>2019-04-16T17:02:05Z</time>
      </trkpt>
      <trkpt lat="46.20176" lon="6.16238">
        <ele>393</ele>
        <time>2019-04-16T17:03:05Z</time>
      </trkpt>
      <trkpt lat="46.20364" lon="6.16816">
        <ele>403</ele>
        <time>2019-04-16T17:04:05Z</time>
      </trkpt>
      <trkpt lat="46.20274" lon="6.16947">
        <ele>408</ele>
        <time>2019-04-16T17:05:05Z</time>
      </trkpt>
      <trkpt lat="46.2027" lon="6.16955">
        <ele>409</ele>
        <time>2019-04-16T17:06:05Z</time>
      </trkpt>
      <trkpt lat="46.20309" lon="6.17029">
        <ele>409</ele>
        <time>2019-04-16T17:07:05Z</time>
      </trkpt>
      <trkpt lat="46.20317" lon="6.1705">
        <ele>408</ele>
        <time>2019-04-16T17:08:05Z</time>
      </trkpt>
      <trkpt lat="46.20329" lon="6.17097">
        <ele>408</ele>
        <time>2019-04-16T17:09:05Z</time>
      </trkpt>
      <trkpt lat="46.20376" lon="6.17279">
        <ele>417</ele>
        <time>2019-04-16T17:10:05Z</time>
      </trkpt>
      <trkpt lat="46.20384" lon="6.17315">
        <ele>419</ele>
        <time>2019-04-16T17:11:05Z</time>
      </trkpt>
      <trkpt lat="46.20391" lon="6.17367">
        <ele>422</ele>
        <time>2019-04-16T17:12:05Z</time>
      </trkpt>
      <trkpt lat="46.20393" lon="6.17433">
        <ele>426</ele>
        <time>2019-04-16T17:13:05Z</time>
      </trkpt>
      <trkpt lat="46.2039" lon="6.17489">
        <ele>428</ele>
        <time>2019-04-16T17:14:05Z</time>
      </trkpt>
      <trkpt lat="46.20381" lon="6.17548">
        <ele>427</ele>
        <time>2019-04-16T17:15:05Z</time>
      </trkpt>
      <trkpt lat="46.20367" lon="6.17599">
        <ele>426</ele>
        <time>2019-04-16T17:16:05Z</time>
      </trkpt>
      <trkpt lat="46.20324" lon="6.17718">
        <ele>426</ele>
        <time>2019-04-16T17:17:05Z</time>
      </trkpt>
      <trkpt lat="46.20304" lon="6.17769">
        <ele>425</ele>
        <time>2019-04-16T17:18:05Z</time>
      </trkpt>
      <trkpt lat="46.20316" lon="6.1779">
        <ele>424</ele>
        <time>2019-04-16T17:19:05Z</time>
      </trkpt>
      <trkpt lat="46.20327" lon="6.17804">
        <ele>424</ele>
        <time>2019-04-16T17:20:05Z</time>
      </trkpt>
      <trkpt lat="46.20281" lon="6.17902">
        <ele>423</ele>
        <time>2019-04-16T17:21:05Z</time>
      </trkpt>
      <trkpt lat="46.2018" lon="6.1817">
        <ele>423</ele>
        <time>2019-04-16T17:22:05Z</time>
      </trkpt>
      <trkpt lat="46.2018" lon="6.1817">
        <ele>423</ele>
        <time>2019-04-16T17:23:05Z</time>
      </trkpt>
      <trkpt lat="46.19985" lon="6.18709">
        <ele>426</ele>
        <time>2019-04-16T17:24:05Z</time>
      </trkpt>
      <trkpt lat="46.19985" lon="6.18709">
        <ele>426</ele>
        <time>2019-04-16T17:25:05Z</time>
      </trkpt>
      <trkpt lat="46.19688" lon="6.19417">
        <ele>422</ele>
        <time>2019-04-16T17:26:05Z</time>
      </trkpt>
      <trkpt lat="46.19688" lon="6.19416">
        <ele>422</ele>
        <time>2019-04-16T17:27:05Z</time>
      </trkpt>
      <trkpt lat="46.19735" lon="6.19455">
        <ele>422</ele>
        <time>2019-04-16T17:28:05Z</time>
      </trkpt>
      <trkpt lat="46.19735" lon="6.19483">
        <ele>421</ele>
        <time>2019-04-16T17:29:05Z</time>
      </trkpt>
      <trkpt lat="46.19738" lon="6.19573">
        <ele>421</ele>
        <time>2019-04-16T17:30:05Z</time>
      </trkpt>
      <trkpt lat="46.19733" lon="6.19794">
        <ele>422</ele>
        <time>2019-04-16T17:31:05Z</time>
      </trkpt>
      <trkpt lat="46.19737" lon="6.19938">
        <ele>421</ele>
        <time>2019-04-16T17:32:05Z</time>
      </trkpt>
      <trkpt lat="46.19739" lon="6.20052">
        <ele>421</ele>
        <time>2019-04-16T17:33:05Z</time>
      </trkpt>
      <trkpt lat="46.19647" lon="6.19994">
        <ele>421</ele>
        <time>2019-04-16T17:34:05Z</time>
      </trkpt>
      <trkpt lat="46.19647" lon="6.19997">
        <ele>421</ele>
        <time>2019-04-16T17:35:05Z</time>
      </trkpt>
      <trkpt lat="46.19648" lon="6.19998">
        <ele>421</ele>
        <time>2019-04-16T17:36:05Z</time>
      </trkpt>
      <trkpt lat="46.19681" lon="6.20456">
        <ele>424</ele>
        <time>2019-04-16T17:37:05Z</time>
      </trkpt>
      <trkpt lat="46.19683" lon="6.20456">
        <ele>424</ele>
        <time>2019-04-16T17:38:05Z</time>
      </trkpt>
      <trkpt lat="46.19679" lon="6.20496">
        <ele>425</ele>
        <time>2019-04-16T17:39:05Z</time>
      </trkpt>
      <trkpt lat="46.19672" lon="6.20529">
        <ele>425</ele>
        <time>2019-04-16T17:40:05Z</time>
      </trkpt>
      <trkpt lat="46.19658" lon="6.20586">
        <ele>424</ele>
        <time>2019-04-16T17:41:05Z</time>
      </trkpt>
      <trkpt lat="46.19633" lon="6.20657">
        <ele>424</ele>
        <time>2019-04-16T17:42:05Z</time>
      </trkpt>
      <trkpt lat="46.19633" lon="6.20655">
        <ele>424</ele>
        <time>2019-04-16T17:43:05Z</time>
      </trkpt>
      <trkpt lat="46.19633" lon="6.20656">
        <ele>424</ele>
        <time>2019-04-16T17:44:05Z</time>
      </trkpt>
      <trkpt lat="46.19476" lon="6.21048">
        <ele>424</ele>
        <time>2019-04-16T17:45:05Z</time>
      </trkpt>
      <trkpt lat="46.1948" lon="6.21051">
        <ele>424</ele>
        <time>2019-04-16T17:46:05Z</time>
      </trkpt>
      <trkpt lat="46.19402" lon="6.21252">
        <ele>422</ele>
        <time>2019-04-16T17:47:05Z</time>
      </trkpt>
      <trkpt lat="46.19379" lon="6.21329">
        <ele>421</ele>
        <time>2019-04-16T17:48:05Z</time>
      </trkpt>
      <trkpt lat="46.1937" lon="6.21364">
        <ele>420</ele>
        <time>2019-04-16T17:49:05Z</time>
      </trkpt>
      <trkpt lat="46.19364" lon="6.21401">
        <ele>419</ele>
        <time>2019-04-16T17:50:05Z</time>
      </trkpt>
      <trkpt lat="46.19359" lon="6.21445">
        <ele>420</ele>
        <time>2019-04-16T17:51:05Z</time>
      </trkpt>
      <trkpt lat="46.19356" lon="6.21497">
        <ele>421</ele>
        <time>2019-04-16T17:52:05Z</time>
      </trkpt>
      <trkpt lat="46.19361" lon="6.21498">
        <ele>421</ele>
        <time>2019-04-16T17:53:05Z</time>
      </trkpt>
      <trkpt lat="46.19356" lon="6.21497">
        <ele>421</ele>
        <time>2019-04-16T17:54:05Z</time>
      </trkpt>
      <trkpt lat="46.19357" lon="6.21571">
        <ele>422</ele>
        <time>2019-04-16T17:55:05Z</time>
      </trkpt>
      <trkpt lat="46.19442" lon="6.22412">
        <ele>428</ele>
        <time>2019-04-16T17:56:05Z</time>
      </trkpt>
      <trkpt lat="46.19469" lon="6.22701">
        <ele>428</ele>
        <time>2019-04-16T17:57:05Z</time>
      </trkpt>
      <trkpt lat="46.1948" lon="6.22772">
        <ele>428</ele>
        <time>2019-04-16T17:58:05Z</time>
      </trkpt>
      <trkpt lat="46.19403" lon="6.22819">
        <ele>430</ele>
        <time>2019-04-16T17:59:05Z</time>
      </trkpt>
      <trkpt lat="46.1939" lon="6.22819">
        <ele>430</ele>
        <time>2019-04-16T18:00:05Z</time>
      </trkpt>
      <trkpt lat="46.19378" lon="6.22812">
        <ele>430</ele>
        <time>2019-04-16T18:01:05Z</time>
      </trkpt>
      <trkpt lat="46.19372" lon="6.22811">
        <ele>431</ele>
        <time>2019-04-16T18:02:05Z</time>
      </trkpt>
      <trkpt lat="46.19367" lon="6.22817">
        <ele>431</ele>
        <time>2019-04-16T18:03:05Z</time>
      </trkpt>
      <trkpt lat="46.19363" lon="6.22837">
        <ele>431</ele>
        <time>2019-04-16T18:04:05Z</time>
      </trkpt>
      <trkpt lat="46.1936" lon="6.22842">
        <ele>431</ele>
        <time>2019-04-16T18:05:05Z</time>
      </trkpt>
      <trkpt lat="46.19302" lon="6.22864">
        <ele>431</ele>
        <time>2019-04-16T18:06:05Z</time>
      </trkpt>
      <trkpt lat="46.19294" lon="6.22865">
        <ele>431</ele>
        <time>2019-04-16T18:07:05Z</time>
      </trkpt>
      <trkpt lat="46.19287" lon="6.22862">
        <ele>431</ele>
        <time>2019-04-16T18:08:05Z</time>
      </trkpt>
      <trkpt lat="46.19282" lon="6.22869">
        <ele>431</ele>
        <time>2019-04-16T18:09:05Z</time>
      </trkpt>
      <trkpt lat="46.19281" lon="6.22877">
        <ele>431</ele>
        <time>2019-04-16T18:10:05Z</time>
      </trkpt>
      <trkpt lat="46.19229" lon="6.2289">
        <ele>431</ele>
        <time>2019-04-16T18:11:05Z</time>
      </trkpt>
      <trkpt lat="46.19216" lon="6.22898">
        <ele>431</ele>
        <time>2019-04-16T18:12:05Z</time>
      </trkpt>
      <trkpt lat="46.19209" lon="6.22904">
        <ele>431</ele>
        <time>2019-04-16T18:13:05Z</time>
      </trkpt>
      <trkpt lat="46.19199" lon="6.22918">
        <ele>432</ele>
        <time>2019-04-16T18:14:05Z</time>
      </trkpt>
      <trkpt lat="46.19193" lon="6.22931">
        <ele>432</ele>
        <time>2019-04-16T18:15:05Z</time>
      </trkpt>
      <trkpt lat="46.19145" lon="6.23086">
        <ele>430</ele>
        <time>2019-04-16T18:16:05Z</time>
      </trkpt>
      <trkpt lat="46.19116" lon="6.23138">
        <ele>430</ele>
        <time>2019-04-16T18:17:05Z</time>
      </trkpt>
      <trkpt lat="46.19107" lon="6.23161">
        <ele>430</ele>
        <time>2019-04-16T18:18:05Z</time>
      </trkpt>
      <trkpt lat="46.19091" lon="6.23221">
        <ele>431</ele>
        <time>2019-04-16T18:19:05Z</time>
      </trkpt>
      <trkpt lat="46.19083" lon="6.23239">
        <ele>431</ele>
        <time>2019-04-16T18:20:05Z</time>
      </trkpt>
      <trkpt lat="46.19078" lon="6.23247">
        <ele>431</ele>
        <time>2019-04-16T18:21:05Z</time>
      </trkpt>
      <trkpt lat="46.19063" lon="6.23265">
        <ele>432</ele>
        <time>2019-04-16T18:22:05Z</time>
      </trkpt>
      <trkpt lat="46.19036" lon="6.23286">
        <ele>434</ele>
        <time>2019-04-16T18:23:05Z</time>
      </trkpt>
      <trkpt lat="46.19027" lon="6.23298">
        <ele>434</ele>
        <time>2019-04-16T18:24:05Z</time>
      </trkpt>
      <trkpt lat="46.19017" lon="6.23294">
        <ele>434</ele>
        <time>2019-04-16T18:25:05Z</time>
      </trkpt>
      <trkpt lat="46.1901" lon="6.23299">
        <ele>435</ele>
        <time>2019-04-16T18:26:05Z</time>
      </trkpt>
      <trkpt lat="46.19006" lon="6.23309">
        <ele>435</ele>
        <time>2019-04-16T18:27:05Z</time>
      </trkpt>
      <trkpt lat="46.19006" lon="6.23316">
        <ele>435</ele>
        <time>2019-04-16T18:28:05Z</time>
      </trkpt>
      <trkpt lat="46.19008" lon="6.23324">
        <ele>435</ele>
        <time>2019-04-16T18:29:05Z</time>
      </trkpt>
      <trkpt lat="46.19015" lon="6.23331">
        <ele>435</ele>
        <time>2019-04-16T18:30:05Z</time>
      </trkpt>
      <trkpt lat="46.19019" lon="6.23342">
        <ele>435</ele>
        <time>2019-04-16T18:31:05Z</time>
      </trkpt>
      <trkpt lat="46.19035" lon="6.2344">
        <ele>436</ele>
        <time>2019-04-16T18:32:05Z</time>
      </trkpt>
      <trkpt lat="46.19038" lon="6.23451">
        <ele>436</ele>
        <time>2019-04-16T18:33:05Z</time>
      </trkpt>
      <trkpt lat="46.19047" lon="6.23468">
        <ele>436</ele>
        <time>2019-04-16T18:34:05Z</time>
      </trkpt>
      <trkpt lat="46.19075" lon="6.23584">
        <ele>434</ele>
        <time>2019-04-16T18:35:05Z</time>
      </trkpt>
      <trkpt lat="46.19071" lon="6.23594">
        <ele>434</ele>
        <time>2019-04-16T18:36:05Z</time>
      </trkpt>
      <trkpt lat="46.19061" lon="6.236">
        <ele>435</ele>
        <time>2019-04-16T18:37:05Z</time>
      </trkpt>
      <trkpt lat="46.19082" lon="6.23613">
        <ele>434</ele>
        <time>2019-04-16T18:38:05Z</time>
      </trkpt>
      <trkpt lat="46.19073" lon="6.23665">
        <ele>434</ele>
        <time>2019-04-16T18:39:05Z</time>
      </trkpt>
      <trkpt lat="46.19035" lon="6.23843">
        <ele>439</ele>
        <time>2019-04-16T18:40:05Z</time>
      </trkpt>
      <trkpt lat="46.19037" lon="6.23855">
        <ele>439</ele>
        <time>2019-04-16T18:41:05Z</time>
      </trkpt>
      <trkpt lat="46.19039" lon="6.23859">
        <ele>439</ele>
        <time>2019-04-16T18:42:05Z</time>
      </trkpt>
      <trkpt lat="46.19047" lon="6.23863">
        <ele>440</ele>
        <time>2019-04-16T18:43:05Z</time>
      </trkpt>
      <trkpt lat="46.19089" lon="6.23874">
        <ele>441</ele>
        <time>2019-04-16T18:44:05Z</time>
      </trkpt>
      <trkpt lat="46.19149" lon="6.23895">
        <ele>439</ele>
        <time>2019-04-16T18:45:05Z</time>
      </trkpt>
      <trkpt lat="46.19132" lon="6.23986">
        <ele>437</ele>
        <time>2019-04-16T18:46:05Z</time>
      </trkpt>
      <trkpt lat="46.19132" lon="6.23999">
        <ele>437</ele>
        <time>2019-04-16T18:47:05Z</time>
      </trkpt>
      <trkpt lat="46.19133" lon="6.24006">
        <ele>437</ele>
        <time>2019-04-16T18:48:05Z</time>
      </trkpt>
      <trkpt lat="46.19149" lon="6.24069">
        <ele>438</ele>
        <time>2019-04-16T18:49:05Z</time>
      </trkpt>
      <trkpt lat="46.19152" lon="6.24088">
        <ele>439</ele>
        <time>2019-04-16T18:50:05Z</time>
      </trkpt>
      <trkpt lat="46.19154" lon="6.24111">
        <ele>439</ele>
        <time>2019-04-16T18:51:05Z</time>
      </trkpt>
      <trkpt lat="46.19152" lon="6.24129">
        <ele>439</ele>
        <time>2019-04-16T18:52:05Z</time>
      </trkpt>
      <trkpt lat="46.19135" lon="6.24216">
        <ele>440</ele>
        <time>2019-04-16T18:53:05Z</time>
      </trkpt>
      <trkpt lat="46.19105" lon="6.24395">
        <ele>442</ele>
        <time>2019-04-16T18:54:05Z</time>
      </trkpt>
      <trkpt lat="46.19035" lon="6.24867">
        <ele>453</ele>
        <time>2019-04-16T18:55:05Z</time>
      </trkpt>
      <trkpt lat="46.1903" lon="6.24921">
        <ele>454</ele>
        <time>2019-04-16T18:56:05Z</time>
      </trkpt>
      <trkpt lat="46.19029" lon="6.24939">
        <ele>454</ele>
        <time>2019-04-16T18:57:05Z</time>
      </trkpt>
      <trkpt lat="46.19031" lon="6.24947">
        <ele>454</ele>
        <time>2019-04-16T18:58:05Z</time>
      </trkpt>
      <trkpt lat="46.19029" lon="6.2506">
        <ele>457</ele>
        <time>2019-04-16T18:59:05Z</time>
      </trkpt>
      <trkpt lat="46.19031" lon="6.2507">
        <ele>457</ele>
        <time>2019-04-16T19:00:05Z</time>
      </trkpt>
      <trkpt lat="46.19037" lon="6.25077">
        <ele>457</ele>
        <time>2019-04-16T19:01:05Z</time>
      </trkpt>
      <trkpt lat="46.1904" lon="6.25082">
        <ele>458</ele>
        <time>2019-04-16T19:02:05Z</time>
      </trkpt>
      <trkpt lat="46.1904" lon="6.25106">
        <ele>458</ele>
        <time>2019-04-16T19:03:05Z</time>
      </trkpt>
      <trkpt lat="46.19073" lon="6.25327">
        <ele>462</ele>
        <time>2019-04-16T19:04:05Z</time>
      </trkpt>
      <trkpt lat="46.19074" lon="6.25363">
        <ele>465</ele>
        <time>2019-04-16T19:05:05Z</time>
      </trkpt>
      <trkpt lat="46.1908" lon="6.2541">
        <ele>470</ele>
        <time>2019-04-16T19:06:05Z</time>
      </trkpt>
      <trkpt lat="46.19082" lon="6.25468">
        <ele>472</ele>
        <time>2019-04-16T19:07:05Z</time>
      </trkpt>
      <trkpt lat="46.19081" lon="6.25546">
        <ele>474</ele>
        <time>2019-04-16T19:08:05Z</time>
      </trkpt>
      <trkpt lat="46.19074" lon="6.25608">
        <ele>475</ele>
        <time>2019-04-16T19:09:05Z</time>
      </trkpt>
      <trkpt lat="46.19065" lon="6.25666">
        <ele>476</ele>
        <time>2019-04-16T19:10:05Z</time>
      </trkpt>
      <trkpt lat="46.18988" lon="6.26056">
        <ele>483</ele>
        <time>2019-04-16T19:11:05Z</time>
      </trkpt>
      <trkpt lat="46.1897" lon="6.26143">
        <ele>483</ele>
        <time>2019-04-16T19:12:05Z</time>
      </trkpt>
      <trkpt lat="46.18953" lon="6.26186">
        <ele>483</ele>
        <time>2019-04-16T19:13:05Z</time>
      </trkpt>
      <trkpt lat="46.18942" lon="6.2621">
        <ele>484</ele>
        <time>2019-04-16T19:14:05Z</time>
      </trkpt>
      <trkpt lat="46.18902" lon="6.26268">
        <ele>485</ele>
        <time>2019-04-16T19:15:05Z</time>
      </trkpt>
      <trkpt lat="46.18894" lon="6.26284">
        <ele>486</ele>
        <time>2019-04-16T19:16:05Z</time>
      </trkpt>
      <trkpt lat="46.18874" lon="6.26341">
        <ele>486</ele>
        <time>2019-04-16T19:17:05Z</time>
      </trkpt>
      <trkpt lat="46.18842" lon="6.26447">
        <ele>486</ele>
        <time>2019-04-16T19:18:05Z</time>
      </trkpt>
      <trkpt lat="46.18791" lon="6.26742">
        <ele>486</ele>
        <time>2019-04-16T19:19:05Z</time>
      </trkpt>
      <trkpt lat="46.18767" lon="6.26846">
        <ele>486</ele>
        <time>2019-04-16T19:20:05Z</time>
      </trkpt>
      <trkpt lat="46.18764" lon="6.26842">
        <ele>486</ele>
        <time>2019-04-16T19:21:05Z</time>
      </trkpt>
      <trkpt lat="46.18761" lon="6.26851">
        <ele>486</ele>
        <time>2019-04-16T19:22:05Z</time>
      </trkpt>
      <trkpt lat="46.18764" lon="6.26842">
        <ele>486</ele>
        <time>2019-04-16T19:23:05Z</time>
      </trkpt>
      <trkpt lat="46.18767" lon="6.26846">
        <ele>486</ele>
        <time>2019-04-16T19:24:05Z</time>
      </trkpt>
      <trkpt lat="46.18731" lon="6.26963">
        <ele>486</ele>
        <time>2019-04-16T19:25:05Z</time>
      </trkpt>
      <trkpt lat="46.18727" lon="6.26969">
        <ele>486</ele>
        <time>2019-04-16T19:26:05Z</time>
      </trkpt>
      <trkpt lat="46.18715" lon="6.26982">
        <ele>486</ele>
        <time>2019-04-16T19:27:05Z</time>
      </trkpt>
      <trkpt lat="46.18711" lon="6.26993">
        <ele>486</ele>
        <time>2019-04-16T19:28:05Z</time>
      </trkpt>
      <trkpt lat="46.18709" lon="6.27019">
        <ele>487</ele>
        <time>2019-04-16T19:29:05Z</time>
      </trkpt>
      <trkpt lat="46.18705" lon="6.27036">
        <ele>487</ele>
        <time>2019-04-16T19:30:05Z</time>
      </trkpt>
      <trkpt lat="46.18706" lon="6.27045">
        <ele>487</ele>
        <time>2019-04-16T19:31:05Z</time>
      </trkpt>
      <trkpt lat="46.18732" lon="6.27073">
        <ele>486</ele>
        <time>2019-04-16T19:32:05Z</time>
      </trkpt>
      <trkpt lat="46.18717" lon="6.27121">
        <ele>487</ele>
        <time>2019-04-16T19:33:05Z</time>
      </trkpt>
      <trkpt lat="46.18725" lon="6.27137">
        <ele>487</ele>
        <time>2019-04-16T19:34:05Z</time>
      </trkpt>
      <trkpt lat="46.18727" lon="6.27145">
        <ele>487</ele>
        <time>2019-04-16T19:35:05Z</time>
      </trkpt>
      <trkpt lat="46.18729" lon="6.2715">
        <ele>487</ele>
        <time>2019-04-16T19:36:05Z</time>
      </trkpt>
      <trkpt lat="46.18736" lon="6.27155">
        <ele>487</ele>
        <time>2019-04-16T19:37:05Z</time>
      </trkpt>
      <trkpt lat="46.18739" lon="6.27156">
        <ele>487</ele>
        <time>2019-04-16T19:38:05Z</time>
      </trkpt>
      <trkpt lat="46.18748" lon="6.27152">
        <ele>487</ele>
        <time>2019-04-16T19:39:05Z</time>
      </trkpt>
      <trkpt lat="46.18757" lon="6.27152">
        <ele>487</ele>
        <time>2019-04-16T19:40:05Z</time>
      </trkpt>
      <trkpt lat="46.18762" lon="6.27149">
        <ele>487</ele>
        <time>2019-04-16T19:41:05Z</time>
      </trkpt>
      <trkpt lat="46.18764" lon="6.27168">
        <ele>487</ele>
        <time>2019-04-16T19:42:05Z</time>
      </trkpt>
      <trkpt lat="46.18756" lon="6.27224">
        <ele>488</ele>
        <time>2019-04-16T19:43:05Z</time>
      </trkpt>
      <trkpt lat="46.18751" lon="6.27282">
        <ele>489</ele>
        <time>2019-04-16T19:44:05Z</time>
      </trkpt>
      <trkpt lat="46.18759" lon="6.2743">
        <ele>490</ele>
        <time>2019-04-16T19:45:05Z</time>
      </trkpt>
      <trkpt lat="46.1876" lon="6.27476">
        <ele>490</ele>
        <time>2019-04-16T19:46:05Z</time>
      </trkpt>
      <trkpt lat="46.1876" lon="6.27787">
        <ele>493</ele>
        <time>2019-04-16T19:47:05Z</time>
      </trkpt>
      <trkpt lat="46.18756" lon="6.27844">
        <ele>494</ele>
        <time>2019-04-16T19:48:05Z</time>
      </trkpt>
      <trkpt lat="46.18744" lon="6.27928">
        <ele>495</ele>
        <time>2019-04-16T19:49:05Z</time>
      </trkpt>
      <trkpt lat="46.18741" lon="6.27946">
        <ele>496</ele>
        <time>2019-04-16T19:50:05Z</time>
      </trkpt>
      <trkpt lat="46.18724" lon="6.28013">
        <ele>496</ele>
        <time>2019-04-16T19:51:05Z</time>
      </trkpt>
      <trkpt lat="46.18714" lon="6.28068">
        <ele>497</ele>
        <time>2019-04-16T19:52:05Z</time>
      </trkpt>
      <trkpt lat="46.18714" lon="6.28094">
        <ele>497</ele>
        <time>2019-04-16T19:53:05Z</time>
      </trkpt>
      <trkpt lat="46.18705" lon="6.28229">
        <ele>498</ele>
        <time>2019-04-16T19:54:05Z</time>
      </trkpt>
      <trkpt lat="46.18699" lon="6.28257">
        <ele>498</ele>
        <time>2019-04-16T19:55:05Z</time>
      </trkpt>
      <trkpt lat="46.18676" lon="6.28301">
        <ele>497</ele>
        <time>2019-04-16T19:56:05Z</time>
      </trkpt>
      <trkpt lat="46.18678" lon="6.28308">
        <ele>497</ele>
        <time>2019-04-16T19:57:05Z</time>
      </trkpt>
      <trkpt lat="46.18734" lon="6.28421">
        <ele>499</ele>
        <time>2019-04-16T19:58:05Z</time>
      </trkpt>
      <trkpt lat="46.18769" lon="6.28482">
        <ele>502</ele>
        <time>2019-04-16T19:59:05Z</time>
      </trkpt>
      <trkpt lat="46.18766" lon="6.28484">
        <ele>502</ele>
        <time>2019-04-16T20:00:05Z</time>
      </trkpt>
      <trkpt lat="46.18761" lon="6.28491">
        <ele>502</ele>
        <time>2019-04-16T20:01:05Z</time>
      </trkpt>
      <trkpt lat="46.18761" lon="6.28503">
        <ele>502</ele>
        <time>2019-04-16T20:02:05Z</time>
      </trkpt>
      <trkpt lat="46.18731" lon="6.2859">
        <ele>504</ele>
        <time>2019-04-16T20:03:05Z</time>
      </trkpt>
      <trkpt lat="46.18714" lon="6.28646">
        <ele>505</ele>
        <time>2019-04-16T20:04:05Z</time>
      </trkpt>
      <trkpt lat="46.18709" lon="6.2873">
        <ele>509</ele>
        <time>2019-04-16T20:05:05Z</time>
      </trkpt>
      <trkpt lat="46.18683" lon="6.28889">
        <ele>518</ele>
        <time>2019-04-16T20:06:05Z</time>
      </trkpt>
      <trkpt lat="46.18677" lon="6.28916">
        <ele>520</ele>
        <time>2019-04-16T20:07:05Z</time>
      </trkpt>
      <trkpt lat="46.18674" lon="6.28927">
        <ele>521</ele>
        <time>2019-04-16T20:08:05Z</time>
      </trkpt>
      <trkpt lat="46.18667" lon="6.28942">
        <ele>522</ele>
        <time>2019-04-16T20:09:05Z</time>
      </trkpt>
      <trkpt lat="46.18648" lon="6.28976">
        <ele>523</ele>
        <time>2019-04-16T20:10:05Z</time>
      </trkpt>
      <trkpt lat="46.18645" lon="6.28998">
        <ele>524</ele>
        <time>2019-04-16T20:11:05Z</time>
      </trkpt>
      <trkpt lat="46.18646" lon="6.28999">
        <ele>524</ele>
        <time>2019-04-16T20:12:05Z</time>
      </trkpt>
      <trkpt lat="46.18628" lon="6.29129">
        <ele>531</ele>
        <time>2019-04-16T20:13:05Z</time>
      </trkpt>
      <trkpt lat="46.1863" lon="6.29128">
        <ele>531</ele>
        <time>2019-04-16T20:14:05Z</time>
      </trkpt>
      <trkpt lat="46.1863" lon="6.29122">
        <ele>530</ele>
        <time>2019-04-16T20:15:05Z</time>
      </trkpt>
      <trkpt lat="46.18625" lon="6.29127">
        <ele>531</ele>
        <time>2019-04-16T20:16:05Z</time>
      </trkpt>
      <trkpt lat="46.18617" lon="6.29145">
        <ele>531</ele>
        <time>2019-04-16T20:17:05Z</time>
      </trkpt>
      <trkpt lat="46.18607" lon="6.29156">
        <ele>532</ele>
        <time>2019-04-16T20:18:05Z</time>
      </trkpt>
      <trkpt lat="46.18596" lon="6.29174">
        <ele>532</ele>
        <time>2019-04-16T20:19:05Z</time>
      </trkpt>
      <trkpt lat="46.18592" lon="6.29183">
        <ele>532</ele>
        <time>2019-04-16T20:20:05Z</time>
      </trkpt>
      <trkpt lat="46.18589" lon="6.292">
        <ele>531</ele>
        <time>2019-04-16T20:21:05Z</time>
      </trkpt>
      <trkpt lat="46.18575" lon="6.2925">
        <ele>528</ele>
        <time>2019-04-16T20:22:05Z</time>
      </trkpt>
      <trkpt lat="46.18568" lon="6.29263">
        <ele>526</ele>
        <time>2019-04-16T20:23:05Z</time>
      </trkpt>
      <trkpt lat="46.18422" lon="6.2942">
        <ele>511</ele>
        <time>2019-04-16T20:24:05Z</time>
      </trkpt>
      <trkpt lat="46.18392" lon="6.29464">
        <ele>508</ele>
        <time>2019-04-16T20:25:05Z</time>
      </trkpt>
      <trkpt lat="46.18377" lon="6.29474">
        <ele>506</ele>
        <time>2019-04-16T20:26:05Z</time>
      </trkpt>
      <trkpt lat="46.18332" lon="6.29484">
        <ele>503</ele>
        <time>2019-04-16T20:27:05Z</time>
      </trkpt>
      <trkpt lat="46.18309" lon="6.29494">
        <ele>501</ele>
        <time>2019-04-16T20:28:05Z</time>
      </trkpt>
      <trkpt lat="46.18297" lon="6.29503">
        <ele>499</ele>
        <time>2019-04-16T20:29:05Z</time>
      </trkpt>
      <trkpt lat="46.18215" lon="6.29608">
        <ele>493</ele>
        <time>2019-04-16T20:30:05Z</time>
      </trkpt>
      <trkpt lat="46.18202" lon="6.29631">
        <ele>493</ele>
        <time>2019-04-16T20:31:05Z</time>
      </trkpt>
      <trkpt lat="46.18195" lon="6.2965">
        <ele>493</ele>
        <time>2019-04-16T20:32:05Z</time>
      </trkpt>
      <trkpt lat="46.18183" lon="6.29693">
        <ele>494</ele>
        <time>2019-04-16T20:33:05Z</time>
      </trkpt>
      <trkpt lat="46.18174" lon="6.2971">
        <ele>495</ele>
        <time>2019-04-16T20:34:05Z</time>
      </trkpt>
      <trkpt lat="46.18164" lon="6.29717">
        <ele>495</ele>
        <time>2019-04-16T20:35:05Z</time>
      </trkpt>
      <trkpt lat="46.18134" lon="6.2973">
        <ele>496</ele>
        <time>2019-04-16T20:36:05Z</time>
      </trkpt>
      <trkpt lat="46.18126" lon="6.29736">
        <ele>497</ele>
        <time>2019-04-16T20:37:05Z</time>
      </trkpt>
      <trkpt lat="46.1809" lon="6.2978">
        <ele>499</ele>
        <time>2019-04-16T20:38:05Z</time>
      </trkpt>
      <trkpt lat="46.18076" lon="6.29794">
        <ele>500</ele>
        <time>2019-04-16T20:39:05Z</time>
      </trkpt>
      <trkpt lat="46.18061" lon="6.29808">
        <ele>500</ele>
        <time>2019-04-16T20:40:05Z</time>
      </trkpt>
      <trkpt lat="46.18046" lon="6.29813">
        <ele>500</ele>
        <time>2019-04-16T20:41:05Z</time>
      </trkpt>
      <trkpt lat="46.18047" lon="6.29823">
        <ele>500</ele>
        <time>2019-04-16T20:42:05Z</time>
      </trkpt>
      <trkpt lat="46.18046" lon="6.29829">
        <ele>500</ele>
        <time>2019-04-16T20:43:05Z</time>
      </trkpt>
      <trkpt lat="46.18026" lon="6.29844">
        <ele>500</ele>
        <time>2019-04-16T20:44:05Z</time>
      </trkpt>
      <trkpt lat="46.18018" lon="6.29867">
        <ele>500</ele>
        <time>2019-04-16T20:45:05Z</time>
      </trkpt>
      <trkpt lat="46.17983" lon="6.30002">
        <ele>505</ele>
        <time>2019-04-16T20:46:05Z</time>
      </trkpt>
      <trkpt lat="46.17979" lon="6.3">
        <ele>505</ele>
        <time>2019-04-16T20:47:05Z</time>
      </trkpt>
      <trkpt lat="46.1797" lon="6.30043">
        <ele>507</ele>
        <time>2019-04-16T20:48:05Z</time>
      </trkpt>
      <trkpt lat="46.1792" lon="6.30027">
        <ele>508</ele>
        <time>2019-04-16T20:49:05Z</time>
      </trkpt>
      <trkpt lat="46.17904" lon="6.30018">
        <ele>507</ele>
        <time>2019-04-16T20:50:05Z</time>
      </trkpt>
      <trkpt lat="46.17896" lon="6.30028">
        <ele>507</ele>
        <time>2019-04-16T20:51:05Z</time>
      </trkpt>
      <trkpt lat="46.17894" lon="6.30039">
        <ele>507</ele>
        <time>2019-04-16T20:52:05Z</time>
      </trkpt>
      <trkpt lat="46.17896" lon="6.30071">
        <ele>507</ele>
        <time>2019-04-16T20:53:05Z</time>
      </trkpt>
      <trkpt lat="46.17866" lon="6.30096">
        <ele>506</ele>
        <time>2019-04-16T20:54:05Z</time>
      </trkpt>
      <trkpt lat="46.17854" lon="6.301">
        <ele>505</ele>
        <time>2019-04-16T20:55:05Z</time>
      </trkpt>
      <trkpt lat="46.17841" lon="6.30095">
        <ele>504</ele>
        <time>2019-04-16T20:56:05Z</time>
      </trkpt>
      <trkpt lat="46.17812" lon="6.30074">
        <ele>501</ele>
        <time>2019-04-16T20:57:05Z</time>
      </trkpt>
      <trkpt lat="46.17795" lon="6.30064">
        <ele>500</ele>
        <time>2019-04-16T20:58:05Z</time>
      </trkpt>
      <trkpt lat="46.17768" lon="6.30058">
        <ele>497</ele>
        <time>2019-04-16T20:59:05Z</time>
      </trkpt>
      <trkpt lat="46.17744" lon="6.30055">
        <ele>494</ele>
        <time>2019-04-16T21:00:05Z</time>
      </trkpt>
      <trkpt lat="46.17702" lon="6.30047">
        <ele>486</ele>
        <time>2019-04-16T21:01:05Z</time>
      </trkpt>
      <trkpt lat="46.17669" lon="6.30028">
        <ele>480</ele>
        <time>2019-04-16T21:02:05Z</time>
      </trkpt>
      <trkpt lat="46.17655" lon="6.30023">
        <ele>479</ele>
        <time>2019-04-16T21:03:05Z</time>
      </trkpt>
      <trkpt lat="46.17577" lon="6.30002">
        <ele>476</ele>
        <time>2019-04-16T21:04:05Z</time>
      </trkpt>
      <trkpt lat="46.17521" lon="6.2999">
        <ele>474</ele>
        <time>2019-04-16T21:05:05Z</time>
      </trkpt>
      <trkpt lat="46.17513" lon="6.30058">
        <ele>474</ele>
        <time>2019-04-16T21:06:05Z</time>
      </trkpt>
      <trkpt lat="46.17498" lon="6.30134">
        <ele>475</ele>
        <time>2019-04-16T21:07:05Z</time>
      </trkpt>
      <trkpt lat="46.1748" lon="6.30242">
        <ele>475</ele>
        <time>2019-04-16T21:08:05Z</time>
      </trkpt>
      <trkpt lat="46.17476" lon="6.3028">
        <ele>475</ele>
        <time>2019-04-16T21:09:05Z</time>
      </trkpt>
      <trkpt lat="46.1746" lon="6.3058">
        <ele>482</ele>
        <time>2019-04-16T21:10:05Z</time>
      </trkpt>
      <trkpt lat="46.17461" lon="6.30626">
        <ele>483</ele>
        <time>2019-04-16T21:11:05Z</time>
      </trkpt>
      <trkpt lat="46.17464" lon="6.30647">
        <ele>484</ele>
        <time>2019-04-16T21:12:05Z</time>
      </trkpt>
      <trkpt lat="46.17468" lon="6.30659">
        <ele>484</ele>
        <time>2019-04-16T21:13:05Z</time>
      </trkpt>
      <trkpt lat="46.17469" lon="6.30668">
        <ele>484</ele>
        <time>2019-04-16T21:14:05Z</time>
      </trkpt>
      <trkpt lat="46.17454" lon="6.30701">
        <ele>484</ele>
        <time>2019-04-16T21:15:05Z</time>
      </trkpt>
      <trkpt lat="46.17443" lon="6.30715">
        <ele>484</ele>
        <time>2019-04-16T21:16:05Z</time>
      </trkpt>
      <trkpt lat="46.17435" lon="6.30725">
        <ele>484</ele>
        <time>2019-04-16T21:17:05Z</time>
      </trkpt>
      <trkpt lat="46.17402" lon="6.30748">
        <ele>483</ele>
        <time>2019-04-16T21:18:05Z</time>
      </trkpt>
      <trkpt lat="46.17391" lon="6.30756">
        <ele>483</ele>
        <time>2019-04-16T21:19:05Z</time>
      </trkpt>
      <trkpt lat="46.1738" lon="6.3076">
        <ele>483</ele>
        <time>2019-04-16T21:20:05Z</time>
      </trkpt>
      <trkpt lat="46.1737" lon="6.30762">
        <ele>483</ele>
        <time>2019-04-16T21:21:05Z</time>
      </trkpt>
      <trkpt lat="46.17335" lon="6.30761">
        <ele>482</ele>
        <time>2019-04-16T21:22:05Z</time>
      </trkpt>
      <trkpt lat="46.17326" lon="6.30765">
        <ele>482</ele>
        <time>2019-04-16T21:23:05Z</time>
      </trkpt>
      <trkpt lat="46.17289" lon="6.30788">
        <ele>483</ele>
        <time>2019-04-16T21:24:05Z</time>
      </trkpt>
      <trkpt lat="46.17277" lon="6.30801">
        <ele>483</ele>
        <time>2019-04-16T21:25:05Z</time>
      </trkpt>
      <trkpt lat="46.17257" lon="6.30834">
        <ele>484</ele>
        <time>2019-04-16T21:26:05Z</time>
      </trkpt>
      <trkpt lat="46.1725" lon="6.3085">
        <ele>484</ele>
        <time>2019-04-16T21:27:05Z</time>
      </trkpt>
      <trkpt lat="46.17244" lon="6.30872">
        <ele>483</ele>
        <time>2019-04-16T21:28:05Z</time>
      </trkpt>
      <trkpt lat="46.17224" lon="6.30961">
        <ele>484</ele>
        <time>2019-04-16T21:29:05Z</time>
      </trkpt>
      <trkpt lat="46.17217" lon="6.30981">
        <ele>484</ele>
        <time>2019-04-16T21:30:05Z</time>
      </trkpt>
      <trkpt lat="46.17209" lon="6.30995">
        <ele>484</ele>
        <time>2019-04-16T21:31:05Z</time>
      </trkpt>
      <trkpt lat="46.1719" lon="6.31017">
        <ele>483</ele>
        <time>2019-04-16T21:32:05Z</time>
      </trkpt>
      <trkpt lat="46.1707" lon="6.31122">
        <ele>484</ele>
        <time>2019-04-16T21:33:05Z</time>
      </trkpt>
      <trkpt lat="46.17031" lon="6.31162">
        <ele>484</ele>
        <time>2019-04-16T21:34:05Z</time>
      </trkpt>
      <trkpt lat="46.16933" lon="6.31287">
        <ele>485</ele>
        <time>2019-04-16T21:35:05Z</time>
      </trkpt>
      <trkpt lat="46.16928" lon="6.313">
        <ele>486</ele>
        <time>2019-04-16T21:36:05Z</time>
      </trkpt>
      <trkpt lat="46.16927" lon="6.31307">
        <ele>486</ele>
        <time>2019-04-16T21:37:05Z</time>
      </trkpt>
      <trkpt lat="46.16932" lon="6.31324">
        <ele>487</ele>
        <time>2019-04-16T21:38:05Z</time>
      </trkpt>
      <trkpt lat="46.16919" lon="6.31338">
        <ele>487</ele>
        <time>2019-04-16T21:39:05Z</time>
      </trkpt>
      <trkpt lat="46.16915" lon="6.31345">
        <ele>487</ele>
        <time>2019-04-16T21:40:05Z</time>
      </trkpt>
      <trkpt lat="46.16889" lon="6.31407">
        <ele>489</ele>
        <time>2019-04-16T21:41:05Z</time>
      </trkpt>
      <trkpt lat="46.16881" lon="6.31436">
        <ele>489</ele>
        <time>2019-04-16T21:42:05Z</time>
      </trkpt>
      <trkpt lat="46.16853" lon="6.31491">
        <ele>489</ele>
        <time>2019-04-16T21:43:05Z</time>
      </trkpt>
      <trkpt lat="46.16843" lon="6.31514">
        <ele>488</ele>
        <time>2019-04-16T21:44:05Z</time>
      </trkpt>
      <trkpt lat="46.1681" lon="6.31576">
        <ele>488</ele>
        <time>2019-04-16T21:45:05Z</time>
      </trkpt>
      <trkpt lat="46.1679" lon="6.31605">
        <ele>488</ele>
        <time>2019-04-16T21:46:05Z</time>
      </trkpt>
      <trkpt lat="46.16791" lon="6.31606">
        <ele>488</ele>
        <time>2019-04-16T21:47:05Z</time>
      </trkpt>
      <trkpt lat="46.1672" lon="6.31713">
        <ele>495</ele>
        <time>2019-04-16T21:48:05Z</time>
      </trkpt>
      <trkpt lat="46.1672" lon="6.31713">
        <ele>495</ele>
        <time>2019-04-16T21:49:05Z</time>
      </trkpt>
      <trkpt lat="46.16714" lon="6.31702">
        <ele>495</ele>
        <time>2019-04-16T21:50:05Z</time>
      </trkpt>
      <trkpt lat="46.16714" lon="6.31702">
        <ele>495</ele>
        <time>2019-04-16T21:51:05Z</time>
      </trkpt>
      <trkpt lat="46.1674" lon="6.3166">
        <ele>490</ele>
        <time>2019-04-16T21:52:05Z</time>
      </trkpt>
      <trkpt lat="46.1674" lon="6.3166">
        <ele>490</ele>
        <time>2019-04-16T21:53:05Z</time>
      </trkpt>
      <trkpt lat="46.16752" lon="6.31677">
        <ele>489</ele>
        <time>2019-04-16T21:54:05Z</time>
      </trkpt>
      <trkpt lat="46.16774" lon="6.3173">
        <ele>491</ele>
        <time>2019-04-16T21:55:05Z</time>
      </trkpt>
      <trkpt lat="46.16774" lon="6.31742">
        <ele>491</ele>
        <time>2019-04-16T21:56:05Z</time>
      </trkpt>
      <trkpt lat="46.16757" lon="6.31775">
        <ele>492</ele>
        <time>2019-04-16T21:57:05Z</time>
      </trkpt>
      <trkpt lat="46.16757" lon="6.31786">
        <ele>493</ele>
        <time>2019-04-16T21:58:05Z</time>
      </trkpt>
      <trkpt lat="46.16763" lon="6.31795">
        <ele>493</ele>
        <time>2019-04-16T21:59:05Z</time>
      </trkpt>
      <trkpt lat="46.16765" lon="6.31804">
        <ele>493</ele>
        <time>2019-04-16T22:00:05Z</time>
      </trkpt>
      <trkpt lat="46.16764" lon="6.31817">
        <ele>494</ele>
        <time>2019-04-16T22:01:05Z</time>
      </trkpt>
      <trkpt lat="46.1675" lon="6.31847">
        <ele>495</ele>
        <time>2019-04-16T22:02:05Z</time>
      </trkpt>
      <trkpt lat="46.16712" lon="6.31911">
        <ele>497</ele>
        <time>2019-04-16T22:03:05Z</time>
      </trkpt>
      <trkpt lat="46.16701" lon="6.31925">
        <ele>497</ele>
        <time>2019-04-16T22:04:05Z</time>
      </trkpt>
      <trkpt lat="46.1667" lon="6.31957">
        <ele>497</ele>
        <time>2019-04-16T22:05:05Z</time>
      </trkpt>
      <trkpt lat="46.16622" lon="6.32013">
        <ele>501</ele>
        <time>2019-04-16T22:06:05Z</time>
      </trkpt>
      <trkpt lat="46.16606" lon="6.32037">
        <ele>501</ele>
        <time>2019-04-16T22:07:05Z</time>
      </trkpt>
      <trkpt lat="46.16588" lon="6.32053">
        <ele>501</ele>
        <time>2019-04-16T22:08:05Z</time>
      </trkpt>
      <trkpt lat="46.16568" lon="6.32065">
        <ele>502</ele>
        <time>2019-04-16T22:09:05Z</time>
      </trkpt>
      <trkpt lat="46.16567" lon="6.3207">
        <ele>502</ele>
        <time>2019-04-16T22:10:05Z</time>
      </trkpt>
      <trkpt lat="46.16556" lon="6.32065">
        <ele>503</ele>
        <time>2019-04-16T22:11:05Z</time>
      </trkpt>
      <trkpt lat="46.16538" lon="6.32062">
        <ele>505</ele>
        <time>2019-04-16T22:12:05Z</time>
      </trkpt>
      <trkpt lat="46.16495" lon="6.32059">
        <ele>509</ele>
        <time>2019-04-16T22:13:05Z</time>
      </trkpt>
      <trkpt lat="46.16452" lon="6.32051">
        <ele>512</ele>
        <time>2019-04-16T22:14:05Z</time>
      </trkpt>
      <trkpt lat="46.16439" lon="6.32045">
        <ele>513</ele>
        <time>2019-04-16T22:15:05Z</time>
      </trkpt>
      <trkpt lat="46.16425" lon="6.32035">
        <ele>514</ele>
        <time>2019-04-16T22:16:05Z</time>
      </trkpt>
      <trkpt lat="46.16396" lon="6.31992">
        <ele>515</ele>
        <time>2019-04-16T22:17:05Z</time>
      </trkpt>
      <trkpt lat="46.16377" lon="6.31954">
        <ele>515</ele>
        <time>2019-04-16T22:18:05Z</time>
      </trkpt>
      <trkpt lat="46.16368" lon="6.31928">
        <ele>515</ele>
        <time>2019-04-16T22:19:05Z</time>
      </trkpt>
      <trkpt lat="46.16355" lon="6.31868">
        <ele>517</ele>
        <time>2019-04-16T22:20:05Z</time>
      </trkpt>
      <trkpt lat="46.16341" lon="6.31836">
        <ele>519</ele>
        <time>2019-04-16T22:21:05Z</time>
      </trkpt>
      <trkpt lat="46.16301" lon="6.31758">
        <ele>518</ele>
        <time>2019-04-16T22:22:05Z</time>
      </trkpt>
      <trkpt lat="46.16294" lon="6.31747">
        <ele>518</ele>
        <time>2019-04-16T22:23:05Z</time>
      </trkpt>
      <trkpt lat="46.16227" lon="6.31677">
        <ele>519</ele>
        <time>2019-04-16T22:24:05Z</time>
      </trkpt>
      <trkpt lat="46.16213" lon="6.31668">
        <ele>519</ele>
        <time>2019-04-16T22:25:05Z</time>
      </trkpt>
      <trkpt lat="46.16197" lon="6.31663">
        <ele>518</ele>
        <time>2019-04-16T22:26:05Z</time>
      </trkpt>
      <trkpt lat="46.16185" lon="6.31676">
        <ele>516</ele>
        <time>2019-04-16T22:27:05Z</time>
      </trkpt>
      <trkpt lat="46.16148" lon="6.31652">
        <ele>518</ele>
        <time>2019-04-16T22:28:05Z</time>
      </trkpt>
      <trkpt lat="46.16146" lon="6.31649">
        <ele>519</ele>
        <time>2019-04-16T22:29:05Z</time>
      </trkpt>
      <trkpt lat="46.16142" lon="6.31641">
        <ele>519</ele>
        <time>2019-04-16T22:30:05Z</time>
      </trkpt>
      <trkpt lat="46.1614" lon="6.31625">
        <ele>520</ele>
        <time>2019-04-16T22:31:05Z</time>
      </trkpt>
      <trkpt lat="46.16147" lon="6.31574">
        <ele>522</ele>
        <time>2019-04-16T22:32:05Z</time>
      </trkpt>
      <trkpt lat="46.16144" lon="6.31557">
        <ele>522</ele>
        <time>2019-04-16T22:33:05Z</time>
      </trkpt>
      <trkpt lat="46.16153" lon="6.31541">
        <ele>522</ele>
        <time>2019-04-16T22:34:05Z</time>
      </trkpt>
      <trkpt lat="46.1617" lon="6.31505">
        <ele>522</ele>
        <time>2019-04-16T22:35:05Z</time>
      </trkpt>
      <trkpt lat="46.16175" lon="6.31493">
        <ele>522</ele>
        <time>2019-04-16T22:36:05Z</time>
      </trkpt>
      <trkpt lat="46.16179" lon="6.3147">
        <ele>522</ele>
        <time>2019-04-16T22:37:05Z</time>
      </trkpt>
      <trkpt lat="46.16176" lon="6.3145">
        <ele>522</ele>
        <time>2019-04-16T22:38:05Z</time>
      </trkpt>
      <trkpt lat="46.16146" lon="6.31333">
        <ele>524</ele>
        <time>2019-04-16T22:39:05Z</time>
      </trkpt>
      <trkpt lat="46.16143" lon="6.31315">
        <ele>523</ele>
        <time>2019-04-16T22:40:05Z</time>
      </trkpt>
      <trkpt lat="46.16143" lon="6.31303">
        <ele>522</ele>
        <time>2019-04-16T22:41:05Z</time>
      </trkpt>
      <trkpt lat="46.16174" lon="6.31213">
        <ele>520</ele>
        <time>2019-04-16T22:42:05Z</time>
      </trkpt>
      <trkpt lat="46.16188" lon="6.31181">
        <ele>519</ele>
        <time>2019-04-16T22:43:05Z</time>
      </trkpt>
      <trkpt lat="46.16221" lon="6.31131">
        <ele>518</ele>
        <time>2019-04-16T22:44:05Z</time>
      </trkpt>
      <trkpt lat="46.16233" lon="6.31102">
        <ele>518</ele>
        <time>2019-04-16T22:45:05Z</time>
      </trkpt>
      <trkpt lat="46.16246" lon="6.31084">
        <ele>519</ele>
        <time>2019-04-16T22:46:05Z</time>
      </trkpt>
      <trkpt lat="46.16249" lon="6.31072">
        <ele>518</ele>
        <time>2019-04-16T22:47:05Z</time>
      </trkpt>
      <trkpt lat="46.16248" lon="6.31063">
        <ele>518</ele>
        <time>2019-04-16T22:48:05Z</time>
      </trkpt>
      <trkpt lat="46.16225" lon="6.31022">
        <ele>514</ele>
        <time>2019-04-16T22:49:05Z</time>
      </trkpt>
      <trkpt lat="46.16201" lon="6.30966">
        <ele>508</ele>
        <time>2019-04-16T22:50:05Z</time>
      </trkpt>
      <trkpt lat="46.16196" lon="6.30939">
        <ele>506</ele>
        <time>2019-04-16T22:51:05Z</time>
      </trkpt>
      <trkpt lat="46.16193" lon="6.30875">
        <ele>503</ele>
        <time>2019-04-16T22:52:05Z</time>
      </trkpt>
      <trkpt lat="46.1619" lon="6.30853">
        <ele>502</ele>
        <time>2019-04-16T22:53:05Z</time>
      </trkpt>
      <trkpt lat="46.16187" lon="6.30846">
        <ele>501</ele>
        <time>2019-04-16T22:54:05Z</time>
      </trkpt>
      <trkpt lat="46.16179" lon="6.30834">
        <ele>501</ele>
        <time>2019-04-16T22:55:05Z</time>
      </trkpt>
      <trkpt lat="46.16138" lon="6.30791">
        <ele>499</ele>
        <time>2019-04-16T22:56:05Z</time>
      </trkpt>
      <trkpt lat="46.16062" lon="6.30701">
        <ele>496</ele>
        <time>2019-04-16T22:57:05Z</time>
      </trkpt>
      <trkpt lat="46.15942" lon="6.30595">
        <ele>491</ele>
        <time>2019-04-16T22:58:05Z</time>
      </trkpt>
      <trkpt lat="46.15931" lon="6.30586">
        <ele>491</ele>
        <time>2019-04-16T22:59:05Z</time>
      </trkpt>
      <trkpt lat="46.15913" lon="6.30576">
        <ele>490</ele>
        <time>2019-04-16T23:00:05Z</time>
      </trkpt>
      <trkpt lat="46.15899" lon="6.30574">
        <ele>490</ele>
        <time>2019-04-16T23:01:05Z</time>
      </trkpt>
      <trkpt lat="46.1589" lon="6.30576">
        <ele>489</ele>
        <time>2019-04-16T23:02:05Z</time>
      </trkpt>
      <trkpt lat="46.15841" lon="6.30592">
        <ele>488</ele>
        <time>2019-04-16T23:03:05Z</time>
      </trkpt>
      <trkpt lat="46.1569" lon="6.30613">
        <ele>484</ele>
        <time>2019-04-16T23:04:05Z</time>
      </trkpt>
      <trkpt lat="46.15601" lon="6.30618">
        <ele>481</ele>
        <time>2019-04-16T23:05:05Z</time>
      </trkpt>
      <trkpt lat="46.15513" lon="6.30596">
        <ele>479</ele>
        <time>2019-04-16T23:06:05Z</time>
      </trkpt>
      <trkpt lat="46.15507" lon="6.30596">
        <ele>479</ele>
        <time>2019-04-16T23:07:05Z</time>
      </trkpt>
      <trkpt lat="46.15495" lon="6.3061">
        <ele>479</ele>
        <time>2019-04-16T23:08:05Z</time>
      </trkpt>
      <trkpt lat="46.15478" lon="6.30595">
        <ele>478</ele>
        <time>2019-04-16T23:09:05Z</time>
      </trkpt>
      <trkpt lat="46.15464" lon="6.30574">
        <ele>477</ele>
        <time>2019-04-16T23:10:05Z</time>
      </trkpt>
      <trkpt lat="46.15454" lon="6.30565">
        <ele>477</ele>
        <time>2019-04-16T23:11:05Z</time>
      </trkpt>
      <trkpt lat="46.1542" lon="6.3055">
        <ele>475</ele>
        <time>2019-04-16T23:12:05Z</time>
      </trkpt>
      <trkpt lat="46.15407" lon="6.3061">
        <ele>476</ele>
        <time>2019-04-16T23:13:05Z</time>
      </trkpt>
      <trkpt lat="46.154" lon="6.30635">
        <ele>476</ele>
        <time>2019-04-16T23:14:05Z</time>
      </trkpt>
      <trkpt lat="46.15388" lon="6.30663">
        <ele>476</ele>
        <time>2019-04-16T23:15:05Z</time>
      </trkpt>
      <trkpt lat="46.15375" lon="6.30684">
        <ele>476</ele>
        <time>2019-04-16T23:16:05Z</time>
      </trkpt>
      <trkpt lat="46.15346" lon="6.30722">
        <ele>475</ele>
        <time>2019-04-16T23:17:05Z</time>
      </trkpt>
      <trkpt lat="46.15341" lon="6.30718">
        <ele>475</ele>
        <time>2019-04-16T23:18:05Z</time>
      </trkpt>
      <trkpt lat="46.15335" lon="6.30722">
        <ele>475</ele>
        <time>2019-04-16T23:19:05Z</time>
      </trkpt>
      <trkpt lat="46.15322" lon="6.30711">
        <ele>474</ele>
        <time>2019-04-16T23:20:05Z</time>
      </trkpt>
      <trkpt lat="46.15306" lon="6.30707">
        <ele>474</ele>
        <time>2019-04-16T23:21:05Z</time>
      </trkpt>
      <trkpt lat="46.15219" lon="6.30732">
        <ele>470</ele>
        <time>2019-04-16T23:22:05Z</time>
      </trkpt>
      <trkpt lat="46.15199" lon="6.30735">
        <ele>469</ele>
        <time>2019-04-16T23:23:05Z</time>
      </trkpt>
      <trkpt lat="46.1519" lon="6.30733">
        <ele>469</ele>
        <time>2019-04-16T23:24:05Z</time>
      </trkpt>
      <trkpt lat="46.15183" lon="6.30729">
        <ele>468</ele>
        <time>2019-04-16T23:25:05Z</time>
      </trkpt>
      <trkpt lat="46.15142" lon="6.30686">
        <ele>465</ele>
        <time>2019-04-16T23:26:05Z</time>
      </trkpt>
      <trkpt lat="46.15131" lon="6.30678">
        <ele>464</ele>
        <time>2019-04-16T23:27:05Z</time>
      </trkpt>
      <trkpt lat="46.15124" lon="6.30676">
        <ele>463</ele>
        <time>2019-04-16T23:28:05Z</time>
      </trkpt>
      <trkpt lat="46.15108" lon="6.30675">
        <ele>462</ele>
        <time>2019-04-16T23:29:05Z</time>
      </trkpt>
      <trkpt lat="46.15041" lon="6.30698">
        <ele>460</ele>
        <time>2019-04-16T23:30:05Z</time>
      </trkpt>
      <trkpt lat="46.15018" lon="6.30698">
        <ele>459</ele>
        <time>2019-04-16T23:31:05Z</time>
      </trkpt>
      <trkpt lat="46.14996" lon="6.30691">
        <ele>459</ele>
        <time>2019-04-16T23:32:05Z</time>
      </trkpt>
      <trkpt lat="46.14964" lon="6.30665">
        <ele>459</ele>
        <time>2019-04-16T23:33:05Z</time>
      </trkpt>
      <trkpt lat="46.14918" lon="6.30621">
        <ele>457</ele>
        <time>2019-04-16T23:34:05Z</time>
      </trkpt>
      <trkpt lat="46.14907" lon="6.30613">
        <ele>457</ele>
        <time>2019-04-16T23:35:05Z</time>
      </trkpt>
      <trkpt lat="46.14785" lon="6.30549">
        <ele>455</ele>
        <time>2019-04-16T23:36:05Z</time>
      </trkpt>
      <trkpt lat="46.14701" lon="6.30525">
        <ele>453</ele>
        <time>2019-04-16T23:37:05Z</time>
      </trkpt>
      <trkpt lat="46.14625" lon="6.30501">
        <ele>449</ele>
        <time>2019-04-16T23:38:05Z</time>
      </trkpt>
      <trkpt lat="46.14611" lon="6.30499">
        <ele>448</ele>
        <time>2019-04-16T23:39:05Z</time>
      </trkpt>
      <trkpt lat="46.14599" lon="6.30504">
        <ele>447</ele>
        <time>2019-04-16T23:40:05Z</time>
      </trkpt>
      <trkpt lat="46.1459" lon="6.30515">
        <ele>446</ele>
        <time>2019-04-16T23:41:05Z</time>
      </trkpt>
      <trkpt lat="46.14557" lon="6.30563">
        <ele>446</ele>
        <time>2019-04-16T23:42:05Z</time>
      </trkpt>
      <trkpt lat="46.14537" lon="6.30585">
        <ele>446</ele>
        <time>2019-04-16T23:43:05Z</time>
      </trkpt>
      <trkpt lat="46.14525" lon="6.30592">
        <ele>447</ele>
        <time>2019-04-16T23:44:05Z</time>
      </trkpt>
      <trkpt lat="46.14512" lon="6.30596">
        <ele>447</ele>
        <time>2019-04-16T23:45:05Z</time>
      </trkpt>
      <trkpt lat="46.145" lon="6.30596">
        <ele>447</ele>
        <time>2019-04-16T23:46:05Z</time>
      </trkpt>
      <trkpt lat="46.14488" lon="6.30592">
        <ele>448</ele>
        <time>2019-04-16T23:47:05Z</time>
      </trkpt>
      <trkpt lat="46.1442" lon="6.30537">
        <ele>452</ele>
        <time>2019-04-16T23:48:05Z</time>
      </trkpt>
      <trkpt lat="46.14408" lon="6.30533">
        <ele>452</ele>
        <time>2019-04-16T23:49:05Z</time>
      </trkpt>
      <trkpt lat="46.14397" lon="6.30535">
        <ele>452</ele>
        <time>2019-04-16T23:50:05Z</time>
      </trkpt>
      <trkpt lat="46.14306" lon="6.30612">
        <ele>455</ele>
        <time>2019-04-16T23:51:05Z</time>
      </trkpt>
      <trkpt lat="46.1426" lon="6.3067">
        <ele>458</ele>
        <time>2019-04-16T23:52:05Z</time>
      </trkpt>
      <trkpt lat="46.14239" lon="6.30692">
        <ele>458</ele>
        <time>2019-04-16T23:53:05Z</time>
      </trkpt>
      <trkpt lat="46.14216" lon="6.30708">
        <ele>459</ele>
        <time>2019-04-16T23:54:05Z</time>
      </trkpt>
      <trkpt lat="46.1415" lon="6.30734">
        <ele>461</ele>
        <time>2019-04-16T23:55:05Z</time>
      </trkpt>
      <trkpt lat="46.14138" lon="6.30742">
        <ele>462</ele>
        <time>2019-04-16T23:56:05Z</time>
      </trkpt>
      <trkpt lat="46.1412" lon="6.30758">
        <ele>462</ele>
        <time>2019-04-16T23:57:05Z</time>
      </trkpt>
      <trkpt lat="46.14113" lon="6.30768">
        <ele>462</ele>
        <time>2019-04-16T23:58:05Z</time>
      </trkpt>
      <trkpt lat="46.14097" lon="6.30799">
        <ele>462</ele>
        <time>2019-04-16T23:59:05Z</time>
      </trkpt>
      <trkpt lat="46.14093" lon="6.30812">
        <ele>463</ele>
        <time>2019-04-17T00:00:05Z</time>
      </trkpt>
      <trkpt lat="46.14099" lon="6.30833">
        <ele>462</ele>
        <time>2019-04-17T00:01:05Z</time>
      </trkpt>
      <trkpt lat="46.14099" lon="6.30843">
        <ele>462</ele>
        <time>2019-04-17T00:02:05Z</time>
      </trkpt>
      <trkpt lat="46.14093" lon="6.30873">
        <ele>462</ele>
        <time>2019-04-17T00:03:05Z</time>
      </trkpt>
      <trkpt lat="46.14074" lon="6.30935">
        <ele>462</ele>
        <time>2019-04-17T00:04:05Z</time>
      </trkpt>
      <trkpt lat="46.13988" lon="6.31083">
        <ele>461</ele>
        <time>2019-04-17T00:05:05Z</time>
      </trkpt>
      <trkpt lat="46.13972" lon="6.31114">
        <ele>461</ele>
        <time>2019-04-17T00:06:05Z</time>
      </trkpt>
      <trkpt lat="46.1396" lon="6.31142">
        <ele>460</ele>
        <time>2019-04-17T00:07:05Z</time>
      </trkpt>
      <trkpt lat="46.13953" lon="6.31166">
        <ele>459</ele>
        <time>2019-04-17T00:08:05Z</time>
      </trkpt>
      <trkpt lat="46.13947" lon="6.312">
        <ele>459</ele>
        <time>2019-04-17T00:09:05Z</time>
      </trkpt>
      <trkpt lat="46.13935" lon="6.31288">
        <ele>457</ele>
        <time>2019-04-17T00:10:05Z</time>
      </trkpt>
      <trkpt lat="46.13925" lon="6.31323">
        <ele>456</ele>
        <time>2019-04-17T00:11:05Z</time>
      </trkpt>
      <trkpt lat="46.13901" lon="6.31375">
        <ele>455</ele>
        <time>2019-04-17T00:12:05Z</time>
      </trkpt>
      <trkpt lat="46.13895" lon="6.31398">
        <ele>454</ele>
        <time>2019-04-17T00:13:05Z</time>
      </trkpt>
      <trkpt lat="46.1389" lon="6.3143">
        <ele>454</ele>
        <time>2019-04-17T00:14:05Z</time>
      </trkpt>
      <trkpt lat="46.13886" lon="6.3148">
        <ele>452</ele>
        <time>2019-04-17T00:15:05Z</time>
      </trkpt>
      <trkpt lat="46.13881" lon="6.31503">
        <ele>451</ele>
        <time>2019-04-17T00:16:05Z</time>
      </trkpt>
      <trkpt lat="46.13884" lon="6.31505">
        <ele>451</ele>
        <time>2019-04-17T00:17:05Z</time>
      </trkpt>
      <trkpt lat="46.13863" lon="6.31614">
        <ele>448</ele>
        <time>2019-04-17T00:18:05Z</time>
      </trkpt>
      <trkpt lat="46.13859" lon="6.31629">
        <ele>448</ele>
        <time>2019-04-17T00:19:05Z</time>
      </trkpt>
      <trkpt lat="46.13832" lon="6.31682">
        <ele>445</ele>
        <time>2019-04-17T00:20:05Z</time>
      </trkpt>
      <trkpt lat="46.13827" lon="6.31699">
        <ele>444</ele>
        <time>2019-04-17T00:21:05Z</time>
      </trkpt>
      <trkpt lat="46.1382" lon="6.31702">
        <ele>443</ele>
        <time>2019-04-17T00:22:05Z</time>
      </trkpt>
      <trkpt lat="46.13811" lon="6.31699">
        <ele>442</ele>
        <time>2019-04-17T00:23:05Z</time>
      </trkpt>
      <trkpt lat="46.13803" lon="6.31686">
        <ele>441</ele>
        <time>2019-04-17T00:24:05Z</time>
      </trkpt>
      <trkpt lat="46.13796" lon="6.3168">
        <ele>441</ele>
        <time>2019-04-17T00:25:05Z</time>
      </trkpt>
      <trkpt lat="46.13789" lon="6.3168">
        <ele>440</ele>
        <time>2019-04-17T00:26:05Z</time>
      </trkpt>
      <trkpt lat="46.13785" lon="6.31683">
        <ele>439</ele>
        <time>2019-04-17T00:27:05Z</time>
      </trkpt>
      <trkpt lat="46.13782" lon="6.3169">
        <ele>438</ele>
        <time>2019-04-17T00:28:05Z</time>
      </trkpt>
      <trkpt lat="46.13773" lon="6.3172">
        <ele>436</ele>
        <time>2019-04-17T00:29:05Z</time>
      </trkpt>
      <trkpt lat="46.13761" lon="6.3178">
        <ele>433</ele>
        <time>2019-04-17T00:30:05Z</time>
      </trkpt>
      <trkpt lat="46.13753" lon="6.31828">
        <ele>432</ele>
        <time>2019-04-17T00:31:05Z</time>
      </trkpt>
      <trkpt lat="46.13746" lon="6.31897">
        <ele>435</ele>
        <time>2019-04-17T00:32:05Z</time>
      </trkpt>
      <trkpt lat="46.13714" lon="6.31996">
        <ele>436</ele>
        <time>2019-04-17T00:33:05Z</time>
      </trkpt>
      <trkpt lat="46.13689" lon="6.32046">
        <ele>435</ele>
        <time>2019-04-17T00:34:05Z</time>
      </trkpt>
      <trkpt lat="46.13674" lon="6.32089">
        <ele>434</ele>
        <time>2019-04-17T00:35:05Z</time>
      </trkpt>
      <trkpt lat="46.13637" lon="6.32273">
        <ele>437</ele>
        <time>2019-04-17T00:36:05Z</time>
      </trkpt>
      <trkpt lat="46.13623" lon="6.32309">
        <ele>437</ele>
        <time>2019-04-17T00:37:05Z</time>
      </trkpt>
      <trkpt lat="46.13604" lon="6.32344">
        <ele>435</ele>
        <time>2019-04-17T00:38:05Z</time>
      </trkpt>
      <trkpt lat="46.13585" lon="6.32392">
        <ele>432</ele>
        <time>2019-04-17T00:39:05Z</time>
      </trkpt>
      <trkpt lat="46.13576" lon="6.32406">
        <ele>431</ele>
        <time>2019-04-17T00:40:05Z</time>
      </trkpt>
      <trkpt lat="46.13543" lon="6.32477">
        <ele>431</ele>
        <time>2019-04-17T00:41:05Z</time>
      </trkpt>
      <trkpt lat="46.1353" lon="6.32515">
        <ele>432</ele>
        <time>2019-04-17T00:42:05Z</time>
      </trkpt>
      <trkpt lat="46.13525" lon="6.32524">
        <ele>432</ele>
        <time>2019-04-17T00:43:05Z</time>
      </trkpt>
      <trkpt lat="46.13487" lon="6.3257">
        <ele>432</ele>
        <time>2019-04-17T00:44:05Z</time>
      </trkpt>
      <trkpt lat="46.13472" lon="6.32596">
        <ele>433</ele>
        <time>2019-04-17T00:45:05Z</time>
      </trkpt>
      <trkpt lat="46.13465" lon="6.32606">
        <ele>434</ele>
        <time>2019-04-17T00:46:05Z</time>
      </trkpt>
      <trkpt lat="46.13439" lon="6.32626">
        <ele>435</ele>
        <time>2019-04-17T00:47:05Z</time>
      </trkpt>
      <trkpt lat="46.13316" lon="6.32757">
        <ele>436</ele>
        <time>2019-04-17T00:48:05Z</time>
      </trkpt>
      <trkpt lat="46.13285" lon="6.32795">
        <ele>435</ele>
        <time>2019-04-17T00:49:05Z</time>
      </trkpt>
      <trkpt lat="46.13247" lon="6.32833">
        <ele>434</ele>
        <time>2019-04-17T00:50:05Z</time>
      </trkpt>
      <trkpt lat="46.13237" lon="6.32849">
        <ele>434</ele>
        <time>2019-04-17T00:51:05Z</time>
      </trkpt>
      <trkpt lat="46.1321" lon="6.32863">
        <ele>433</ele>
        <time>2019-04-17T00:52:05Z</time>
      </trkpt>
      <trkpt lat="46.13185" lon="6.32874">
        <ele>432</ele>
        <time>2019-04-17T00:53:05Z</time>
      </trkpt>
      <trkpt lat="46.1317" lon="6.32889">
        <ele>431</ele>
        <time>2019-04-17T00:54:05Z</time>
      </trkpt>
      <trkpt lat="46.13151" lon="6.32924">
        <ele>431</ele>
        <time>2019-04-17T00:55:05Z</time>
      </trkpt>
      <trkpt lat="46.13107" lon="6.32982">
        <ele>431</ele>
        <time>2019-04-17T00:56:05Z</time>
      </trkpt>
      <trkpt lat="46.13046" lon="6.33026">
        <ele>430</ele>
        <time>2019-04-17T00:57:05Z</time>
      </trkpt>
      <trkpt lat="46.13001" lon="6.33048">
        <ele>430</ele>
        <time>2019-04-17T00:58:05Z</time>
      </trkpt>
      <trkpt lat="46.12894" lon="6.3312">
        <ele>431</ele>
        <time>2019-04-17T00:59:05Z</time>
      </trkpt>
      <trkpt lat="46.12842" lon="6.33174">
        <ele>431</ele>
        <time>2019-04-17T01:00:05Z</time>
      </trkpt>
      <trkpt lat="46.1281" lon="6.33226">
        <ele>431</ele>
        <time>2019-04-17T01:01:05Z</time>
      </trkpt>
      <trkpt lat="46.12795" lon="6.33248">
        <ele>431</ele>
        <time>2019-04-17T01:02:05Z</time>
      </trkpt>
      <trkpt lat="46.12779" lon="6.3328">
        <ele>431</ele>
        <time>2019-04-17T01:03:05Z</time>
      </trkpt>
      <trkpt lat="46.12769" lon="6.33307">
        <ele>431</ele>
        <time>2019-04-17T01:04:05Z</time>
      </trkpt>
      <trkpt lat="46.1276" lon="6.33312">
        <ele>431</ele>
        <time>2019-04-17T01:05:05Z</time>
      </trkpt>
      <trkpt lat="46.12752" lon="6.33314">
        <ele>431</ele>
        <time>2019-04-17T01:06:05Z</time>
      </trkpt>
      <trkpt lat="46.12734" lon="6.33308">
        <ele>431</ele>
        <time>2019-04-17T01:07:05Z</time>
      </trkpt>
      <trkpt lat="46.12706" lon="6.33325">
        <ele>431</ele>
        <time>2019-04-17T01:08:05Z</time>
      </trkpt>
      <trkpt lat="46.12698" lon="6.33334">
        <ele>431</ele>
        <time>2019-04-17T01:09:05Z</time>
      </trkpt>
      <trkpt lat="46.1269" lon="6.33347">
        <ele>431</ele>
        <time>2019-04-17T01:10:05Z</time>
      </trkpt>
      <trkpt lat="46.1263" lon="6.33464">
        <ele>432</ele>
        <time>2019-04-17T01:11:05Z</time>
      </trkpt>
      <trkpt lat="46.12614" lon="6.33482">
        <ele>432</ele>
        <time>2019-04-17T01:12:05Z</time>
      </trkpt>
      <trkpt lat="46.12601" lon="6.33492">
        <ele>431</ele>
        <time>2019-04-17T01:13:05Z</time>
      </trkpt>
      <trkpt lat="46.12589" lon="6.33491">
        <ele>430</ele>
        <time>2019-04-17T01:14:05Z</time>
      </trkpt>
      <trkpt lat="46.12567" lon="6.33504">
        <ele>430</ele>
        <time>2019-04-17T01:15:05Z</time>
      </trkpt>
      <trkpt lat="46.12542" lon="6.3353">
        <ele>431</ele>
        <time>2019-04-17T01:16:05Z</time>
      </trkpt>
      <trkpt lat="46.12522" lon="6.33546">
        <ele>431</ele>
        <time>2019-04-17T01:17:05Z</time>
      </trkpt>
      <trkpt lat="46.12491" lon="6.33563">
        <ele>432</ele>
        <time>2019-04-17T01:18:05Z</time>
      </trkpt>
      <trkpt lat="46.1244" lon="6.33584">
        <ele>432</ele>
        <time>2019-04-17T01:19:05Z</time>
      </trkpt>
      <trkpt lat="46.12397" lon="6.33599">
        <ele>432</ele>
        <time>2019-04-17T01:20:05Z</time>
      </trkpt>
      <trkpt lat="46.12293" lon="6.33627">
        <ele>431</ele>
        <time>2019-04-17T01:21:05Z</time>
      </trkpt>
      <trkpt lat="46.12265" lon="6.3364">
        <ele>430</ele>
        <time>2019-04-17T01:22:05Z</time>
      </trkpt>
      <trkpt lat="46.12243" lon="6.33648">
        <ele>430</ele>
        <time>2019-04-17T01:23:05Z</time>
      </trkpt>
      <trkpt lat="46.12233" lon="6.3365">
        <ele>430</ele>
        <time>2019-04-17T01:24:05Z</time>
      </trkpt>
      <trkpt lat="46.12223" lon="6.33656">
        <ele>430</ele>
        <time>2019-04-17T01:25:05Z</time>
      </trkpt>
      <trkpt lat="46.12213" lon="6.33666">
        <ele>430</ele>
        <time>2019-04-17T01:26:05Z</time>
      </trkpt>
      <trkpt lat="46.12194" lon="6.33697">
        <ele>431</ele>
        <time>2019-04-17T01:27:05Z</time>
      </trkpt>
      <trkpt lat="46.12187" lon="6.33705">
        <ele>431</ele>
        <time>2019-04-17T01:28:05Z</time>
      </trkpt>
      <trkpt lat="46.12161" lon="6.33721">
        <ele>430</ele>
        <time>2019-04-17T01:29:05Z</time>
      </trkpt>
      <trkpt lat="46.12118" lon="6.33755">
        <ele>429</ele>
        <time>2019-04-17T01:30:05Z</time>
      </trkpt>
      <trkpt lat="46.12059" lon="6.33835">
        <ele>430</ele>
        <time>2019-04-17T01:31:05Z</time>
      </trkpt>
      <trkpt lat="46.12047" lon="6.33855">
        <ele>430</ele>
        <time>2019-04-17T01:32:05Z</time>
      </trkpt>
      <trkpt lat="46.1203" lon="6.33876">
        <ele>430</ele>
        <time>2019-04-17T01:33:05Z</time>
      </trkpt>
      <trkpt lat="46.12005" lon="6.33921">
        <ele>430</ele>
        <time>2019-04-17T01:34:05Z</time>
      </trkpt>
      <trkpt lat="46.11992" lon="6.33947">
        <ele>430</ele>
        <time>2019-04-17T01:35:05Z</time>
      </trkpt>
      <trkpt lat="46.11969" lon="6.34008">
        <ele>430</ele>
        <time>2019-04-17T01:36:05Z</time>
      </trkpt>
      <trkpt lat="46.11969" lon="6.34016">
        <ele>430</ele>
        <time>2019-04-17T01:37:05Z</time>
      </trkpt>
      <trkpt lat="46.11975" lon="6.34025">
        <ele>431</ele>
        <time>2019-04-17T01:38:05Z</time>
      </trkpt>
      <trkpt lat="46.11993" lon="6.34037">
        <ele>432</ele>
        <time>2019-04-17T01:39:05Z</time>
      </trkpt>
      <trkpt lat="46.12002" lon="6.34047">
        <ele>432</ele>
        <time>2019-04-17T01:40:05Z</time>
      </trkpt>
      <trkpt lat="46.12015" lon="6.34068">
        <ele>434</ele>
        <time>2019-04-17T01:41:05Z</time>
      </trkpt>
      <trkpt lat="46.12024" lon="6.34089">
        <ele>435</ele>
        <time>2019-04-17T01:42:05Z</time>
      </trkpt>
      <trkpt lat="46.12031" lon="6.34123">
        <ele>437</ele>
        <time>2019-04-17T01:43:05Z</time>
      </trkpt>
      <trkpt lat="46.1202" lon="6.34163">
        <ele>438</ele>
        <time>2019-04-17T01:44:05Z</time>
      </trkpt>
      <trkpt lat="46.11917" lon="6.34281">
        <ele>437</ele>
        <time>2019-04-17T01:45:05Z</time>
      </trkpt>
      <trkpt lat="46.11885" lon="6.34304">
        <ele>438</ele>
        <time>2019-04-17T01:46:05Z</time>
      </trkpt>
      <trkpt lat="46.11873" lon="6.34307">
        <ele>438</ele>
        <time>2019-04-17T01:47:05Z</time>
      </trkpt>
      <trkpt lat="46.11839" lon="6.34297">
        <ele>437</ele>
        <time>2019-04-17T01:48:05Z</time>
      </trkpt>
      <trkpt lat="46.11811" lon="6.34292">
        <ele>436</ele>
        <time>2019-04-17T01:49:05Z</time>
      </trkpt>
      <trkpt lat="46.11762" lon="6.34317">
        <ele>435</ele>
        <time>2019-04-17T01:50:05Z</time>
      </trkpt>
      <trkpt lat="46.11735" lon="6.34335">
        <ele>435</ele>
        <time>2019-04-17T01:51:05Z</time>
      </trkpt>
      <trkpt lat="46.11725" lon="6.34364">
        <ele>434</ele>
        <time>2019-04-17T01:52:05Z</time>
      </trkpt>
      <trkpt lat="46.11677" lon="6.34424">
        <ele>433</ele>
        <time>2019-04-17T01:53:05Z</time>
      </trkpt>
      <trkpt lat="46.11655" lon="6.34466">
        <ele>433</ele>
        <time>2019-04-17T01:54:05Z</time>
      </trkpt>
      <trkpt lat="46.11627" lon="6.34499">
        <ele>434</ele>
        <time>2019-04-17T01:55:05Z</time>
      </trkpt>
      <trkpt lat="46.11588" lon="6.34567">
        <ele>433</ele>
        <time>2019-04-17T01:56:05Z</time>
      </trkpt>
      <trkpt lat="46.11576" lon="6.34567">
        <ele>433</ele>
        <time>2019-04-17T01:57:05Z</time>
      </trkpt>
      <trkpt lat="46.11547" lon="6.3454">
        <ele>433</ele>
        <time>2019-04-17T01:58:05Z</time>
      </trkpt>
      <trkpt lat="46.11518" lon="6.3453">
        <ele>432</ele>
        <time>2019-04-17T01:59:05Z</time>
      </trkpt>
      <trkpt lat="46.11495" lon="6.34533">
        <ele>431</ele>
        <time>2019-04-17T02:00:05Z</time>
      </trkpt>
      <trkpt lat="46.11479" lon="6.34552">
        <ele>432</ele>
        <time>2019-04-17T02:01:05Z</time>
      </trkpt>
      <trkpt lat="46.11421" lon="6.34624">
        <ele>432</ele>
        <time>2019-04-17T02:02:05Z</time>
      </trkpt>
      <trkpt lat="46.11353" lon="6.34718">
        <ele>433</ele>
        <time>2019-04-17T02:03:05Z</time>
      </trkpt>
      <trkpt lat="46.11307" lon="6.34794">
        <ele>434</ele>
        <time>2019-04-17T02:04:05Z</time>
      </trkpt>
      <trkpt lat="46.11299" lon="6.34811">
        <ele>434</ele>
        <time>2019-04-17T02:05:05Z</time>
      </trkpt>
      <trkpt lat="46.11294" lon="6.34853">
        <ele>434</ele>
        <time>2019-04-17T02:06:05Z</time>
      </trkpt>
      <trkpt lat="46.11283" lon="6.3488">
        <ele>435</ele>
        <time>2019-04-17T02:07:05Z</time>
      </trkpt>
      <trkpt lat="46.11267" lon="6.34899">
        <ele>435</ele>
        <time>2019-04-17T02:08:05Z</time>
      </trkpt>
      <trkpt lat="46.11228" lon="6.34908">
        <ele>435</ele>
        <time>2019-04-17T02:09:05Z</time>
      </trkpt>
      <trkpt lat="46.11191" lon="6.34907">
        <ele>435</ele>
        <time>2019-04-17T02:10:05Z</time>
      </trkpt>
      <trkpt lat="46.11159" lon="6.34921">
        <ele>435</ele>
        <time>2019-04-17T02:11:05Z</time>
      </trkpt>
      <trkpt lat="46.11135" lon="6.34938">
        <ele>435</ele>
        <time>2019-04-17T02:12:05Z</time>
      </trkpt>
      <trkpt lat="46.11116" lon="6.34966">
        <ele>436</ele>
        <time>2019-04-17T02:13:05Z</time>
      </trkpt>
      <trkpt lat="46.11105" lon="6.34988">
        <ele>436</ele>
        <time>2019-04-17T02:14:05Z</time>
      </trkpt>
      <trkpt lat="46.11101" lon="6.35023">
        <ele>436</ele>
        <time>2019-04-17T02:15:05Z</time>
      </trkpt>
      <trkpt lat="46.11101" lon="6.3505">
        <ele>436</ele>
        <time>2019-04-17T02:16:05Z</time>
      </trkpt>
      <trkpt lat="46.11098" lon="6.35067">
        <ele>435</ele>
        <time>2019-04-17T02:17:05Z</time>
      </trkpt>
      <trkpt lat="46.11083" lon="6.35095">
        <ele>435</ele>
        <time>2019-04-17T02:18:05Z</time>
      </trkpt>
      <trkpt lat="46.11042" lon="6.35115">
        <ele>434</ele>
        <time>2019-04-17T02:19:05Z</time>
      </trkpt>
      <trkpt lat="46.10986" lon="6.35122">
        <ele>434</ele>
        <time>2019-04-17T02:20:05Z</time>
      </trkpt>
      <trkpt lat="46.10916" lon="6.35093">
        <ele>435</ele>
        <time>2019-04-17T02:21:05Z</time>
      </trkpt>
      <trkpt lat="46.10846" lon="6.35091">
        <ele>435</ele>
        <time>2019-04-17T02:22:05Z</time>
      </trkpt>
      <trkpt lat="46.10833" lon="6.35087">
        <ele>435</ele>
        <time>2019-04-17T02:23:05Z</time>
      </trkpt>
      <trkpt lat="46.10816" lon="6.35062">
        <ele>435</ele>
        <time>2019-04-17T02:24:05Z</time>
      </trkpt>
      <trkpt lat="46.10803" lon="6.35008">
        <ele>436</ele>
        <time>2019-04-17T02:25:05Z</time>
      </trkpt>
      <trkpt lat="46.1078" lon="6.3497">
        <ele>436</ele>
        <time>2019-04-17T02:26:05Z</time>
      </trkpt>
      <trkpt lat="46.10758" lon="6.34946">
        <ele>435</ele>
        <time>2019-04-17T02:27:05Z</time>
      </trkpt>
      <trkpt lat="46.10747" lon="6.34921">
        <ele>435</ele>
        <time>2019-04-17T02:28:05Z</time>
      </trkpt>
      <trkpt lat="46.10727" lon="6.34909">
        <ele>434</ele>
        <time>2019-04-17T02:29:05Z</time>
      </trkpt>
      <trkpt lat="46.10706" lon="6.34915">
        <ele>434</ele>
        <time>2019-04-17T02:30:05Z</time>
      </trkpt>
      <trkpt lat="46.10683" lon="6.34942">
        <ele>435</ele>
        <time>2019-04-17T02:31:05Z</time>
      </trkpt>
      <trkpt lat="46.10669" lon="6.3498">
        <ele>435</ele>
        <time>2019-04-17T02:32:05Z</time>
      </trkpt>
      <trkpt lat="46.10637" lon="6.35112">
        <ele>434</ele>
        <time>2019-04-17T02:33:05Z</time>
      </trkpt>
      <trkpt lat="46.10636" lon="6.35134">
        <ele>434</ele>
        <time>2019-04-17T02:34:05Z</time>
      </trkpt>
      <trkpt lat="46.10655" lon="6.352">
        <ele>434</ele>
        <time>2019-04-17T02:35:05Z</time>
      </trkpt>
      <trkpt lat="46.10645" lon="6.35238">
        <ele>434</ele>
        <time>2019-04-17T02:36:05Z</time>
      </trkpt>
      <trkpt lat="46.10623" lon="6.3526">
        <ele>435</ele>
        <time>2019-04-17T02:37:05Z</time>
      </trkpt>
      <trkpt lat="46.106" lon="6.35256">
        <ele>435</ele>
        <time>2019-04-17T02:38:05Z</time>
      </trkpt>
      <trkpt lat="46.10583" lon="6.35228">
        <ele>435</ele>
        <time>2019-04-17T02:39:05Z</time>
      </trkpt>
      <trkpt lat="46.10561" lon="6.35218">
        <ele>434</ele>
        <time>2019-04-17T02:40:05Z</time>
      </trkpt>
      <trkpt lat="46.10537" lon="6.3523">
        <ele>434</ele>
        <time>2019-04-17T02:41:05Z</time>
      </trkpt>
      <trkpt lat="46.10523" lon="6.35248">
        <ele>434</ele>
        <time>2019-04-17T02:42:05Z</time>
      </trkpt>
      <trkpt lat="46.10513" lon="6.35376">
        <ele>437</ele>
        <time>2019-04-17T02:43:05Z</time>
      </trkpt>
      <trkpt lat="46.10497" lon="6.35407">
        <ele>439</ele>
        <time>2019-04-17T02:44:05Z</time>
      </trkpt>
      <trkpt lat="46.10353" lon="6.35567">
        <ele>439</ele>
        <time>2019-04-17T02:45:05Z</time>
      </trkpt>
      <trkpt lat="46.10266" lon="6.35447">
        <ele>435</ele>
        <time>2019-04-17T02:46:05Z</time>
      </trkpt>
      <trkpt lat="46.10218" lon="6.35529">
        <ele>436</ele>
        <time>2019-04-17T02:47:05Z</time>
      </trkpt>
      <trkpt lat="46.10195" lon="6.356">
        <ele>438</ele>
        <time>2019-04-17T02:48:05Z</time>
      </trkpt>
      <trkpt lat="46.10173" lon="6.35627">
        <ele>438</ele>
        <time>2019-04-17T02:49:05Z</time>
      </trkpt>
      <trkpt lat="46.10147" lon="6.35648">
        <ele>438</ele>
        <time>2019-04-17T02:50:05Z</time>
      </trkpt>
      <trkpt lat="46.09953" lon="6.35848">
        <ele>441</ele>
        <time>2019-04-17T02:51:05Z</time>
      </trkpt>
      <trkpt lat="46.09922" lon="6.35872">
        <ele>442</ele>
        <time>2019-04-17T02:52:05Z</time>
      </trkpt>
      <trkpt lat="46.09879" lon="6.35927">
        <ele>443</ele>
        <time>2019-04-17T02:53:05Z</time>
      </trkpt>
      <trkpt lat="46.09841" lon="6.35961">
        <ele>443</ele>
        <time>2019-04-17T02:54:05Z</time>
      </trkpt>
      <trkpt lat="46.09765" lon="6.36015">
        <ele>442</ele>
        <time>2019-04-17T02:55:05Z</time>
      </trkpt>
      <trkpt lat="46.09735" lon="6.36046">
        <ele>441</ele>
        <time>2019-04-17T02:56:05Z</time>
      </trkpt>
      <trkpt lat="46.09676" lon="6.36176">
        <ele>438</ele>
        <time>2019-04-17T02:57:05Z</time>
      </trkpt>
      <trkpt lat="46.09653" lon="6.36214">
        <ele>439</ele>
        <time>2019-04-17T02:58:05Z</time>
      </trkpt>
      <trkpt lat="46.096" lon="6.36278">
        <ele>439</ele>
        <time>2019-04-17T02:59:05Z</time>
      </trkpt>
      <trkpt lat="46.09544" lon="6.3634">
        <ele>436</ele>
        <time>2019-04-17T03:00:05Z</time>
      </trkpt>
      <trkpt lat="46.09518" lon="6.36363">
        <ele>436</ele>
        <time>2019-04-17T03:01:05Z</time>
      </trkpt>
      <trkpt lat="46.09499" lon="6.36391">
        <ele>435</ele>
        <time>2019-04-17T03:02:05Z</time>
      </trkpt>
      <trkpt lat="46.0951" lon="6.36427">
        <ele>435</ele>
        <time>2019-04-17T03:03:05Z</time>
      </trkpt>
      <trkpt lat="46.09528" lon="6.36457">
        <ele>436</ele>
        <time>2019-04-17T03:04:05Z</time>
      </trkpt>
      <trkpt lat="46.09533" lon="6.36493">
        <ele>436</ele>
        <time>2019-04-17T03:05:05Z</time>
      </trkpt>
      <trkpt lat="46.09521" lon="6.36536">
        <ele>437</ele>
        <time>2019-04-17T03:06:05Z</time>
      </trkpt>
      <trkpt lat="46.09403" lon="6.36688">
        <ele>441</ele>
        <time>2019-04-17T03:07:05Z</time>
      </trkpt>
      <trkpt lat="46.09406" lon="6.36732">
        <ele>443</ele>
        <time>2019-04-17T03:08:05Z</time>
      </trkpt>
      <trkpt lat="46.09402" lon="6.36759">
        <ele>443</ele>
        <time>2019-04-17T03:09:05Z</time>
      </trkpt>
      <trkpt lat="46.09389" lon="6.36781">
        <ele>443</ele>
        <time>2019-04-17T03:10:05Z</time>
      </trkpt>
      <trkpt lat="46.09321" lon="6.36723">
        <ele>441</ele>
        <time>2019-04-17T03:11:05Z</time>
      </trkpt>
      <trkpt lat="46.093" lon="6.36697">
        <ele>441</ele>
        <time>2019-04-17T03:12:05Z</time>
      </trkpt>
      <trkpt lat="46.0927" lon="6.36643">
        <ele>438</ele>
        <time>2019-04-17T03:13:05Z</time>
      </trkpt>
      <trkpt lat="46.09181" lon="6.36556">
        <ele>435</ele>
        <time>2019-04-17T03:14:05Z</time>
      </trkpt>
      <trkpt lat="46.09107" lon="6.36479">
        <ele>439</ele>
        <time>2019-04-17T03:15:05Z</time>
      </trkpt>
      <trkpt lat="46.09047" lon="6.36436">
        <ele>438</ele>
        <time>2019-04-17T03:16:05Z</time>
      </trkpt>
      <trkpt lat="46.08996" lon="6.36525">
        <ele>439</ele>
        <time>2019-04-17T03:17:05Z</time>
      </trkpt>
      <trkpt lat="46.08952" lon="6.36643">
        <ele>437</ele>
        <time>2019-04-17T03:18:05Z</time>
      </trkpt>
      <trkpt lat="46.08925" lon="6.36687">
        <ele>437</ele>
        <time>2019-04-17T03:19:05Z</time>
      </trkpt>
      <trkpt lat="46.08908" lon="6.36741">
        <ele>439</ele>
        <time>2019-04-17T03:20:05Z</time>
      </trkpt>
      <trkpt lat="46.08875" lon="6.36804">
        <ele>440</ele>
        <time>2019-04-17T03:21:05Z</time>
      </trkpt>
      <trkpt lat="46.0886" lon="6.36847">
        <ele>440</ele>
        <time>2019-04-17T03:22:05Z</time>
      </trkpt>
      <trkpt lat="46.08794" lon="6.37015">
        <ele>439</ele>
        <time>2019-04-17T03:23:05Z</time>
      </trkpt>
      <trkpt lat="46.08798" lon="6.37041">
        <ele>439</ele>
        <time>2019-04-17T03:24:05Z</time>
      </trkpt>
      <trkpt lat="46.08794" lon="6.37068">
        <ele>439</ele>
        <time>2019-04-17T03:25:05Z</time>
      </trkpt>
      <trkpt lat="46.08795" lon="6.37097">
        <ele>439</ele>
        <time>2019-04-17T03:26:05Z</time>
      </trkpt>
      <trkpt lat="46.08808" lon="6.37136">
        <ele>438</ele>
        <time>2019-04-17T03:27:05Z</time>
      </trkpt>
      <trkpt lat="46.08802" lon="6.37142">
        <ele>438</ele>
        <time>2019-04-17T03:28:05Z</time>
      </trkpt>
      <trkpt lat="46.08774" lon="6.37111">
        <ele>439</ele>
        <time>2019-04-17T03:29:05Z</time>
      </trkpt>
      <trkpt lat="46.08761" lon="6.37106">
        <ele>439</ele>
        <time>2019-04-17T03:30:05Z</time>
      </trkpt>
      <trkpt lat="46.08746" lon="6.37124">
        <ele>439</ele>
        <time>2019-04-17T03:31:05Z</time>
      </trkpt>
      <trkpt lat="46.08712" lon="6.37222">
        <ele>437</ele>
        <time>2019-04-17T03:32:05Z</time>
      </trkpt>
      <trkpt lat="46.08657" lon="6.37405">
        <ele>438</ele>
        <time>2019-04-17T03:33:05Z</time>
      </trkpt>
      <trkpt lat="46.0865" lon="6.37416">
        <ele>438</ele>
        <time>2019-04-17T03:34:05Z</time>
      </trkpt>
      <trkpt lat="46.08645" lon="6.37442">
        <ele>438</ele>
        <time>2019-04-17T03:35:05Z</time>
      </trkpt>
      <trkpt lat="46.08643" lon="6.3747">
        <ele>438</ele>
        <time>2019-04-17T03:36:05Z</time>
      </trkpt>
      <trkpt lat="46.08614" lon="6.3756">
        <ele>437</ele>
        <time>2019-04-17T03:37:05Z</time>
      </trkpt>
      <trkpt lat="46.08602" lon="6.37628">
        <ele>437</ele>
        <time>2019-04-17T03:38:05Z</time>
      </trkpt>
      <trkpt lat="46.08602" lon="6.37636">
        <ele>437</ele>
        <time>2019-04-17T03:39:05Z</time>
      </trkpt>
      <trkpt lat="46.08604" lon="6.37642">
        <ele>438</ele>
        <time>2019-04-17T03:40:05Z</time>
      </trkpt>
      <trkpt lat="46.0863" lon="6.37686">
        <ele>439</ele>
        <time>2019-04-17T03:41:05Z</time>
      </trkpt>
      <trkpt lat="46.08618" lon="6.37708">
        <ele>439</ele>
        <time>2019-04-17T03:42:05Z</time>
      </trkpt>
      <trkpt lat="46.08586" lon="6.37787">
        <ele>439</ele>
        <time>2019-04-17T03:43:05Z</time>
      </trkpt>
      <trkpt lat="46.08572" lon="6.37815">
        <ele>440</ele>
        <time>2019-04-17T03:44:05Z</time>
      </trkpt>
      <trkpt lat="46.08566" lon="6.37832">
        <ele>440</ele>
        <time>2019-04-17T03:45:05Z</time>
      </trkpt>
      <trkpt lat="46.08563" lon="6.37849">
        <ele>441</ele>
        <time>2019-04-17T03:46:05Z</time>
      </trkpt>
      <trkpt lat="46.08561" lon="6.37875">
        <ele>441</ele>
        <time>2019-04-17T03:47:05Z</time>
      </trkpt>
      <trkpt lat="46.08549" lon="6.37938">
        <ele>442</ele>
        <time>2019-04-17T03:48:05Z</time>
      </trkpt>
      <trkpt lat="46.08526" lon="6.38091">
        <ele>442</ele>
        <time>2019-04-17T03:49:05Z</time>
      </trkpt>
      <trkpt lat="46.08518" lon="6.38161">
        <ele>441</ele>
        <time>2019-04-17T03:50:05Z</time>
      </trkpt>
      <trkpt lat="46.08518" lon="6.38195">
        <ele>441</ele>
        <time>2019-04-17T03:51:05Z</time>
      </trkpt>
      <trkpt lat="46.08514" lon="6.38218">
        <ele>441</ele>
        <time>2019-04-17T03:52:05Z</time>
      </trkpt>
      <trkpt lat="46.08511" lon="6.38251">
        <ele>441</ele>
        <time>2019-04-17T03:53:05Z</time>
      </trkpt>
      <trkpt lat="46.0851" lon="6.38294">
        <ele>440</ele>
        <time>2019-04-17T03:54:05Z</time>
      </trkpt>
      <trkpt lat="46.08511" lon="6.38345">
        <ele>440</ele>
        <time>2019-04-17T03:55:05Z</time>
      </trkpt>
      <trkpt lat="46.08516" lon="6.38375">
        <ele>440</ele>
        <time>2019-04-17T03:56:05Z</time>
      </trkpt>
      <trkpt lat="46.08514" lon="6.38391">
        <ele>439</ele>
        <time>2019-04-17T03:57:05Z</time>
      </trkpt>
      <trkpt lat="46.0851" lon="6.38407">
        <ele>439</ele>
        <time>2019-04-17T03:58:05Z</time>
      </trkpt>
      <trkpt lat="46.08511" lon="6.38415">
        <ele>439</ele>
        <time>2019-04-17T03:59:05Z</time>
      </trkpt>
      <trkpt lat="46.08514" lon="6.3847">
        <ele>440</ele>
        <time>2019-04-17T04:00:05Z</time>
      </trkpt>
      <trkpt lat="46.08522" lon="6.3853">
        <ele>440</ele>
        <time>2019-04-17T04:01:05Z</time>
      </trkpt>
      <trkpt lat="46.08522" lon="6.3856">
        <ele>440</ele>
        <time>2019-04-17T04:02:05Z</time>
      </trkpt>
      <trkpt lat="46.08525" lon="6.38598">
        <ele>440</ele>
        <time>2019-04-17T04:03:05Z</time>
      </trkpt>
      <trkpt lat="46.08545" lon="6.38766">
        <ele>443</ele>
        <time>2019-04-17T04:04:05Z</time>
      </trkpt>
      <trkpt lat="46.08555" lon="6.38918">
        <ele>446</ele>
        <time>2019-04-17T04:05:05Z</time>
      </trkpt>
      <trkpt lat="46.08588" lon="6.39271">
        <ele>448</ele>
        <time>2019-04-17T04:06:05Z</time>
      </trkpt>
      <trkpt lat="46.08586" lon="6.39349">
        <ele>446</ele>
        <time>2019-04-17T04:07:05Z</time>
      </trkpt>
      <trkpt lat="46.08594" lon="6.39437">
        <ele>448</ele>
        <time>2019-04-17T04:08:05Z</time>
      </trkpt>
      <trkpt lat="46.08581" lon="6.3947">
        <ele>448</ele>
        <time>2019-04-17T04:09:05Z</time>
      </trkpt>
      <trkpt lat="46.08586" lon="6.39536">
        <ele>449</ele>
        <time>2019-04-17T04:10:05Z</time>
      </trkpt>
      <trkpt lat="46.0856" lon="6.39604">
        <ele>448</ele>
        <time>2019-04-17T04:11:05Z</time>
      </trkpt>
      <trkpt lat="46.08503" lon="6.39723">
        <ele>446</ele>
        <time>2019-04-17T04:12:05Z</time>
      </trkpt>
      <trkpt lat="46.08437" lon="6.39824">
        <ele>444</ele>
        <time>2019-04-17T04:13:05Z</time>
      </trkpt>
      <trkpt lat="46.08339" lon="6.39959">
        <ele>444</ele>
        <time>2019-04-17T04:14:05Z</time>
      </trkpt>
      <trkpt lat="46.08337" lon="6.39969">
        <ele>444</ele>
        <time>2019-04-17T04:15:05Z</time>
      </trkpt>
      <trkpt lat="46.08203" lon="6.40154">
        <ele>444</ele>
        <time>2019-04-17T04:16:05Z</time>
      </trkpt>
      <trkpt lat="46.08193" lon="6.40166">
        <ele>444</ele>
        <time>2019-04-17T04:17:05Z</time>
      </trkpt>
      <trkpt lat="46.0818" lon="6.40161">
        <ele>443</ele>
        <time>2019-04-17T04:18:05Z</time>
      </trkpt>
      <trkpt lat="46.08113" lon="6.4025">
        <ele>445</ele>
        <time>2019-04-17T04:19:05Z</time>
      </trkpt>
      <trkpt lat="46.08106" lon="6.40264">
        <ele>445</ele>
        <time>2019-04-17T04:20:05Z</time>
      </trkpt>
      <trkpt lat="46.081" lon="6.40272">
        <ele>445</ele>
        <time>2019-04-17T04:21:05Z</time>
      </trkpt>
      <trkpt lat="46.08038" lon="6.40335">
        <ele>444</ele>
        <time>2019-04-17T04:22:05Z</time>
      </trkpt>
      <trkpt lat="46.07974" lon="6.40393">
        <ele>445</ele>
        <time>2019-04-17T04:23:05Z</time>
      </trkpt>
      <trkpt lat="46.07936" lon="6.40422">
        <ele>445</ele>
        <time>2019-04-17T04:24:05Z</time>
      </trkpt>
      <trkpt lat="46.07898" lon="6.4044">
        <ele>446</ele>
        <time>2019-04-17T04:25:05Z</time>
      </trkpt>
      <trkpt lat="46.07632" lon="6.40658">
        <ele>447</ele>
        <time>2019-04-17T04:26:05Z</time>
      </trkpt>
      <trkpt lat="46.07627" lon="6.40673">
        <ele>447</ele>
        <time>2019-04-17T04:27:05Z</time>
      </trkpt>
      <trkpt lat="46.07629" lon="6.4068">
        <ele>447</ele>
        <time>2019-04-17T04:28:05Z</time>
      </trkpt>
      <trkpt lat="46.07624" lon="6.40679">
        <ele>447</ele>
        <time>2019-04-17T04:29:05Z</time>
      </trkpt>
      <trkpt lat="46.07617" lon="6.40685">
        <ele>447</ele>
        <time>2019-04-17T04:30:05Z</time>
      </trkpt>
      <trkpt lat="46.07615" lon="6.40692">
        <ele>447</ele>
        <time>2019-04-17T04:31:05Z</time>
      </trkpt>
      <trkpt lat="46.07617" lon="6.407">
        <ele>448</ele>
        <time>2019-04-17T04:32:05Z</time>
      </trkpt>
      <trkpt lat="46.07621" lon="6.40705">
        <ele>448</ele>
        <time>2019-04-17T04:33:05Z</time>
      </trkpt>
      <trkpt lat="46.07625" lon="6.40706">
        <ele>448</ele>
        <time>2019-04-17T04:34:05Z</time>
      </trkpt>
      <trkpt lat="46.07632" lon="6.407">
        <ele>448</ele>
        <time>2019-04-17T04:35:05Z</time>
      </trkpt>
      <trkpt lat="46.07634" lon="6.40693">
        <ele>448</ele>
        <time>2019-04-17T04:36:05Z</time>
      </trkpt>
      <trkpt lat="46.07633" lon="6.40686">
        <ele>448</ele>
        <time>2019-04-17T04:37:05Z</time>
      </trkpt>
      <trkpt lat="46.07629" lon="6.4068">
        <ele>447</ele>
        <time>2019-04-17T04:38:05Z</time>
      </trkpt>
      <trkpt lat="46.07624" lon="6.40679">
        <ele>447</ele>
        <time>2019-04-17T04:39:05Z</time>
      </trkpt>
      <trkpt lat="46.07617" lon="6.40685">
        <ele>447</ele>
        <time>2019-04-17T04:40:05Z</time>
      </trkpt>
      <trkpt lat="46.07615" lon="6.40692">
        <ele>447</ele>
        <time>2019-04-17T04:41:05Z</time>
      </trkpt>
      <trkpt lat="46.07617" lon="6.407">
        <ele>448</ele>
        <time>2019-04-17T04:42:05Z</time>
      </trkpt>
      <trkpt lat="46.07598" lon="6.40744">
        <ele>448</ele>
        <time>2019-04-17T04:43:05Z</time>
      </trkpt>
      <trkpt lat="46.07582" lon="6.40814">
        <ele>449</ele>
        <time>2019-04-17T04:44:05Z</time>
      </trkpt>
      <trkpt lat="46.07579" lon="6.40849">
        <ele>449</ele>
        <time>2019-04-17T04:45:05Z</time>
      </trkpt>
      <trkpt lat="46.07583" lon="6.40868">
        <ele>449</ele>
        <time>2019-04-17T04:46:05Z</time>
      </trkpt>
      <trkpt lat="46.07568" lon="6.40895">
        <ele>449</ele>
        <time>2019-04-17T04:47:05Z</time>
      </trkpt>
      <trkpt lat="46.07559" lon="6.40959">
        <ele>448</ele>
        <time>2019-04-17T04:48:05Z</time>
      </trkpt>
      <trkpt lat="46.07549" lon="6.41171">
        <ele>448</ele>
        <time>2019-04-17T04:49:05Z</time>
      </trkpt>
      <trkpt lat="46.07547" lon="6.41302">
        <ele>448</ele>
        <time>2019-04-17T04:50:05Z</time>
      </trkpt>
      <trkpt lat="46.07569" lon="6.41336">
        <ele>448</ele>
        <time>2019-04-17T04:51:05Z</time>
      </trkpt>
      <trkpt lat="46.07709" lon="6.4161">
        <ele>450</ele>
        <time>2019-04-17T04:52:05Z</time>
      </trkpt>
      <trkpt lat="46.07736" lon="6.41682">
        <ele>451</ele>
        <time>2019-04-17T04:53:05Z</time>
      </trkpt>
      <trkpt lat="46.07755" lon="6.41741">
        <ele>452</ele>
        <time>2019-04-17T04:54:05Z</time>
      </trkpt>
      <trkpt lat="46.07764" lon="6.41735">
        <ele>452</ele>
        <time>2019-04-17T04:55:05Z</time>
      </trkpt>
      <trkpt lat="46.07774" lon="6.41745">
        <ele>452</ele>
        <time>2019-04-17T04:56:05Z</time>
      </trkpt>
      <trkpt lat="46.07778" lon="6.41762">
        <ele>452</ele>
        <time>2019-04-17T04:57:05Z</time>
      </trkpt>
      <trkpt lat="46.07804" lon="6.41847">
        <ele>449</ele>
        <time>2019-04-17T04:58:05Z</time>
      </trkpt>
      <trkpt lat="46.07833" lon="6.42002">
        <ele>449</ele>
        <time>2019-04-17T04:59:05Z</time>
      </trkpt>
      <trkpt lat="46.07839" lon="6.42075">
        <ele>449</ele>
        <time>2019-04-17T05:00:05Z</time>
      </trkpt>
      <trkpt lat="46.0784" lon="6.42119">
        <ele>450</ele>
        <time>2019-04-17T05:01:05Z</time>
      </trkpt>
      <trkpt lat="46.07836" lon="6.42152">
        <ele>450</ele>
        <time>2019-04-17T05:02:05Z</time>
      </trkpt>
      <trkpt lat="46.07841" lon="6.42172">
        <ele>450</ele>
        <time>2019-04-17T05:03:05Z</time>
      </trkpt>
      <trkpt lat="46.07858" lon="6.42195">
        <ele>451</ele>
        <time>2019-04-17T05:04:05Z</time>
      </trkpt>
      <trkpt lat="46.0786" lon="6.42214">
        <ele>451</ele>
        <time>2019-04-17T05:05:05Z</time>
      </trkpt>
      <trkpt lat="46.07859" lon="6.42265">
        <ele>451</ele>
        <time>2019-04-17T05:06:05Z</time>
      </trkpt>
      <trkpt lat="46.0785" lon="6.42319">
        <ele>450</ele>
        <time>2019-04-17T05:07:05Z</time>
      </trkpt>
      <trkpt lat="46.07847" lon="6.42353">
        <ele>450</ele>
        <time>2019-04-17T05:08:05Z</time>
      </trkpt>
      <trkpt lat="46.07849" lon="6.42407">
        <ele>448</ele>
        <time>2019-04-17T05:09:05Z</time>
      </trkpt>
      <trkpt lat="46.07798" lon="6.42893">
        <ele>449</ele>
        <time>2019-04-17T05:10:05Z</time>
      </trkpt>
      <trkpt lat="46.07791" lon="6.42969">
        <ele>449</ele>
        <time>2019-04-17T05:11:05Z</time>
      </trkpt>
      <trkpt lat="46.078" lon="6.42973">
        <ele>449</ele>
        <time>2019-04-17T05:12:05Z</time>
      </trkpt>
      <trkpt lat="46.07692" lon="6.4398">
        <ele>451</ele>
        <time>2019-04-17T05:13:05Z</time>
      </trkpt>
      <trkpt lat="46.07688" lon="6.44005">
        <ele>452</ele>
        <time>2019-04-17T05:14:05Z</time>
      </trkpt>
      <trkpt lat="46.07685" lon="6.44018">
        <ele>452</ele>
        <time>2019-04-17T05:15:05Z</time>
      </trkpt>
      <trkpt lat="46.07671" lon="6.44026">
        <ele>452</ele>
        <time>2019-04-17T05:16:05Z</time>
      </trkpt>
      <trkpt lat="46.0767" lon="6.44057">
        <ele>453</ele>
        <time>2019-04-17T05:17:05Z</time>
      </trkpt>
      <trkpt lat="46.07674" lon="6.44099">
        <ele>453</ele>
        <time>2019-04-17T05:18:05Z</time>
      </trkpt>
      <trkpt lat="46.07674" lon="6.44127">
        <ele>452</ele>
        <time>2019-04-17T05:19:05Z</time>
      </trkpt>
      <trkpt lat="46.07629" lon="6.44556">
        <ele>455</ele>
        <time>2019-04-17T05:20:05Z</time>
      </trkpt>
      <trkpt lat="46.07619" lon="6.4463">
        <ele>456</ele>
        <time>2019-04-17T05:21:05Z</time>
      </trkpt>
      <trkpt lat="46.0762" lon="6.44643">
        <ele>456</ele>
        <time>2019-04-17T05:22:05Z</time>
      </trkpt>
      <trkpt lat="46.07616" lon="6.44688">
        <ele>457</ele>
        <time>2019-04-17T05:23:05Z</time>
      </trkpt>
      <trkpt lat="46.07578" lon="6.4504">
        <ele>455</ele>
        <time>2019-04-17T05:24:05Z</time>
      </trkpt>
      <trkpt lat="46.07571" lon="6.4506">
        <ele>454</ele>
        <time>2019-04-17T05:25:05Z</time>
      </trkpt>
      <trkpt lat="46.07571" lon="6.45086">
        <ele>453</ele>
        <time>2019-04-17T05:26:05Z</time>
      </trkpt>
      <trkpt lat="46.07566" lon="6.45142">
        <ele>453</ele>
        <time>2019-04-17T05:27:05Z</time>
      </trkpt>
      <trkpt lat="46.07532" lon="6.45464">
        <ele>454</ele>
        <time>2019-04-17T05:28:05Z</time>
      </trkpt>
      <trkpt lat="46.07528" lon="6.455">
        <ele>455</ele>
        <time>2019-04-17T05:29:05Z</time>
      </trkpt>
      <trkpt lat="46.07509" lon="6.45599">
        <ele>455</ele>
        <time>2019-04-17T05:30:05Z</time>
      </trkpt>
      <trkpt lat="46.07508" lon="6.45615">
        <ele>455</ele>
        <time>2019-04-17T05:31:05Z</time>
      </trkpt>
      <trkpt lat="46.07511" lon="6.45644">
        <ele>454</ele>
        <time>2019-04-17T05:32:05Z</time>
      </trkpt>
      <trkpt lat="46.0751" lon="6.45665">
        <ele>454</ele>
        <time>2019-04-17T05:33:05Z</time>
      </trkpt>
      <trkpt lat="46.07474" lon="6.46002">
        <ele>460</ele>
        <time>2019-04-17T05:34:05Z</time>
      </trkpt>
      <trkpt lat="46.07471" lon="6.46043">
        <ele>459</ele>
        <time>2019-04-17T05:35:05Z</time>
      </trkpt>
      <trkpt lat="46.0743" lon="6.46413">
        <ele>455</ele>
        <time>2019-04-17T05:36:05Z</time>
      </trkpt>
      <trkpt lat="46.07428" lon="6.46423">
        <ele>455</ele>
        <time>2019-04-17T05:37:05Z</time>
      </trkpt>
      <trkpt lat="46.07424" lon="6.46427">
        <ele>455</ele>
        <time>2019-04-17T05:38:05Z</time>
      </trkpt>
      <trkpt lat="46.07419" lon="6.46428">
        <ele>455</ele>
        <time>2019-04-17T05:39:05Z</time>
      </trkpt>
      <trkpt lat="46.07388" lon="6.46517">
        <ele>457</ele>
        <time>2019-04-17T05:40:05Z</time>
      </trkpt>
      <trkpt lat="46.07436" lon="6.46593">
        <ele>458</ele>
        <time>2019-04-17T05:41:05Z</time>
      </trkpt>
      <trkpt lat="46.07428" lon="6.46629">
        <ele>459</ele>
        <time>2019-04-17T05:42:05Z</time>
      </trkpt>
      <trkpt lat="46.07404" lon="6.46862">
        <ele>460</ele>
        <time>2019-04-17T05:43:05Z</time>
      </trkpt>
      <trkpt lat="46.07398" lon="6.47005">
        <ele>458</ele>
        <time>2019-04-17T05:44:05Z</time>
      </trkpt>
      <trkpt lat="46.07398" lon="6.4709">
        <ele>458</ele>
        <time>2019-04-17T05:45:05Z</time>
      </trkpt>
      <trkpt lat="46.07404" lon="6.47197">
        <ele>460</ele>
        <time>2019-04-17T05:46:05Z</time>
      </trkpt>
      <trkpt lat="46.07414" lon="6.47287">
        <ele>460</ele>
        <time>2019-04-17T05:47:05Z</time>
      </trkpt>
      <trkpt lat="46.07427" lon="6.47429">
        <ele>461</ele>
        <time>2019-04-17T05:48:05Z</time>
      </trkpt>
      <trkpt lat="46.07439" lon="6.47501">
        <ele>462</ele>
        <time>2019-04-17T05:49:05Z</time>
      </trkpt>
      <trkpt lat="46.07479" lon="6.47689">
        <ele>460</ele>
        <time>2019-04-17T05:50:05Z</time>
      </trkpt>
      <trkpt lat="46.07517" lon="6.47824">
        <ele>456</ele>
        <time>2019-04-17T05:51:05Z</time>
      </trkpt>
      <trkpt lat="46.07577" lon="6.47991">
        <ele>459</ele>
        <time>2019-04-17T05:52:05Z</time>
      </trkpt>
      <trkpt lat="46.07577" lon="6.47997">
        <ele>459</ele>
        <time>2019-04-17T05:53:05Z</time>
      </trkpt>
      <trkpt lat="46.07575" lon="6.48">
        <ele>459</ele>
        <time>2019-04-17T05:54:05Z</time>
      </trkpt>
      <trkpt lat="46.07553" lon="6.4802">
        <ele>459</ele>
        <time>2019-04-17T05:55:05Z</time>
      </trkpt>
      <trkpt lat="46.07545" lon="6.48032">
        <ele>460</ele>
        <time>2019-04-17T05:56:05Z</time>
      </trkpt>
      <trkpt lat="46.07522" lon="6.48144">
        <ele>462</ele>
        <time>2019-04-17T05:57:05Z</time>
      </trkpt>
      <trkpt lat="46.07493" lon="6.48186">
        <ele>463</ele>
        <time>2019-04-17T05:58:05Z</time>
      </trkpt>
      <trkpt lat="46.07498" lon="6.48191">
        <ele>463</ele>
        <time>2019-04-17T05:59:05Z</time>
      </trkpt>
      <trkpt lat="46.07505" lon="6.48191">
        <ele>463</ele>
        <time>2019-04-17T06:00:05Z</time>
      </trkpt>
      <trkpt lat="46.07515" lon="6.48174">
        <ele>463</ele>
        <time>2019-04-17T06:01:05Z</time>
      </trkpt>
      <trkpt lat="46.07519" lon="6.48173">
        <ele>463</ele>
        <time>2019-04-17T06:02:05Z</time>
      </trkpt>
      <trkpt lat="46.07523" lon="6.48176">
        <ele>463</ele>
        <time>2019-04-17T06:03:05Z</time>
      </trkpt>
      <trkpt lat="46.07529" lon="6.48182">
        <ele>463</ele>
        <time>2019-04-17T06:04:05Z</time>
      </trkpt>
      <trkpt lat="46.07541" lon="6.48186">
        <ele>463</ele>
        <time>2019-04-17T06:05:05Z</time>
      </trkpt>
      <trkpt lat="46.07566" lon="6.48217">
        <ele>463</ele>
        <time>2019-04-17T06:06:05Z</time>
      </trkpt>
      <trkpt lat="46.07674" lon="6.48417">
        <ele>466</ele>
        <time>2019-04-17T06:07:05Z</time>
      </trkpt>
      <trkpt lat="46.07661" lon="6.48474">
        <ele>465</ele>
        <time>2019-04-17T06:08:05Z</time>
      </trkpt>
      <trkpt lat="46.07664" lon="6.48508">
        <ele>464</ele>
        <time>2019-04-17T06:09:05Z</time>
      </trkpt>
      <trkpt lat="46.07667" lon="6.48516">
        <ele>464</ele>
        <time>2019-04-17T06:10:05Z</time>
      </trkpt>
      <trkpt lat="46.0767" lon="6.48519">
        <ele>464</ele>
        <time>2019-04-17T06:11:05Z</time>
      </trkpt>
      <trkpt lat="46.07667" lon="6.48547">
        <ele>463</ele>
        <time>2019-04-17T06:12:05Z</time>
      </trkpt>
      <trkpt lat="46.07668" lon="6.48557">
        <ele>463</ele>
        <time>2019-04-17T06:13:05Z</time>
      </trkpt>
      <trkpt lat="46.07672" lon="6.48561">
        <ele>463</ele>
        <time>2019-04-17T06:14:05Z</time>
      </trkpt>
      <trkpt lat="46.07708" lon="6.48565">
        <ele>463</ele>
        <time>2019-04-17T06:15:05Z</time>
      </trkpt>
      <trkpt lat="46.07891" lon="6.48618">
        <ele>464</ele>
        <time>2019-04-17T06:16:05Z</time>
      </trkpt>
      <trkpt lat="46.07894" lon="6.48625">
        <ele>464</ele>
        <time>2019-04-17T06:17:05Z</time>
      </trkpt>
      <trkpt lat="46.07909" lon="6.4863">
        <ele>464</ele>
        <time>2019-04-17T06:18:05Z</time>
      </trkpt>
      <trkpt lat="46.07931" lon="6.48643">
        <ele>465</ele>
        <time>2019-04-17T06:19:05Z</time>
      </trkpt>
      <trkpt lat="46.07941" lon="6.48652">
        <ele>465</ele>
        <time>2019-04-17T06:20:05Z</time>
      </trkpt>
      <trkpt lat="46.08024" lon="6.48756">
        <ele>465</ele>
        <time>2019-04-17T06:21:05Z</time>
      </trkpt>
      <trkpt lat="46.08031" lon="6.48771">
        <ele>465</ele>
        <time>2019-04-17T06:22:05Z</time>
      </trkpt>
      <trkpt lat="46.08034" lon="6.48788">
        <ele>465</ele>
        <time>2019-04-17T06:23:05Z</time>
      </trkpt>
      <trkpt lat="46.08031" lon="6.48803">
        <ele>465</ele>
        <time>2019-04-17T06:24:05Z</time>
      </trkpt>
      <trkpt lat="46.08024" lon="6.4882">
        <ele>465</ele>
        <time>2019-04-17T06:25:05Z</time>
      </trkpt>
      <trkpt lat="46.08011" lon="6.48864">
        <ele>465</ele>
        <time>2019-04-17T06:26:05Z</time>
      </trkpt>
      <trkpt lat="46.08007" lon="6.48884">
        <ele>465</ele>
        <time>2019-04-17T06:27:05Z</time>
      </trkpt>
      <trkpt lat="46.08008" lon="6.48896">
        <ele>465</ele>
        <time>2019-04-17T06:28:05Z</time>
      </trkpt>
      <trkpt lat="46.08083" lon="6.491">
        <ele>469</ele>
        <time>2019-04-17T06:29:05Z</time>
      </trkpt>
      <trkpt lat="46.08087" lon="6.49106">
        <ele>469</ele>
        <time>2019-04-17T06:30:05Z</time>
      </trkpt>
      <trkpt lat="46.08092" lon="6.49109">
        <ele>469</ele>
        <time>2019-04-17T06:31:05Z</time>
      </trkpt>
      <trkpt lat="46.08101" lon="6.49107">
        <ele>469</ele>
        <time>2019-04-17T06:32:05Z</time>
      </trkpt>
      <trkpt lat="46.08135" lon="6.4907">
        <ele>470</ele>
        <time>2019-04-17T06:33:05Z</time>
      </trkpt>
      <trkpt lat="46.08155" lon="6.49058">
        <ele>470</ele>
        <time>2019-04-17T06:34:05Z</time>
      </trkpt>
      <trkpt lat="46.08174" lon="6.49054">
        <ele>471</ele>
        <time>2019-04-17T06:35:05Z</time>
      </trkpt>
      <trkpt lat="46.08208" lon="6.49059">
        <ele>470</ele>
        <time>2019-04-17T06:36:05Z</time>
      </trkpt>
      <trkpt lat="46.08219" lon="6.49064">
        <ele>470</ele>
        <time>2019-04-17T06:37:05Z</time>
      </trkpt>
      <trkpt lat="46.0823" lon="6.49072">
        <ele>469</ele>
        <time>2019-04-17T06:38:05Z</time>
      </trkpt>
      <trkpt lat="46.08358" lon="6.49214">
        <ele>469</ele>
        <time>2019-04-17T06:39:05Z</time>
      </trkpt>
      <trkpt lat="46.08369" lon="6.49224">
        <ele>469</ele>
        <time>2019-04-17T06:40:05Z</time>
      </trkpt>
      <trkpt lat="46.08382" lon="6.4923">
        <ele>469</ele>
        <time>2019-04-17T06:41:05Z</time>
      </trkpt>
      <trkpt lat="46.08389" lon="6.49231">
        <ele>469</ele>
        <time>2019-04-17T06:42:05Z</time>
      </trkpt>
      <trkpt lat="46.08405" lon="6.49239">
        <ele>470</ele>
        <time>2019-04-17T06:43:05Z</time>
      </trkpt>
      <trkpt lat="46.08414" lon="6.49248">
        <ele>470</ele>
        <time>2019-04-17T06:44:05Z</time>
      </trkpt>
      <trkpt lat="46.08459" lon="6.49302">
        <ele>469</ele>
        <time>2019-04-17T06:45:05Z</time>
      </trkpt>
      <trkpt lat="46.0876" lon="6.49686">
        <ele>470</ele>
        <time>2019-04-17T06:46:05Z</time>
      </trkpt>
      <trkpt lat="46.08774" lon="6.4967">
        <ele>471</ele>
        <time>2019-04-17T06:47:05Z</time>
      </trkpt>
      <trkpt lat="46.08779" lon="6.49661">
        <ele>471</ele>
        <time>2019-04-17T06:48:05Z</time>
      </trkpt>
      <trkpt lat="46.08811" lon="6.49627">
        <ele>472</ele>
        <time>2019-04-17T06:49:05Z</time>
      </trkpt>
      <trkpt lat="46.08839" lon="6.496">
        <ele>472</ele>
        <time>2019-04-17T06:50:05Z</time>
      </trkpt>
      <trkpt lat="46.09004" lon="6.50009">
        <ele>473</ele>
        <time>2019-04-17T06:51:05Z</time>
      </trkpt>
      <trkpt lat="46.09008" lon="6.50027">
        <ele>474</ele>
        <time>2019-04-17T06:52:05Z</time>
      </trkpt>
      <trkpt lat="46.09003" lon="6.50031">
        <ele>473</ele>
        <time>2019-04-17T06:53:05Z</time>
      </trkpt>
      <trkpt lat="46.09004" lon="6.5004">
        <ele>474</ele>
        <time>2019-04-17T06:54:05Z</time>
      </trkpt>
      <trkpt lat="46.08934" lon="6.50094">
        <ele>475</ele>
        <time>2019-04-17T06:55:05Z</time>
      </trkpt>
      <trkpt lat="46.08929" lon="6.501">
        <ele>475</ele>
        <time>2019-04-17T06:56:05Z</time>
      </trkpt>
      <trkpt lat="46.0892" lon="6.50115">
        <ele>475</ele>
        <time>2019-04-17T06:57:05Z</time>
      </trkpt>
      <trkpt lat="46.08917" lon="6.50131">
        <ele>474</ele>
        <time>2019-04-17T06:58:05Z</time>
      </trkpt>
      <trkpt lat="46.08916" lon="6.50141">
        <ele>474</ele>
        <time>2019-04-17T06:59:05Z</time>
      </trkpt>
      <trkpt lat="46.08918" lon="6.5017">
        <ele>473</ele>
        <time>2019-04-17T07:00:05Z</time>
      </trkpt>
      <trkpt lat="46.08936" lon="6.50382">
        <ele>474</ele>
        <time>2019-04-17T07:01:05Z</time>
      </trkpt>
      <trkpt lat="46.08942" lon="6.5048">
        <ele>475</ele>
        <time>2019-04-17T07:02:05Z</time>
      </trkpt>
      <trkpt lat="46.08944" lon="6.50563">
        <ele>476</ele>
        <time>2019-04-17T07:03:05Z</time>
      </trkpt>
      <trkpt lat="46.08941" lon="6.50612">
        <ele>476</ele>
        <time>2019-04-17T07:04:05Z</time>
      </trkpt>
      <trkpt lat="46.08921" lon="6.50633">
        <ele>476</ele>
        <time>2019-04-17T07:05:05Z</time>
      </trkpt>
      <trkpt lat="46.08891" lon="6.50626">
        <ele>476</ele>
        <time>2019-04-17T07:06:05Z</time>
      </trkpt>
      <trkpt lat="46.0887" lon="6.5071">
        <ele>475</ele>
        <time>2019-04-17T07:07:05Z</time>
      </trkpt>
      <trkpt lat="46.08829" lon="6.50889">
        <ele>474</ele>
        <time>2019-04-17T07:08:05Z</time>
      </trkpt>
      <trkpt lat="46.088" lon="6.51026">
        <ele>472</ele>
        <time>2019-04-17T07:09:05Z</time>
      </trkpt>
      <trkpt lat="46.0874" lon="6.5128">
        <ele>472</ele>
        <time>2019-04-17T07:10:05Z</time>
      </trkpt>
      <trkpt lat="46.0863" lon="6.51773">
        <ele>470</ele>
        <time>2019-04-17T07:11:05Z</time>
      </trkpt>
      <trkpt lat="46.08596" lon="6.5192">
        <ele>469</ele>
        <time>2019-04-17T07:12:05Z</time>
      </trkpt>
      <trkpt lat="46.08591" lon="6.51934">
        <ele>470</ele>
        <time>2019-04-17T07:13:05Z</time>
      </trkpt>
      <trkpt lat="46.08567" lon="6.52046">
        <ele>473</ele>
        <time>2019-04-17T07:14:05Z</time>
      </trkpt>
      <trkpt lat="46.08547" lon="6.52112">
        <ele>475</ele>
        <time>2019-04-17T07:15:05Z</time>
      </trkpt>
      <trkpt lat="46.08499" lon="6.5232">
        <ele>471</ele>
        <time>2019-04-17T07:16:05Z</time>
      </trkpt>
      <trkpt lat="46.08492" lon="6.52394">
        <ele>471</ele>
        <time>2019-04-17T07:17:05Z</time>
      </trkpt>
      <trkpt lat="46.08488" lon="6.52411">
        <ele>471</ele>
        <time>2019-04-17T07:18:05Z</time>
      </trkpt>
      <trkpt lat="46.0847" lon="6.52456">
        <ele>471</ele>
        <time>2019-04-17T07:19:05Z</time>
      </trkpt>
      <trkpt lat="46.08327" lon="6.53092">
        <ele>471</ele>
        <time>2019-04-17T07:20:05Z</time>
      </trkpt>
      <trkpt lat="46.08257" lon="6.53399">
        <ele>473</ele>
        <time>2019-04-17T07:21:05Z</time>
      </trkpt>
      <trkpt lat="46.08201" lon="6.53632">
        <ele>474</ele>
        <time>2019-04-17T07:22:05Z</time>
      </trkpt>
      <trkpt lat="46.08167" lon="6.53801">
        <ele>475</ele>
        <time>2019-04-17T07:23:05Z</time>
      </trkpt>
      <trkpt lat="46.08169" lon="6.53819">
        <ele>475</ele>
        <time>2019-04-17T07:24:05Z</time>
      </trkpt>
      <trkpt lat="46.08164" lon="6.53817">
        <ele>475</ele>
        <time>2019-04-17T07:25:05Z</time>
      </trkpt>
      <trkpt lat="46.08159" lon="6.53871">
        <ele>474</ele>
        <time>2019-04-17T07:26:05Z</time>
      </trkpt>
      <trkpt lat="46.08119" lon="6.5412">
        <ele>472</ele>
        <time>2019-04-17T07:27:05Z</time>
      </trkpt>
      <trkpt lat="46.08112" lon="6.54148">
        <ele>472</ele>
        <time>2019-04-17T07:28:05Z</time>
      </trkpt>
      <trkpt lat="46.08107" lon="6.54144">
        <ele>472</ele>
        <time>2019-04-17T07:29:05Z</time>
      </trkpt>
      <trkpt lat="46.081" lon="6.54147">
        <ele>472</ele>
        <time>2019-04-17T07:30:05Z</time>
      </trkpt>
      <trkpt lat="46.08098" lon="6.54155">
        <ele>471</ele>
        <time>2019-04-17T07:31:05Z</time>
      </trkpt>
      <trkpt lat="46.081" lon="6.54164">
        <ele>471</ele>
        <time>2019-04-17T07:32:05Z</time>
      </trkpt>
      <trkpt lat="46.08106" lon="6.54168">
        <ele>472</ele>
        <time>2019-04-17T07:33:05Z</time>
      </trkpt>
      <trkpt lat="46.08104" lon="6.54189">
        <ele>472</ele>
        <time>2019-04-17T07:34:05Z</time>
      </trkpt>
      <trkpt lat="46.0808" lon="6.5435">
        <ele>471</ele>
        <time>2019-04-17T07:35:05Z</time>
      </trkpt>
      <trkpt lat="46.08051" lon="6.54521">
        <ele>472</ele>
        <time>2019-04-17T07:36:05Z</time>
      </trkpt>
      <trkpt lat="46.08042" lon="6.54534">
        <ele>472</ele>
        <time>2019-04-17T07:37:05Z</time>
      </trkpt>
      <trkpt lat="46.08038" lon="6.54562">
        <ele>473</ele>
        <time>2019-04-17T07:38:05Z</time>
      </trkpt>
      <trkpt lat="46.08038" lon="6.54574">
        <ele>473</ele>
        <time>2019-04-17T07:39:05Z</time>
      </trkpt>
      <trkpt lat="46.0804" lon="6.5459">
        <ele>473</ele>
        <time>2019-04-17T07:40:05Z</time>
      </trkpt>
      <trkpt lat="46.07996" lon="6.54848">
        <ele>475</ele>
        <time>2019-04-17T07:41:05Z</time>
      </trkpt>
      <trkpt lat="46.07997" lon="6.54872">
        <ele>474</ele>
        <time>2019-04-17T07:42:05Z</time>
      </trkpt>
      <trkpt lat="46.07943" lon="6.55199">
        <ele>475</ele>
        <time>2019-04-17T07:43:05Z</time>
      </trkpt>
      <trkpt lat="46.07921" lon="6.55356">
        <ele>474</ele>
        <time>2019-04-17T07:44:05Z</time>
      </trkpt>
      <trkpt lat="46.07886" lon="6.55529">
        <ele>475</ele>
        <time>2019-04-17T07:45:05Z</time>
      </trkpt>
      <trkpt lat="46.07848" lon="6.55646">
        <ele>474</ele>
        <time>2019-04-17T07:46:05Z</time>
      </trkpt>
      <trkpt lat="46.07837" lon="6.55674">
        <ele>474</ele>
        <time>2019-04-17T07:47:05Z</time>
      </trkpt>
      <trkpt lat="46.07832" lon="6.55682">
        <ele>474</ele>
        <time>2019-04-17T07:48:05Z</time>
      </trkpt>
      <trkpt lat="46.07828" lon="6.55683">
        <ele>474</ele>
        <time>2019-04-17T07:49:05Z</time>
      </trkpt>
      <trkpt lat="46.07819" lon="6.55675">
        <ele>474</ele>
        <time>2019-04-17T07:50:05Z</time>
      </trkpt>
      <trkpt lat="46.07749" lon="6.55576">
        <ele>473</ele>
        <time>2019-04-17T07:51:05Z</time>
      </trkpt>
      <trkpt lat="46.07397" lon="6.54807">
        <ele>476</ele>
        <time>2019-04-17T07:52:05Z</time>
      </trkpt>
      <trkpt lat="46.07395" lon="6.54789">
        <ele>476</ele>
        <time>2019-04-17T07:53:05Z</time>
      </trkpt>
      <trkpt lat="46.07356" lon="6.54797">
        <ele>473</ele>
        <time>2019-04-17T07:54:05Z</time>
      </trkpt>
      <trkpt lat="46.07338" lon="6.54793">
        <ele>472</ele>
        <time>2019-04-17T07:55:05Z</time>
      </trkpt>
      <trkpt lat="46.0733" lon="6.54796">
        <ele>472</ele>
        <time>2019-04-17T07:56:05Z</time>
      </trkpt>
      <trkpt lat="46.07325" lon="6.54803">
        <ele>472</ele>
        <time>2019-04-17T07:57:05Z</time>
      </trkpt>
      <trkpt lat="46.07288" lon="6.54951">
        <ele>474</ele>
        <time>2019-04-17T07:58:05Z</time>
      </trkpt>
      <trkpt lat="46.07257" lon="6.55056">
        <ele>475</ele>
        <time>2019-04-17T07:59:05Z</time>
      </trkpt>
      <trkpt lat="46.072" lon="6.55236">
        <ele>473</ele>
        <time>2019-04-17T08:00:05Z</time>
      </trkpt>
      <trkpt lat="46.07197" lon="6.55251">
        <ele>473</ele>
        <time>2019-04-17T08:01:05Z</time>
      </trkpt>
      <trkpt lat="46.07167" lon="6.55329">
        <ele>476</ele>
        <time>2019-04-17T08:02:05Z</time>
      </trkpt>
      <trkpt lat="46.07139" lon="6.55396">
        <ele>475</ele>
        <time>2019-04-17T08:03:05Z</time>
      </trkpt>
      <trkpt lat="46.07109" lon="6.55463">
        <ele>474</ele>
        <time>2019-04-17T08:04:05Z</time>
      </trkpt>
      <trkpt lat="46.07068" lon="6.55564">
        <ele>474</ele>
        <time>2019-04-17T08:05:05Z</time>
      </trkpt>
      <trkpt lat="46.07045" lon="6.55599">
        <ele>474</ele>
        <time>2019-04-17T08:06:05Z</time>
      </trkpt>
      <trkpt lat="46.07027" lon="6.55654">
        <ele>475</ele>
        <time>2019-04-17T08:07:05Z</time>
      </trkpt>
      <trkpt lat="46.06986" lon="6.55754">
        <ele>475</ele>
        <time>2019-04-17T08:08:05Z</time>
      </trkpt>
      <trkpt lat="46.06977" lon="6.55771">
        <ele>475</ele>
        <time>2019-04-17T08:09:05Z</time>
      </trkpt>
      <trkpt lat="46.06923" lon="6.55919">
        <ele>474</ele>
        <time>2019-04-17T08:10:05Z</time>
      </trkpt>
      <trkpt lat="46.06898" lon="6.5596">
        <ele>475</ele>
        <time>2019-04-17T08:11:05Z</time>
      </trkpt>
      <trkpt lat="46.06878" lon="6.55998">
        <ele>475</ele>
        <time>2019-04-17T08:12:05Z</time>
      </trkpt>
      <trkpt lat="46.06848" lon="6.56069">
        <ele>475</ele>
        <time>2019-04-17T08:13:05Z</time>
      </trkpt>
      <trkpt lat="46.06844" lon="6.56093">
        <ele>476</ele>
        <time>2019-04-17T08:14:05Z</time>
      </trkpt>
      <trkpt lat="46.06838" lon="6.56107">
        <ele>476</ele>
        <time>2019-04-17T08:15:05Z</time>
      </trkpt>
      <trkpt lat="46.06828" lon="6.56119">
        <ele>476</ele>
        <time>2019-04-17T08:16:05Z</time>
      </trkpt>
      <trkpt lat="46.06823" lon="6.56133">
        <ele>477</ele>
        <time>2019-04-17T08:17:05Z</time>
      </trkpt>
      <trkpt lat="46.06813" lon="6.56169">
        <ele>478</ele>
        <time>2019-04-17T08:18:05Z</time>
      </trkpt>
      <trkpt lat="46.06773" lon="6.56256">
        <ele>475</ele>
        <time>2019-04-17T08:19:05Z</time>
      </trkpt>
      <trkpt lat="46.06758" lon="6.563">
        <ele>475</ele>
        <time>2019-04-17T08:20:05Z</time>
      </trkpt>
      <trkpt lat="46.06722" lon="6.5637">
        <ele>477</ele>
        <time>2019-04-17T08:21:05Z</time>
      </trkpt>
      <trkpt lat="46.06701" lon="6.56406">
        <ele>477</ele>
        <time>2019-04-17T08:22:05Z</time>
      </trkpt>
      <trkpt lat="46.06605" lon="6.56553">
        <ele>479</ele>
        <time>2019-04-17T08:23:05Z</time>
      </trkpt>
      <trkpt lat="46.0653" lon="6.56673">
        <ele>477</ele>
        <time>2019-04-17T08:24:05Z</time>
      </trkpt>
      <trkpt lat="46.06496" lon="6.56763">
        <ele>478</ele>
        <time>2019-04-17T08:25:05Z</time>
      </trkpt>
      <trkpt lat="46.06415" lon="6.56919">
        <ele>479</ele>
        <time>2019-04-17T08:26:05Z</time>
      </trkpt>
      <trkpt lat="46.06369" lon="6.57034">
        <ele>480</ele>
        <time>2019-04-17T08:27:05Z</time>
      </trkpt>
      <trkpt lat="46.06328" lon="6.57127">
        <ele>482</ele>
        <time>2019-04-17T08:28:05Z</time>
      </trkpt>
      <trkpt lat="46.06273" lon="6.57201">
        <ele>482</ele>
        <time>2019-04-17T08:29:05Z</time>
      </trkpt>
      <trkpt lat="46.06211" lon="6.57269">
        <ele>482</ele>
        <time>2019-04-17T08:30:05Z</time>
      </trkpt>
      <trkpt lat="46.06175" lon="6.57304">
        <ele>482</ele>
        <time>2019-04-17T08:31:05Z</time>
      </trkpt>
      <trkpt lat="46.06118" lon="6.57366">
        <ele>483</ele>
        <time>2019-04-17T08:32:05Z</time>
      </trkpt>
      <trkpt lat="46.06071" lon="6.57406">
        <ele>483</ele>
        <time>2019-04-17T08:33:05Z</time>
      </trkpt>
      <trkpt lat="46.05987" lon="6.57484">
        <ele>481</ele>
        <time>2019-04-17T08:34:05Z</time>
      </trkpt>
      <trkpt lat="46.05947" lon="6.5753">
        <ele>481</ele>
        <time>2019-04-17T08:35:05Z</time>
      </trkpt>
      <trkpt lat="46.05935" lon="6.57547">
        <ele>482</ele>
        <time>2019-04-17T08:36:05Z</time>
      </trkpt>
      <trkpt lat="46.05899" lon="6.5761">
        <ele>482</ele>
        <time>2019-04-17T08:37:05Z</time>
      </trkpt>
      <trkpt lat="46.0585" lon="6.57707">
        <ele>484</ele>
        <time>2019-04-17T08:38:05Z</time>
      </trkpt>
      <trkpt lat="46.05832" lon="6.57723">
        <ele>485</ele>
        <time>2019-04-17T08:39:05Z</time>
      </trkpt>
      <trkpt lat="46.05752" lon="6.57861">
        <ele>484</ele>
        <time>2019-04-17T08:40:05Z</time>
      </trkpt>
      <trkpt lat="46.05704" lon="6.57922">
        <ele>486</ele>
        <time>2019-04-17T08:41:05Z</time>
      </trkpt>
      <trkpt lat="46.05682" lon="6.57944">
        <ele>486</ele>
        <time>2019-04-17T08:42:05Z</time>
      </trkpt>
      <trkpt lat="46.05677" lon="6.57962">
        <ele>486</ele>
        <time>2019-04-17T08:43:05Z</time>
      </trkpt>
      <trkpt lat="46.05669" lon="6.57963">
        <ele>485</ele>
        <time>2019-04-17T08:44:05Z</time>
      </trkpt>
      <trkpt lat="46.05663" lon="6.57968">
        <ele>486</ele>
        <time>2019-04-17T08:45:05Z</time>
      </trkpt>
      <trkpt lat="46.0566" lon="6.57978">
        <ele>486</ele>
        <time>2019-04-17T08:46:05Z</time>
      </trkpt>
      <trkpt lat="46.05664" lon="6.57996">
        <ele>485</ele>
        <time>2019-04-17T08:47:05Z</time>
      </trkpt>
      <trkpt lat="46.05664" lon="6.58015">
        <ele>486</ele>
        <time>2019-04-17T08:48:05Z</time>
      </trkpt>
      <trkpt lat="46.05693" lon="6.58033">
        <ele>486</ele>
        <time>2019-04-17T08:49:05Z</time>
      </trkpt>
      <trkpt lat="46.05697" lon="6.58043">
        <ele>487</ele>
        <time>2019-04-17T08:50:05Z</time>
      </trkpt>
      <trkpt lat="46.05697" lon="6.58065">
        <ele>487</ele>
        <time>2019-04-17T08:51:05Z</time>
      </trkpt>
      <trkpt lat="46.05692" lon="6.58079">
        <ele>488</ele>
        <time>2019-04-17T08:52:05Z</time>
      </trkpt>
      <trkpt lat="46.05687" lon="6.58084">
        <ele>488</ele>
        <time>2019-04-17T08:53:05Z</time>
      </trkpt>
      <trkpt lat="46.05657" lon="6.581">
        <ele>491</ele>
        <time>2019-04-17T08:54:05Z</time>
      </trkpt>
      <trkpt lat="46.05575" lon="6.58113">
        <ele>495</ele>
        <time>2019-04-17T08:55:05Z</time>
      </trkpt>
      <trkpt lat="46.0548" lon="6.58135">
        <ele>487</ele>
        <time>2019-04-17T08:56:05Z</time>
      </trkpt>
      <trkpt lat="46.05445" lon="6.58147">
        <ele>489</ele>
        <time>2019-04-17T08:57:05Z</time>
      </trkpt>
      <trkpt lat="46.05416" lon="6.58163">
        <ele>490</ele>
        <time>2019-04-17T08:58:05Z</time>
      </trkpt>
      <trkpt lat="46.05387" lon="6.58184">
        <ele>491</ele>
        <time>2019-04-17T08:59:05Z</time>
      </trkpt>
      <trkpt lat="46.05236" lon="6.58313">
        <ele>491</ele>
        <time>2019-04-17T09:00:05Z</time>
      </trkpt>
      <trkpt lat="46.05208" lon="6.58342">
        <ele>492</ele>
        <time>2019-04-17T09:01:05Z</time>
      </trkpt>
      <trkpt lat="46.05178" lon="6.58383">
        <ele>497</ele>
        <time>2019-04-17T09:02:05Z</time>
      </trkpt>
      <trkpt lat="46.05152" lon="6.58433">
        <ele>500</ele>
        <time>2019-04-17T09:03:05Z</time>
      </trkpt>
      <trkpt lat="46.0514" lon="6.58464">
        <ele>505</ele>
        <time>2019-04-17T09:04:05Z</time>
      </trkpt>
      <trkpt lat="46.05124" lon="6.58514">
        <ele>505</ele>
        <time>2019-04-17T09:05:05Z</time>
      </trkpt>
      <trkpt lat="46.05115" lon="6.58558">
        <ele>503</ele>
        <time>2019-04-17T09:06:05Z</time>
      </trkpt>
      <trkpt lat="46.0511" lon="6.58606">
        <ele>502</ele>
        <time>2019-04-17T09:07:05Z</time>
      </trkpt>
      <trkpt lat="46.0511" lon="6.58631">
        <ele>503</ele>
        <time>2019-04-17T09:08:05Z</time>
      </trkpt>
      <trkpt lat="46.05112" lon="6.5874">
        <ele>508</ele>
        <time>2019-04-17T09:09:05Z</time>
      </trkpt>
      <trkpt lat="46.05105" lon="6.58857">
        <ele>511</ele>
        <time>2019-04-17T09:10:05Z</time>
      </trkpt>
      <trkpt lat="46.05097" lon="6.58947">
        <ele>508</ele>
        <time>2019-04-17T09:11:05Z</time>
      </trkpt>
      <trkpt lat="46.05086" lon="6.59017">
        <ele>502</ele>
        <time>2019-04-17T09:12:05Z</time>
      </trkpt>
      <trkpt lat="46.05061" lon="6.59209">
        <ele>502</ele>
        <time>2019-04-17T09:13:05Z</time>
      </trkpt>
      <trkpt lat="46.05033" lon="6.59388">
        <ele>505</ele>
        <time>2019-04-17T09:14:05Z</time>
      </trkpt>
      <trkpt lat="46.05029" lon="6.59418">
        <ele>505</ele>
        <time>2019-04-17T09:15:05Z</time>
      </trkpt>
      <trkpt lat="46.05027" lon="6.59453">
        <ele>505</ele>
        <time>2019-04-17T09:16:05Z</time>
      </trkpt>
      <trkpt lat="46.0501" lon="6.59544">
        <ele>501</ele>
        <time>2019-04-17T09:17:05Z</time>
      </trkpt>
      <trkpt lat="46.04988" lon="6.59627">
        <ele>500</ele>
        <time>2019-04-17T09:18:05Z</time>
      </trkpt>
      <trkpt lat="46.04969" lon="6.59684">
        <ele>500</ele>
        <time>2019-04-17T09:19:05Z</time>
      </trkpt>
      <trkpt lat="46.04928" lon="6.59789">
        <ele>498</ele>
        <time>2019-04-17T09:20:05Z</time>
      </trkpt>
      <trkpt lat="46.049" lon="6.59845">
        <ele>497</ele>
        <time>2019-04-17T09:21:05Z</time>
      </trkpt>
      <trkpt lat="46.04652" lon="6.60277">
        <ele>498</ele>
        <time>2019-04-17T09:22:05Z</time>
      </trkpt>
      <trkpt lat="46.04495" lon="6.60547">
        <ele>498</ele>
        <time>2019-04-17T09:23:05Z</time>
      </trkpt>
      <trkpt lat="46.04465" lon="6.60594">
        <ele>499</ele>
        <time>2019-04-17T09:24:05Z</time>
      </trkpt>
      <trkpt lat="46.04417" lon="6.60655">
        <ele>499</ele>
        <time>2019-04-17T09:25:05Z</time>
      </trkpt>
      <trkpt lat="46.04383" lon="6.60692">
        <ele>510</ele>
        <time>2019-04-17T09:26:05Z</time>
      </trkpt>
      <trkpt lat="46.04352" lon="6.60723">
        <ele>516</ele>
        <time>2019-04-17T09:27:05Z</time>
      </trkpt>
      <trkpt lat="46.04328" lon="6.60742">
        <ele>515</ele>
        <time>2019-04-17T09:28:05Z</time>
      </trkpt>
      <trkpt lat="46.04286" lon="6.60767">
        <ele>519</ele>
        <time>2019-04-17T09:29:05Z</time>
      </trkpt>
      <trkpt lat="46.04261" lon="6.60777">
        <ele>520</ele>
        <time>2019-04-17T09:30:05Z</time>
      </trkpt>
      <trkpt lat="46.04213" lon="6.60787">
        <ele>521</ele>
        <time>2019-04-17T09:31:05Z</time>
      </trkpt>
      <trkpt lat="46.04187" lon="6.60789">
        <ele>521</ele>
        <time>2019-04-17T09:32:05Z</time>
      </trkpt>
      <trkpt lat="46.04049" lon="6.60778">
        <ele>505</ele>
        <time>2019-04-17T09:33:05Z</time>
      </trkpt>
      <trkpt lat="46.04021" lon="6.60781">
        <ele>502</ele>
        <time>2019-04-17T09:34:05Z</time>
      </trkpt>
      <trkpt lat="46.03996" lon="6.60793">
        <ele>500</ele>
        <time>2019-04-17T09:35:05Z</time>
      </trkpt>
      <trkpt lat="46.03974" lon="6.6081">
        <ele>500</ele>
        <time>2019-04-17T09:36:05Z</time>
      </trkpt>
      <trkpt lat="46.03964" lon="6.60822">
        <ele>500</ele>
        <time>2019-04-17T09:37:05Z</time>
      </trkpt>
      <trkpt lat="46.03942" lon="6.60852">
        <ele>499</ele>
        <time>2019-04-17T09:38:05Z</time>
      </trkpt>
      <trkpt lat="46.03929" lon="6.60885">
        <ele>498</ele>
        <time>2019-04-17T09:39:05Z</time>
      </trkpt>
      <trkpt lat="46.03925" lon="6.609">
        <ele>497</ele>
        <time>2019-04-17T09:40:05Z</time>
      </trkpt>
      <trkpt lat="46.03915" lon="6.60952">
        <ele>497</ele>
        <time>2019-04-17T09:41:05Z</time>
      </trkpt>
      <trkpt lat="46.0387" lon="6.61278">
        <ele>499</ele>
        <time>2019-04-17T09:42:05Z</time>
      </trkpt>
      <trkpt lat="46.03861" lon="6.61331">
        <ele>499</ele>
        <time>2019-04-17T09:43:05Z</time>
      </trkpt>
      <trkpt lat="46.03856" lon="6.61344">
        <ele>499</ele>
        <time>2019-04-17T09:44:05Z</time>
      </trkpt>
      <trkpt lat="46.03851" lon="6.61351">
        <ele>498</ele>
        <time>2019-04-17T09:45:05Z</time>
      </trkpt>
      <trkpt lat="46.03849" lon="6.61359">
        <ele>498</ele>
        <time>2019-04-17T09:46:05Z</time>
      </trkpt>
      <trkpt lat="46.03853" lon="6.61387">
        <ele>497</ele>
        <time>2019-04-17T09:47:05Z</time>
      </trkpt>
      <trkpt lat="46.03854" lon="6.61413">
        <ele>496</ele>
        <time>2019-04-17T09:48:05Z</time>
      </trkpt>
      <trkpt lat="46.0385" lon="6.61434">
        <ele>497</ele>
        <time>2019-04-17T09:49:05Z</time>
      </trkpt>
      <trkpt lat="46.03834" lon="6.61489">
        <ele>498</ele>
        <time>2019-04-17T09:50:05Z</time>
      </trkpt>
      <trkpt lat="46.03821" lon="6.61524">
        <ele>500</ele>
        <time>2019-04-17T09:51:05Z</time>
      </trkpt>
      <trkpt lat="46.03809" lon="6.61553">
        <ele>501</ele>
        <time>2019-04-17T09:52:05Z</time>
      </trkpt>
      <trkpt lat="46.03762" lon="6.61632">
        <ele>503</ele>
        <time>2019-04-17T09:53:05Z</time>
      </trkpt>
      <trkpt lat="46.03679" lon="6.6176">
        <ele>511</ele>
        <time>2019-04-17T09:54:05Z</time>
      </trkpt>
      <trkpt lat="46.03646" lon="6.61802">
        <ele>517</ele>
        <time>2019-04-17T09:55:05Z</time>
      </trkpt>
      <trkpt lat="46.03611" lon="6.61832">
        <ele>515</ele>
        <time>2019-04-17T09:56:05Z</time>
      </trkpt>
      <trkpt lat="46.03591" lon="6.61844">
        <ele>513</ele>
        <time>2019-04-17T09:57:05Z</time>
      </trkpt>
      <trkpt lat="46.03557" lon="6.61859">
        <ele>514</ele>
        <time>2019-04-17T09:58:05Z</time>
      </trkpt>
      <trkpt lat="46.03535" lon="6.61864">
        <ele>514</ele>
        <time>2019-04-17T09:59:05Z</time>
      </trkpt>
      <trkpt lat="46.03511" lon="6.61866">
        <ele>513</ele>
        <time>2019-04-17T10:00:05Z</time>
      </trkpt>
      <trkpt lat="46.03488" lon="6.61865">
        <ele>512</ele>
        <time>2019-04-17T10:01:05Z</time>
      </trkpt>
      <trkpt lat="46.03364" lon="6.61846">
        <ele>508</ele>
        <time>2019-04-17T10:02:05Z</time>
      </trkpt>
      <trkpt lat="46.03272" lon="6.6182">
        <ele>508</ele>
        <time>2019-04-17T10:03:05Z</time>
      </trkpt>
      <trkpt lat="46.0304" lon="6.61748">
        <ele>503</ele>
        <time>2019-04-17T10:04:05Z</time>
      </trkpt>
      <trkpt lat="46.03003" lon="6.61739">
        <ele>502</ele>
        <time>2019-04-17T10:05:05Z</time>
      </trkpt>
      <trkpt lat="46.02969" lon="6.61738">
        <ele>503</ele>
        <time>2019-04-17T10:06:05Z</time>
      </trkpt>
      <trkpt lat="46.02856" lon="6.61751">
        <ele>505</ele>
        <time>2019-04-17T10:07:05Z</time>
      </trkpt>
      <trkpt lat="46.02821" lon="6.61757">
        <ele>505</ele>
        <time>2019-04-17T10:08:05Z</time>
      </trkpt>
      <trkpt lat="46.02804" lon="6.61765">
        <ele>506</ele>
        <time>2019-04-17T10:09:05Z</time>
      </trkpt>
      <trkpt lat="46.02788" lon="6.61778">
        <ele>507</ele>
        <time>2019-04-17T10:10:05Z</time>
      </trkpt>
      <trkpt lat="46.02685" lon="6.6188">
        <ele>514</ele>
        <time>2019-04-17T10:11:05Z</time>
      </trkpt>
      <trkpt lat="46.02659" lon="6.619">
        <ele>513</ele>
        <time>2019-04-17T10:12:05Z</time>
      </trkpt>
      <trkpt lat="46.02632" lon="6.61913">
        <ele>513</ele>
        <time>2019-04-17T10:13:05Z</time>
      </trkpt>
      <trkpt lat="46.02495" lon="6.61962">
        <ele>514</ele>
        <time>2019-04-17T10:14:05Z</time>
      </trkpt>
      <trkpt lat="46.02472" lon="6.61967">
        <ele>514</ele>
        <time>2019-04-17T10:15:05Z</time>
      </trkpt>
      <trkpt lat="46.02421" lon="6.6199">
        <ele>514</ele>
        <time>2019-04-17T10:16:05Z</time>
      </trkpt>
      <trkpt lat="46.02348" lon="6.62008">
        <ele>516</ele>
        <time>2019-04-17T10:17:05Z</time>
      </trkpt>
      <trkpt lat="46.02306" lon="6.62027">
        <ele>516</ele>
        <time>2019-04-17T10:18:05Z</time>
      </trkpt>
      <trkpt lat="46.02288" lon="6.6203">
        <ele>515</ele>
        <time>2019-04-17T10:19:05Z</time>
      </trkpt>
      <trkpt lat="46.02287" lon="6.62025">
        <ele>514</ele>
        <time>2019-04-17T10:20:05Z</time>
      </trkpt>
      <trkpt lat="46.02284" lon="6.62021">
        <ele>514</ele>
        <time>2019-04-17T10:21:05Z</time>
      </trkpt>
      <trkpt lat="46.02279" lon="6.62022">
        <ele>514</ele>
        <time>2019-04-17T10:22:05Z</time>
      </trkpt>
      <trkpt lat="46.02276" lon="6.62026">
        <ele>514</ele>
        <time>2019-04-17T10:23:05Z</time>
      </trkpt>
      <trkpt lat="46.02276" lon="6.62035">
        <ele>514</ele>
        <time>2019-04-17T10:24:05Z</time>
      </trkpt>
      <trkpt lat="46.02272" lon="6.62038">
        <ele>514</ele>
        <time>2019-04-17T10:25:05Z</time>
      </trkpt>
      <trkpt lat="46.02204" lon="6.62069">
        <ele>511</ele>
        <time>2019-04-17T10:26:05Z</time>
      </trkpt>
      <trkpt lat="46.02105" lon="6.62101">
        <ele>514</ele>
        <time>2019-04-17T10:27:05Z</time>
      </trkpt>
      <trkpt lat="46.02091" lon="6.62107">
        <ele>515</ele>
        <time>2019-04-17T10:28:05Z</time>
      </trkpt>
      <trkpt lat="46.02053" lon="6.62118">
        <ele>514</ele>
        <time>2019-04-17T10:29:05Z</time>
      </trkpt>
      <trkpt lat="46.01986" lon="6.62155">
        <ele>512</ele>
        <time>2019-04-17T10:30:05Z</time>
      </trkpt>
      <trkpt lat="46.01896" lon="6.62217">
        <ele>510</ele>
        <time>2019-04-17T10:31:05Z</time>
      </trkpt>
      <trkpt lat="46.01801" lon="6.62264">
        <ele>507</ele>
        <time>2019-04-17T10:32:05Z</time>
      </trkpt>
      <trkpt lat="46.01785" lon="6.62268">
        <ele>508</ele>
        <time>2019-04-17T10:33:05Z</time>
      </trkpt>
      <trkpt lat="46.01735" lon="6.62289">
        <ele>508</ele>
        <time>2019-04-17T10:34:05Z</time>
      </trkpt>
      <trkpt lat="46.0171" lon="6.62303">
        <ele>508</ele>
        <time>2019-04-17T10:35:05Z</time>
      </trkpt>
      <trkpt lat="46.01637" lon="6.62361">
        <ele>508</ele>
        <time>2019-04-17T10:36:05Z</time>
      </trkpt>
      <trkpt lat="46.01589" lon="6.62402">
        <ele>509</ele>
        <time>2019-04-17T10:37:05Z</time>
      </trkpt>
      <trkpt lat="46.01554" lon="6.62428">
        <ele>511</ele>
        <time>2019-04-17T10:38:05Z</time>
      </trkpt>
      <trkpt lat="46.01505" lon="6.62463">
        <ele>514</ele>
        <time>2019-04-17T10:39:05Z</time>
      </trkpt>
      <trkpt lat="46.01394" lon="6.62534">
        <ele>515</ele>
        <time>2019-04-17T10:40:05Z</time>
      </trkpt>
      <trkpt lat="46.01391" lon="6.62531">
        <ele>514</ele>
        <time>2019-04-17T10:41:05Z</time>
      </trkpt>
      <trkpt lat="46.01384" lon="6.6253">
        <ele>513</ele>
        <time>2019-04-17T10:42:05Z</time>
      </trkpt>
      <trkpt lat="46.01381" lon="6.62531">
        <ele>513</ele>
        <time>2019-04-17T10:43:05Z</time>
      </trkpt>
      <trkpt lat="46.01366" lon="6.62499">
        <ele>507</ele>
        <time>2019-04-17T10:44:05Z</time>
      </trkpt>
      <trkpt lat="46.01354" lon="6.62488">
        <ele>506</ele>
        <time>2019-04-17T10:45:05Z</time>
      </trkpt>
      <trkpt lat="46.01335" lon="6.62483">
        <ele>506</ele>
        <time>2019-04-17T10:46:05Z</time>
      </trkpt>
      <trkpt lat="46.0132" lon="6.62485">
        <ele>506</ele>
        <time>2019-04-17T10:47:05Z</time>
      </trkpt>
      <trkpt lat="46.01292" lon="6.62493">
        <ele>507</ele>
        <time>2019-04-17T10:48:05Z</time>
      </trkpt>
      <trkpt lat="46.01256" lon="6.62499">
        <ele>508</ele>
        <time>2019-04-17T10:49:05Z</time>
      </trkpt>
      <trkpt lat="46.01241" lon="6.62495">
        <ele>508</ele>
        <time>2019-04-17T10:50:05Z</time>
      </trkpt>
      <trkpt lat="46.01235" lon="6.62491">
        <ele>508</ele>
        <time>2019-04-17T10:51:05Z</time>
      </trkpt>
      <trkpt lat="46.01227" lon="6.62481">
        <ele>508</ele>
        <time>2019-04-17T10:52:05Z</time>
      </trkpt>
      <trkpt lat="46.01223" lon="6.6247">
        <ele>508</ele>
        <time>2019-04-17T10:53:05Z</time>
      </trkpt>
      <trkpt lat="46.01186" lon="6.6236">
        <ele>507</ele>
        <time>2019-04-17T10:54:05Z</time>
      </trkpt>
      <trkpt lat="46.01162" lon="6.62395">
        <ele>508</ele>
        <time>2019-04-17T10:55:05Z</time>
      </trkpt>
      <trkpt lat="46.01053" lon="6.62464">
        <ele>508</ele>
        <time>2019-04-17T10:56:05Z</time>
      </trkpt>
      <trkpt lat="46.00837" lon="6.62612">
        <ele>507</ele>
        <time>2019-04-17T10:57:05Z</time>
      </trkpt>
      <trkpt lat="46.00711" lon="6.62683">
        <ele>511</ele>
        <time>2019-04-17T10:58:05Z</time>
      </trkpt>
      <trkpt lat="46.00593" lon="6.62722">
        <ele>511</ele>
        <time>2019-04-17T10:59:05Z</time>
      </trkpt>
      <trkpt lat="46.00368" lon="6.62778">
        <ele>510</ele>
        <time>2019-04-17T11:00:05Z</time>
      </trkpt>
      <trkpt lat="46.00182" lon="6.62814">
        <ele>511</ele>
        <time>2019-04-17T11:01:05Z</time>
      </trkpt>
      <trkpt lat="45.99561" lon="6.62929">
        <ele>514</ele>
        <time>2019-04-17T11:02:05Z</time>
      </trkpt>
      <trkpt lat="45.9951" lon="6.62936">
        <ele>514</ele>
        <time>2019-04-17T11:03:05Z</time>
      </trkpt>
      <trkpt lat="45.99513" lon="6.62987">
        <ele>515</ele>
        <time>2019-04-17T11:04:05Z</time>
      </trkpt>
      <trkpt lat="45.99518" lon="6.63043">
        <ele>517</ele>
        <time>2019-04-17T11:05:05Z</time>
      </trkpt>
      <trkpt lat="45.99485" lon="6.63057">
        <ele>518</ele>
        <time>2019-04-17T11:06:05Z</time>
      </trkpt>
      <trkpt lat="45.99443" lon="6.63057">
        <ele>519</ele>
        <time>2019-04-17T11:07:05Z</time>
      </trkpt>
      <trkpt lat="45.99424" lon="6.63059">
        <ele>520</ele>
        <time>2019-04-17T11:08:05Z</time>
      </trkpt>
      <trkpt lat="45.99337" lon="6.63075">
        <ele>519</ele>
        <time>2019-04-17T11:09:05Z</time>
      </trkpt>
      <trkpt lat="45.99155" lon="6.63103">
        <ele>518</ele>
        <time>2019-04-17T11:10:05Z</time>
      </trkpt>
      <trkpt lat="45.99159" lon="6.63144">
        <ele>519</ele>
        <time>2019-04-17T11:11:05Z</time>
      </trkpt>
      <trkpt lat="45.99125" lon="6.63149">
        <ele>519</ele>
        <time>2019-04-17T11:12:05Z</time>
      </trkpt>
      <trkpt lat="45.99076" lon="6.63164">
        <ele>519</ele>
        <time>2019-04-17T11:13:05Z</time>
      </trkpt>
      <trkpt lat="45.99025" lon="6.63183">
        <ele>521</ele>
        <time>2019-04-17T11:14:05Z</time>
      </trkpt>
      <trkpt lat="45.98998" lon="6.63196">
        <ele>522</ele>
        <time>2019-04-17T11:15:05Z</time>
      </trkpt>
      <trkpt lat="45.98963" lon="6.63205">
        <ele>524</ele>
        <time>2019-04-17T11:16:05Z</time>
      </trkpt>
      <trkpt lat="45.98942" lon="6.63214">
        <ele>525</ele>
        <time>2019-04-17T11:17:05Z</time>
      </trkpt>
      <trkpt lat="45.98924" lon="6.63218">
        <ele>526</ele>
        <time>2019-04-17T11:18:05Z</time>
      </trkpt>
      <trkpt lat="45.98838" lon="6.63232">
        <ele>527</ele>
        <time>2019-04-17T11:19:05Z</time>
      </trkpt>
      <trkpt lat="45.98634" lon="6.63268">
        <ele>530</ele>
        <time>2019-04-17T11:20:05Z</time>
      </trkpt>
      <trkpt lat="45.98489" lon="6.63265">
        <ele>533</ele>
        <time>2019-04-17T11:21:05Z</time>
      </trkpt>
      <trkpt lat="45.98448" lon="6.63267">
        <ele>534</ele>
        <time>2019-04-17T11:22:05Z</time>
      </trkpt>
      <trkpt lat="45.98412" lon="6.63271">
        <ele>535</ele>
        <time>2019-04-17T11:23:05Z</time>
      </trkpt>
      <trkpt lat="45.98346" lon="6.63294">
        <ele>540</ele>
        <time>2019-04-17T11:24:05Z</time>
      </trkpt>
      <trkpt lat="45.98315" lon="6.63309">
        <ele>541</ele>
        <time>2019-04-17T11:25:05Z</time>
      </trkpt>
      <trkpt lat="45.98154" lon="6.63413">
        <ele>541</ele>
        <time>2019-04-17T11:26:05Z</time>
      </trkpt>
      <trkpt lat="45.9814" lon="6.63425">
        <ele>540</ele>
        <time>2019-04-17T11:27:05Z</time>
      </trkpt>
      <trkpt lat="45.98121" lon="6.63437">
        <ele>539</ele>
        <time>2019-04-17T11:28:05Z</time>
      </trkpt>
      <trkpt lat="45.98068" lon="6.63488">
        <ele>537</ele>
        <time>2019-04-17T11:29:05Z</time>
      </trkpt>
      <trkpt lat="45.9801" lon="6.6355">
        <ele>533</ele>
        <time>2019-04-17T11:30:05Z</time>
      </trkpt>
      <trkpt lat="45.97982" lon="6.63577">
        <ele>531</ele>
        <time>2019-04-17T11:31:05Z</time>
      </trkpt>
      <trkpt lat="45.97859" lon="6.63704">
        <ele>524</ele>
        <time>2019-04-17T11:32:05Z</time>
      </trkpt>
      <trkpt lat="45.97822" lon="6.63731">
        <ele>523</ele>
        <time>2019-04-17T11:33:05Z</time>
      </trkpt>
      <trkpt lat="45.97803" lon="6.63742">
        <ele>523</ele>
        <time>2019-04-17T11:34:05Z</time>
      </trkpt>
      <trkpt lat="45.97599" lon="6.63821">
        <ele>532</ele>
        <time>2019-04-17T11:35:05Z</time>
      </trkpt>
      <trkpt lat="45.97528" lon="6.6385">
        <ele>528</ele>
        <time>2019-04-17T11:36:05Z</time>
      </trkpt>
      <trkpt lat="45.97471" lon="6.63868">
        <ele>526</ele>
        <time>2019-04-17T11:37:05Z</time>
      </trkpt>
      <trkpt lat="45.97438" lon="6.63872">
        <ele>526</ele>
        <time>2019-04-17T11:38:05Z</time>
      </trkpt>
      <trkpt lat="45.9739" lon="6.63864">
        <ele>527</ele>
        <time>2019-04-17T11:39:05Z</time>
      </trkpt>
      <trkpt lat="45.97359" lon="6.63856">
        <ele>527</ele>
        <time>2019-04-17T11:40:05Z</time>
      </trkpt>
      <trkpt lat="45.9675" lon="6.6366">
        <ele>547</ele>
        <time>2019-04-17T11:41:05Z</time>
      </trkpt>
      <trkpt lat="45.96665" lon="6.63637">
        <ele>551</ele>
        <time>2019-04-17T11:42:05Z</time>
      </trkpt>
      <trkpt lat="45.96639" lon="6.63637">
        <ele>551</ele>
        <time>2019-04-17T11:43:05Z</time>
      </trkpt>
      <trkpt lat="45.96327" lon="6.63709">
        <ele>541</ele>
        <time>2019-04-17T11:44:05Z</time>
      </trkpt>
      <trkpt lat="45.96169" lon="6.63777">
        <ele>536</ele>
        <time>2019-04-17T11:45:05Z</time>
      </trkpt>
      <trkpt lat="45.96079" lon="6.63851">
        <ele>549</ele>
        <time>2019-04-17T11:46:05Z</time>
      </trkpt>
      <trkpt lat="45.95752" lon="6.63946">
        <ele>551</ele>
        <time>2019-04-17T11:47:05Z</time>
      </trkpt>
      <trkpt lat="45.95688" lon="6.63955">
        <ele>548</ele>
        <time>2019-04-17T11:48:05Z</time>
      </trkpt>
      <trkpt lat="45.95591" lon="6.63955">
        <ele>542</ele>
        <time>2019-04-17T11:49:05Z</time>
      </trkpt>
      <trkpt lat="45.95562" lon="6.6393">
        <ele>538</ele>
        <time>2019-04-17T11:50:05Z</time>
      </trkpt>
      <trkpt lat="45.95452" lon="6.63939">
        <ele>539</ele>
        <time>2019-04-17T11:51:05Z</time>
      </trkpt>
      <trkpt lat="45.94971" lon="6.64156">
        <ele>538</ele>
        <time>2019-04-17T11:52:05Z</time>
      </trkpt>
      <trkpt lat="45.94707" lon="6.64151">
        <ele>539</ele>
        <time>2019-04-17T11:53:05Z</time>
      </trkpt>
      <trkpt lat="45.94588" lon="6.64162">
        <ele>542</ele>
        <time>2019-04-17T11:54:05Z</time>
      </trkpt>
      <trkpt lat="45.94366" lon="6.64176">
        <ele>545</ele>
        <time>2019-04-17T11:55:05Z</time>
      </trkpt>
      <trkpt lat="45.94296" lon="6.64185">
        <ele>548</ele>
        <time>2019-04-17T11:56:05Z</time>
      </trkpt>
      <trkpt lat="45.94278" lon="6.64183">
        <ele>548</ele>
        <time>2019-04-17T11:57:05Z</time>
      </trkpt>
      <trkpt lat="45.94216" lon="6.64193">
        <ele>548</ele>
        <time>2019-04-17T11:58:05Z</time>
      </trkpt>
      <trkpt lat="45.94137" lon="6.64218">
        <ele>545</ele>
        <time>2019-04-17T11:59:05Z</time>
      </trkpt>
      <trkpt lat="45.94088" lon="6.64231">
        <ele>544</ele>
        <time>2019-04-17T12:00:05Z</time>
      </trkpt>
      <trkpt lat="45.94045" lon="6.64238">
        <ele>543</ele>
        <time>2019-04-17T12:01:05Z</time>
      </trkpt>
      <trkpt lat="45.94033" lon="6.64243">
        <ele>543</ele>
        <time>2019-04-17T12:02:05Z</time>
      </trkpt>
      <trkpt lat="45.93979" lon="6.64299">
        <ele>544</ele>
        <time>2019-04-17T12:03:05Z</time>
      </trkpt>
      <trkpt lat="45.93966" lon="6.64316">
        <ele>544</ele>
        <time>2019-04-17T12:04:05Z</time>
      </trkpt>
      <trkpt lat="45.93955" lon="6.64342">
        <ele>545</ele>
        <time>2019-04-17T12:05:05Z</time>
      </trkpt>
      <trkpt lat="45.93946" lon="6.64377">
        <ele>545</ele>
        <time>2019-04-17T12:06:05Z</time>
      </trkpt>
      <trkpt lat="45.9394" lon="6.64393">
        <ele>545</ele>
        <time>2019-04-17T12:07:05Z</time>
      </trkpt>
      <trkpt lat="45.93919" lon="6.64426">
        <ele>544</ele>
        <time>2019-04-17T12:08:05Z</time>
      </trkpt>
      <trkpt lat="45.93905" lon="6.64443">
        <ele>544</ele>
        <time>2019-04-17T12:09:05Z</time>
      </trkpt>
      <trkpt lat="45.93892" lon="6.6445">
        <ele>543</ele>
        <time>2019-04-17T12:10:05Z</time>
      </trkpt>
      <trkpt lat="45.93883" lon="6.64452">
        <ele>543</ele>
        <time>2019-04-17T12:11:05Z</time>
      </trkpt>
      <trkpt lat="45.93874" lon="6.64442">
        <ele>543</ele>
        <time>2019-04-17T12:12:05Z</time>
      </trkpt>
      <trkpt lat="45.93858" lon="6.64432">
        <ele>542</ele>
        <time>2019-04-17T12:13:05Z</time>
      </trkpt>
      <trkpt lat="45.93852" lon="6.64448">
        <ele>542</ele>
        <time>2019-04-17T12:14:05Z</time>
      </trkpt>
      <trkpt lat="45.93836" lon="6.64478">
        <ele>541</ele>
        <time>2019-04-17T12:15:05Z</time>
      </trkpt>
      <trkpt lat="45.93817" lon="6.64501">
        <ele>541</ele>
        <time>2019-04-17T12:16:05Z</time>
      </trkpt>
      <trkpt lat="45.93775" lon="6.64538">
        <ele>543</ele>
        <time>2019-04-17T12:17:05Z</time>
      </trkpt>
      <trkpt lat="45.93733" lon="6.64583">
        <ele>544</ele>
        <time>2019-04-17T12:18:05Z</time>
      </trkpt>
      <trkpt lat="45.93414" lon="6.64968">
        <ele>546</ele>
        <time>2019-04-17T12:19:05Z</time>
      </trkpt>
      <trkpt lat="45.93236" lon="6.65179">
        <ele>547</ele>
        <time>2019-04-17T12:20:05Z</time>
      </trkpt>
      <trkpt lat="45.93021" lon="6.65386">
        <ele>555</ele>
        <time>2019-04-17T12:21:05Z</time>
      </trkpt>
      <trkpt lat="45.93012" lon="6.65393">
        <ele>556</ele>
        <time>2019-04-17T12:22:05Z</time>
      </trkpt>
      <trkpt lat="45.92962" lon="6.6544">
        <ele>557</ele>
        <time>2019-04-17T12:23:05Z</time>
      </trkpt>
      <trkpt lat="45.92942" lon="6.65456">
        <ele>557</ele>
        <time>2019-04-17T12:24:05Z</time>
      </trkpt>
      <trkpt lat="45.92924" lon="6.6548">
        <ele>558</ele>
        <time>2019-04-17T12:25:05Z</time>
      </trkpt>
      <trkpt lat="45.92916" lon="6.65485">
        <ele>559</ele>
        <time>2019-04-17T12:26:05Z</time>
      </trkpt>
      <trkpt lat="45.92911" lon="6.65486">
        <ele>559</ele>
        <time>2019-04-17T12:27:05Z</time>
      </trkpt>
      <trkpt lat="45.92904" lon="6.65493">
        <ele>559</ele>
        <time>2019-04-17T12:28:05Z</time>
      </trkpt>
      <trkpt lat="45.92902" lon="6.65505">
        <ele>559</ele>
        <time>2019-04-17T12:29:05Z</time>
      </trkpt>
      <trkpt lat="45.92903" lon="6.6551">
        <ele>560</ele>
        <time>2019-04-17T12:30:05Z</time>
      </trkpt>
      <trkpt lat="45.92905" lon="6.65515">
        <ele>560</ele>
        <time>2019-04-17T12:31:05Z</time>
      </trkpt>
      <trkpt lat="45.92913" lon="6.6552">
        <ele>561</ele>
        <time>2019-04-17T12:32:05Z</time>
      </trkpt>
      <trkpt lat="45.92917" lon="6.65531">
        <ele>561</ele>
        <time>2019-04-17T12:33:05Z</time>
      </trkpt>
      <trkpt lat="45.92918" lon="6.6554">
        <ele>561</ele>
        <time>2019-04-17T12:34:05Z</time>
      </trkpt>
      <trkpt lat="45.92914" lon="6.656">
        <ele>563</ele>
        <time>2019-04-17T12:35:05Z</time>
      </trkpt>
      <trkpt lat="45.92899" lon="6.65702">
        <ele>568</ele>
        <time>2019-04-17T12:36:05Z</time>
      </trkpt>
      <trkpt lat="45.92894" lon="6.65728">
        <ele>570</ele>
        <time>2019-04-17T12:37:05Z</time>
      </trkpt>
      <trkpt lat="45.92885" lon="6.65755">
        <ele>572</ele>
        <time>2019-04-17T12:38:05Z</time>
      </trkpt>
      <trkpt lat="45.92871" lon="6.65777">
        <ele>574</ele>
        <time>2019-04-17T12:39:05Z</time>
      </trkpt>
      <trkpt lat="45.92832" lon="6.65822">
        <ele>576</ele>
        <time>2019-04-17T12:40:05Z</time>
      </trkpt>
      <trkpt lat="45.92817" lon="6.65838">
        <ele>578</ele>
        <time>2019-04-17T12:41:05Z</time>
      </trkpt>
      <trkpt lat="45.92789" lon="6.65861">
        <ele>580</ele>
        <time>2019-04-17T12:42:05Z</time>
      </trkpt>
      <trkpt lat="45.92774" lon="6.65881">
        <ele>581</ele>
        <time>2019-04-17T12:43:05Z</time>
      </trkpt>
      <trkpt lat="45.92756" lon="6.65929">
        <ele>583</ele>
        <time>2019-04-17T12:44:05Z</time>
      </trkpt>
      <trkpt lat="45.92738" lon="6.65964">
        <ele>583</ele>
        <time>2019-04-17T12:45:05Z</time>
      </trkpt>
      <trkpt lat="45.92702" lon="6.66025">
        <ele>585</ele>
        <time>2019-04-17T12:46:05Z</time>
      </trkpt>
      <trkpt lat="45.92683" lon="6.66064">
        <ele>588</ele>
        <time>2019-04-17T12:47:05Z</time>
      </trkpt>
      <trkpt lat="45.92679" lon="6.66079">
        <ele>590</ele>
        <time>2019-04-17T12:48:05Z</time>
      </trkpt>
      <trkpt lat="45.92677" lon="6.66106">
        <ele>592</ele>
        <time>2019-04-17T12:49:05Z</time>
      </trkpt>
      <trkpt lat="45.92679" lon="6.66166">
        <ele>597</ele>
        <time>2019-04-17T12:50:05Z</time>
      </trkpt>
      <trkpt lat="45.92678" lon="6.6624">
        <ele>598</ele>
        <time>2019-04-17T12:51:05Z</time>
      </trkpt>
      <trkpt lat="45.92677" lon="6.66258">
        <ele>599</ele>
        <time>2019-04-17T12:52:05Z</time>
      </trkpt>
      <trkpt lat="45.92673" lon="6.66279">
        <ele>599</ele>
        <time>2019-04-17T12:53:05Z</time>
      </trkpt>
      <trkpt lat="45.9266" lon="6.66316">
        <ele>599</ele>
        <time>2019-04-17T12:54:05Z</time>
      </trkpt>
      <trkpt lat="45.92619" lon="6.66398">
        <ele>602</ele>
        <time>2019-04-17T12:55:05Z</time>
      </trkpt>
      <trkpt lat="45.92611" lon="6.66425">
        <ele>603</ele>
        <time>2019-04-17T12:56:05Z</time>
      </trkpt>
      <trkpt lat="45.92614" lon="6.66476">
        <ele>607</ele>
        <time>2019-04-17T12:57:05Z</time>
      </trkpt>
      <trkpt lat="45.92623" lon="6.66514">
        <ele>610</ele>
        <time>2019-04-17T12:58:05Z</time>
      </trkpt>
      <trkpt lat="45.92629" lon="6.66528">
        <ele>612</ele>
        <time>2019-04-17T12:59:05Z</time>
      </trkpt>
      <trkpt lat="45.92646" lon="6.66557">
        <ele>615</ele>
        <time>2019-04-17T13:00:05Z</time>
      </trkpt>
      <trkpt lat="45.92651" lon="6.66572">
        <ele>617</ele>
        <time>2019-04-17T13:01:05Z</time>
      </trkpt>
      <trkpt lat="45.92652" lon="6.66585">
        <ele>617</ele>
        <time>2019-04-17T13:02:05Z</time>
      </trkpt>
      <trkpt lat="45.92648" lon="6.66603">
        <ele>619</ele>
        <time>2019-04-17T13:03:05Z</time>
      </trkpt>
      <trkpt lat="45.92644" lon="6.66613">
        <ele>619</ele>
        <time>2019-04-17T13:04:05Z</time>
      </trkpt>
      <trkpt lat="45.92638" lon="6.66622">
        <ele>619</ele>
        <time>2019-04-17T13:05:05Z</time>
      </trkpt>
      <trkpt lat="45.9263" lon="6.66634">
        <ele>619</ele>
        <time>2019-04-17T13:06:05Z</time>
      </trkpt>
      <trkpt lat="45.92622" lon="6.6664">
        <ele>619</ele>
        <time>2019-04-17T13:07:05Z</time>
      </trkpt>
      <trkpt lat="45.92595" lon="6.66659">
        <ele>617</ele>
        <time>2019-04-17T13:08:05Z</time>
      </trkpt>
      <trkpt lat="45.92553" lon="6.66679">
        <ele>615</ele>
        <time>2019-04-17T13:09:05Z</time>
      </trkpt>
      <trkpt lat="45.92539" lon="6.66692">
        <ele>616</ele>
        <time>2019-04-17T13:10:05Z</time>
      </trkpt>
      <trkpt lat="45.92531" lon="6.66706">
        <ele>618</ele>
        <time>2019-04-17T13:11:05Z</time>
      </trkpt>
      <trkpt lat="45.92503" lon="6.66767">
        <ele>623</ele>
        <time>2019-04-17T13:12:05Z</time>
      </trkpt>
      <trkpt lat="45.92467" lon="6.66828">
        <ele>623</ele>
        <time>2019-04-17T13:13:05Z</time>
      </trkpt>
      <trkpt lat="45.92459" lon="6.66854">
        <ele>624</ele>
        <time>2019-04-17T13:14:05Z</time>
      </trkpt>
      <trkpt lat="45.92445" lon="6.66962">
        <ele>638</ele>
        <time>2019-04-17T13:15:05Z</time>
      </trkpt>
      <trkpt lat="45.92438" lon="6.66988">
        <ele>640</ele>
        <time>2019-04-17T13:16:05Z</time>
      </trkpt>
      <trkpt lat="45.9242" lon="6.67032">
        <ele>641</ele>
        <time>2019-04-17T13:17:05Z</time>
      </trkpt>
      <trkpt lat="45.92406" lon="6.67101">
        <ele>647</ele>
        <time>2019-04-17T13:18:05Z</time>
      </trkpt>
      <trkpt lat="45.92403" lon="6.67132">
        <ele>652</ele>
        <time>2019-04-17T13:19:05Z</time>
      </trkpt>
      <trkpt lat="45.924" lon="6.67142">
        <ele>652</ele>
        <time>2019-04-17T13:20:05Z</time>
      </trkpt>
      <trkpt lat="45.92395" lon="6.67153">
        <ele>653</ele>
        <time>2019-04-17T13:21:05Z</time>
      </trkpt>
      <trkpt lat="45.92379" lon="6.67172">
        <ele>649</ele>
        <time>2019-04-17T13:22:05Z</time>
      </trkpt>
      <trkpt lat="45.92369" lon="6.67205">
        <ele>651</ele>
        <time>2019-04-17T13:23:05Z</time>
      </trkpt>
      <trkpt lat="45.92366" lon="6.67226">
        <ele>653</ele>
        <time>2019-04-17T13:24:05Z</time>
      </trkpt>
      <trkpt lat="45.92358" lon="6.67253">
        <ele>655</ele>
        <time>2019-04-17T13:25:05Z</time>
      </trkpt>
      <trkpt lat="45.92336" lon="6.67297">
        <ele>648</ele>
        <time>2019-04-17T13:26:05Z</time>
      </trkpt>
      <trkpt lat="45.9233" lon="6.67315">
        <ele>648</ele>
        <time>2019-04-17T13:27:05Z</time>
      </trkpt>
      <trkpt lat="45.92328" lon="6.67334">
        <ele>649</ele>
        <time>2019-04-17T13:28:05Z</time>
      </trkpt>
      <trkpt lat="45.92329" lon="6.67342">
        <ele>649</ele>
        <time>2019-04-17T13:29:05Z</time>
      </trkpt>
      <trkpt lat="45.92361" lon="6.67432">
        <ele>657</ele>
        <time>2019-04-17T13:30:05Z</time>
      </trkpt>
      <trkpt lat="45.92365" lon="6.67449">
        <ele>658</ele>
        <time>2019-04-17T13:31:05Z</time>
      </trkpt>
      <trkpt lat="45.92362" lon="6.67472">
        <ele>658</ele>
        <time>2019-04-17T13:32:05Z</time>
      </trkpt>
      <trkpt lat="45.92347" lon="6.67522">
        <ele>655</ele>
        <time>2019-04-17T13:33:05Z</time>
      </trkpt>
      <trkpt lat="45.92344" lon="6.67536">
        <ele>655</ele>
        <time>2019-04-17T13:34:05Z</time>
      </trkpt>
      <trkpt lat="45.92343" lon="6.67553">
        <ele>655</ele>
        <time>2019-04-17T13:35:05Z</time>
      </trkpt>
      <trkpt lat="45.92346" lon="6.67585">
        <ele>657</ele>
        <time>2019-04-17T13:36:05Z</time>
      </trkpt>
      <trkpt lat="45.92353" lon="6.67614">
        <ele>658</ele>
        <time>2019-04-17T13:37:05Z</time>
      </trkpt>
      <trkpt lat="45.9237" lon="6.67707">
        <ele>666</ele>
        <time>2019-04-17T13:38:05Z</time>
      </trkpt>
      <trkpt lat="45.9237" lon="6.67752">
        <ele>671</ele>
        <time>2019-04-17T13:39:05Z</time>
      </trkpt>
      <trkpt lat="45.9236" lon="6.67794">
        <ele>676</ele>
        <time>2019-04-17T13:40:05Z</time>
      </trkpt>
      <trkpt lat="45.92353" lon="6.67815">
        <ele>676</ele>
        <time>2019-04-17T13:41:05Z</time>
      </trkpt>
      <trkpt lat="45.9235" lon="6.6785">
        <ele>682</ele>
        <time>2019-04-17T13:42:05Z</time>
      </trkpt>
      <trkpt lat="45.92346" lon="6.6787">
        <ele>684</ele>
        <time>2019-04-17T13:43:05Z</time>
      </trkpt>
      <trkpt lat="45.92337" lon="6.67887">
        <ele>682</ele>
        <time>2019-04-17T13:44:05Z</time>
      </trkpt>
      <trkpt lat="45.92331" lon="6.67904">
        <ele>683</ele>
        <time>2019-04-17T13:45:05Z</time>
      </trkpt>
      <trkpt lat="45.92327" lon="6.67926">
        <ele>685</ele>
        <time>2019-04-17T13:46:05Z</time>
      </trkpt>
      <trkpt lat="45.92327" lon="6.67954">
        <ele>688</ele>
        <time>2019-04-17T13:47:05Z</time>
      </trkpt>
      <trkpt lat="45.92323" lon="6.67986">
        <ele>690</ele>
        <time>2019-04-17T13:48:05Z</time>
      </trkpt>
      <trkpt lat="45.9232" lon="6.68003">
        <ele>691</ele>
        <time>2019-04-17T13:49:05Z</time>
      </trkpt>
      <trkpt lat="45.92303" lon="6.68062">
        <ele>685</ele>
        <time>2019-04-17T13:50:05Z</time>
      </trkpt>
      <trkpt lat="45.923" lon="6.68093">
        <ele>685</ele>
        <time>2019-04-17T13:51:05Z</time>
      </trkpt>
      <trkpt lat="45.92303" lon="6.68117">
        <ele>685</ele>
        <time>2019-04-17T13:52:05Z</time>
      </trkpt>
      <trkpt lat="45.92311" lon="6.68147">
        <ele>687</ele>
        <time>2019-04-17T13:53:05Z</time>
      </trkpt>
      <trkpt lat="45.92318" lon="6.682">
        <ele>690</ele>
        <time>2019-04-17T13:54:05Z</time>
      </trkpt>
      <trkpt lat="45.92317" lon="6.68231">
        <ele>692</ele>
        <time>2019-04-17T13:55:05Z</time>
      </trkpt>
      <trkpt lat="45.92309" lon="6.68253">
        <ele>691</ele>
        <time>2019-04-17T13:56:05Z</time>
      </trkpt>
      <trkpt lat="45.92291" lon="6.68275">
        <ele>687</ele>
        <time>2019-04-17T13:57:05Z</time>
      </trkpt>
      <trkpt lat="45.92284" lon="6.68295">
        <ele>686</ele>
        <time>2019-04-17T13:58:05Z</time>
      </trkpt>
      <trkpt lat="45.9228" lon="6.6832">
        <ele>686</ele>
        <time>2019-04-17T13:59:05Z</time>
      </trkpt>
      <trkpt lat="45.92277" lon="6.68359">
        <ele>688</ele>
        <time>2019-04-17T14:00:05Z</time>
      </trkpt>
      <trkpt lat="45.92279" lon="6.68375">
        <ele>689</ele>
        <time>2019-04-17T14:01:05Z</time>
      </trkpt>
      <trkpt lat="45.92302" lon="6.68458">
        <ele>696</ele>
        <time>2019-04-17T14:02:05Z</time>
      </trkpt>
      <trkpt lat="45.92303" lon="6.6847">
        <ele>696</ele>
        <time>2019-04-17T14:03:05Z</time>
      </trkpt>
      <trkpt lat="45.92304" lon="6.6851">
        <ele>694</ele>
        <time>2019-04-17T14:04:05Z</time>
      </trkpt>
      <trkpt lat="45.92309" lon="6.68527">
        <ele>694</ele>
        <time>2019-04-17T14:05:05Z</time>
      </trkpt>
      <trkpt lat="45.92355" lon="6.68606">
        <ele>697</ele>
        <time>2019-04-17T14:06:05Z</time>
      </trkpt>
      <trkpt lat="45.92355" lon="6.68632">
        <ele>696</ele>
        <time>2019-04-17T14:07:05Z</time>
      </trkpt>
      <trkpt lat="45.9235" lon="6.68747">
        <ele>692</ele>
        <time>2019-04-17T14:08:05Z</time>
      </trkpt>
      <trkpt lat="45.92342" lon="6.68811">
        <ele>688</ele>
        <time>2019-04-17T14:09:05Z</time>
      </trkpt>
      <trkpt lat="45.92343" lon="6.68833">
        <ele>688</ele>
        <time>2019-04-17T14:10:05Z</time>
      </trkpt>
      <trkpt lat="45.92351" lon="6.68887">
        <ele>688</ele>
        <time>2019-04-17T14:11:05Z</time>
      </trkpt>
      <trkpt lat="45.92368" lon="6.6894">
        <ele>692</ele>
        <time>2019-04-17T14:12:05Z</time>
      </trkpt>
      <trkpt lat="45.92396" lon="6.69066">
        <ele>697</ele>
        <time>2019-04-17T14:13:05Z</time>
      </trkpt>
      <trkpt lat="45.92397" lon="6.691">
        <ele>695</ele>
        <time>2019-04-17T14:14:05Z</time>
      </trkpt>
      <trkpt lat="45.92388" lon="6.69174">
        <ele>687</ele>
        <time>2019-04-17T14:15:05Z</time>
      </trkpt>
      <trkpt lat="45.92388" lon="6.69202">
        <ele>685</ele>
        <time>2019-04-17T14:16:05Z</time>
      </trkpt>
      <trkpt lat="45.92409" lon="6.69329">
        <ele>687</ele>
        <time>2019-04-17T14:17:05Z</time>
      </trkpt>
      <trkpt lat="45.92414" lon="6.69353">
        <ele>687</ele>
        <time>2019-04-17T14:18:05Z</time>
      </trkpt>
      <trkpt lat="45.9242" lon="6.69367">
        <ele>687</ele>
        <time>2019-04-17T14:19:05Z</time>
      </trkpt>
      <trkpt lat="45.92434" lon="6.69392">
        <ele>691</ele>
        <time>2019-04-17T14:20:05Z</time>
      </trkpt>
      <trkpt lat="45.92438" lon="6.69403">
        <ele>692</ele>
        <time>2019-04-17T14:21:05Z</time>
      </trkpt>
      <trkpt lat="45.92442" lon="6.69429">
        <ele>691</ele>
        <time>2019-04-17T14:22:05Z</time>
      </trkpt>
      <trkpt lat="45.92441" lon="6.69448">
        <ele>690</ele>
        <time>2019-04-17T14:23:05Z</time>
      </trkpt>
      <trkpt lat="45.92434" lon="6.69487">
        <ele>684</ele>
        <time>2019-04-17T14:24:05Z</time>
      </trkpt>
      <trkpt lat="45.92433" lon="6.69503">
        <ele>683</ele>
        <time>2019-04-17T14:25:05Z</time>
      </trkpt>
      <trkpt lat="45.92432" lon="6.69525">
        <ele>682</ele>
        <time>2019-04-17T14:26:05Z</time>
      </trkpt>
      <trkpt lat="45.92439" lon="6.69567">
        <ele>683</ele>
        <time>2019-04-17T14:27:05Z</time>
      </trkpt>
      <trkpt lat="45.92439" lon="6.69588">
        <ele>682</ele>
        <time>2019-04-17T14:28:05Z</time>
      </trkpt>
      <trkpt lat="45.92436" lon="6.69611">
        <ele>681</ele>
        <time>2019-04-17T14:29:05Z</time>
      </trkpt>
      <trkpt lat="45.92428" lon="6.69648">
        <ele>679</ele>
        <time>2019-04-17T14:30:05Z</time>
      </trkpt>
      <trkpt lat="45.92415" lon="6.69693">
        <ele>677</ele>
        <time>2019-04-17T14:31:05Z</time>
      </trkpt>
      <trkpt lat="45.92408" lon="6.69711">
        <ele>676</ele>
        <time>2019-04-17T14:32:05Z</time>
      </trkpt>
      <trkpt lat="45.92402" lon="6.69718">
        <ele>675</ele>
        <time>2019-04-17T14:33:05Z</time>
      </trkpt>
      <trkpt lat="45.924" lon="6.6977">
        <ele>676</ele>
        <time>2019-04-17T14:34:05Z</time>
      </trkpt>
      <trkpt lat="45.92402" lon="6.69795">
        <ele>677</ele>
        <time>2019-04-17T14:35:05Z</time>
      </trkpt>
      <trkpt lat="45.92413" lon="6.69843">
        <ele>680</ele>
        <time>2019-04-17T14:36:05Z</time>
      </trkpt>
      <trkpt lat="45.92427" lon="6.69882">
        <ele>682</ele>
        <time>2019-04-17T14:37:05Z</time>
      </trkpt>
      <trkpt lat="45.92434" lon="6.69892">
        <ele>683</ele>
        <time>2019-04-17T14:38:05Z</time>
      </trkpt>
      <trkpt lat="45.92444" lon="6.69904">
        <ele>685</ele>
        <time>2019-04-17T14:39:05Z</time>
      </trkpt>
      <trkpt lat="45.92492" lon="6.69945">
        <ele>694</ele>
        <time>2019-04-17T14:40:05Z</time>
      </trkpt>
      <trkpt lat="45.925" lon="6.69957">
        <ele>696</ele>
        <time>2019-04-17T14:41:05Z</time>
      </trkpt>
      <trkpt lat="45.92505" lon="6.69971">
        <ele>697</ele>
        <time>2019-04-17T14:42:05Z</time>
      </trkpt>
      <trkpt lat="45.92507" lon="6.69986">
        <ele>697</ele>
        <time>2019-04-17T14:43:05Z</time>
      </trkpt>
      <trkpt lat="45.92505" lon="6.7003">
        <ele>695</ele>
        <time>2019-04-17T14:44:05Z</time>
      </trkpt>
      <trkpt lat="45.92506" lon="6.7007">
        <ele>695</ele>
        <time>2019-04-17T14:45:05Z</time>
      </trkpt>
      <trkpt lat="45.92511" lon="6.70109">
        <ele>697</ele>
        <time>2019-04-17T14:46:05Z</time>
      </trkpt>
      <trkpt lat="45.92517" lon="6.70136">
        <ele>699</ele>
        <time>2019-04-17T14:47:05Z</time>
      </trkpt>
      <trkpt lat="45.92535" lon="6.70197">
        <ele>702</ele>
        <time>2019-04-17T14:48:05Z</time>
      </trkpt>
      <trkpt lat="45.92542" lon="6.70233">
        <ele>701</ele>
        <time>2019-04-17T14:49:05Z</time>
      </trkpt>
      <trkpt lat="45.92555" lon="6.70284">
        <ele>701</ele>
        <time>2019-04-17T14:50:05Z</time>
      </trkpt>
      <trkpt lat="45.92567" lon="6.70348">
        <ele>700</ele>
        <time>2019-04-17T14:51:05Z</time>
      </trkpt>
      <trkpt lat="45.92572" lon="6.70365">
        <ele>701</ele>
        <time>2019-04-17T14:52:05Z</time>
      </trkpt>
      <trkpt lat="45.92614" lon="6.70423">
        <ele>708</ele>
        <time>2019-04-17T14:53:05Z</time>
      </trkpt>
      <trkpt lat="45.92619" lon="6.70441">
        <ele>708</ele>
        <time>2019-04-17T14:54:05Z</time>
      </trkpt>
      <trkpt lat="45.92622" lon="6.70468">
        <ele>706</ele>
        <time>2019-04-17T14:55:05Z</time>
      </trkpt>
      <trkpt lat="45.9263" lon="6.70496">
        <ele>705</ele>
        <time>2019-04-17T14:56:05Z</time>
      </trkpt>
      <trkpt lat="45.92641" lon="6.70523">
        <ele>705</ele>
        <time>2019-04-17T14:57:05Z</time>
      </trkpt>
      <trkpt lat="45.92653" lon="6.70545">
        <ele>707</ele>
        <time>2019-04-17T14:58:05Z</time>
      </trkpt>
      <trkpt lat="45.9268" lon="6.70571">
        <ele>711</ele>
        <time>2019-04-17T14:59:05Z</time>
      </trkpt>
      <trkpt lat="45.92691" lon="6.70585">
        <ele>713</ele>
        <time>2019-04-17T15:00:05Z</time>
      </trkpt>
      <trkpt lat="45.92706" lon="6.70619">
        <ele>716</ele>
        <time>2019-04-17T15:01:05Z</time>
      </trkpt>
      <trkpt lat="45.92728" lon="6.70674">
        <ele>721</ele>
        <time>2019-04-17T15:02:05Z</time>
      </trkpt>
      <trkpt lat="45.92747" lon="6.70763">
        <ele>720</ele>
        <time>2019-04-17T15:03:05Z</time>
      </trkpt>
      <trkpt lat="45.92754" lon="6.70792">
        <ele>719</ele>
        <time>2019-04-17T15:04:05Z</time>
      </trkpt>
      <trkpt lat="45.92764" lon="6.7082">
        <ele>719</ele>
        <time>2019-04-17T15:05:05Z</time>
      </trkpt>
      <trkpt lat="45.92805" lon="6.70905">
        <ele>730</ele>
        <time>2019-04-17T15:06:05Z</time>
      </trkpt>
      <trkpt lat="45.92832" lon="6.7099">
        <ele>735</ele>
        <time>2019-04-17T15:07:05Z</time>
      </trkpt>
      <trkpt lat="45.92862" lon="6.71088">
        <ele>736</ele>
        <time>2019-04-17T15:08:05Z</time>
      </trkpt>
      <trkpt lat="45.92888" lon="6.71156">
        <ele>738</ele>
        <time>2019-04-17T15:09:05Z</time>
      </trkpt>
      <trkpt lat="45.92911" lon="6.71188">
        <ele>740</ele>
        <time>2019-04-17T15:10:05Z</time>
      </trkpt>
      <trkpt lat="45.92943" lon="6.71253">
        <ele>737</ele>
        <time>2019-04-17T15:11:05Z</time>
      </trkpt>
      <trkpt lat="45.92988" lon="6.71288">
        <ele>743</ele>
        <time>2019-04-17T15:12:05Z</time>
      </trkpt>
      <trkpt lat="45.93025" lon="6.71328">
        <ele>741</ele>
        <time>2019-04-17T15:13:05Z</time>
      </trkpt>
      <trkpt lat="45.93072" lon="6.71357">
        <ele>745</ele>
        <time>2019-04-17T15:14:05Z</time>
      </trkpt>
      <trkpt lat="45.93081" lon="6.71365">
        <ele>746</ele>
        <time>2019-04-17T15:15:05Z</time>
      </trkpt>
      <trkpt lat="45.93096" lon="6.71383">
        <ele>747</ele>
        <time>2019-04-17T15:16:05Z</time>
      </trkpt>
      <trkpt lat="45.93141" lon="6.71451">
        <ele>750</ele>
        <time>2019-04-17T15:17:05Z</time>
      </trkpt>
      <trkpt lat="45.93151" lon="6.71474">
        <ele>750</ele>
        <time>2019-04-17T15:18:05Z</time>
      </trkpt>
      <trkpt lat="45.93158" lon="6.71497">
        <ele>749</ele>
        <time>2019-04-17T15:19:05Z</time>
      </trkpt>
      <trkpt lat="45.93159" lon="6.71521">
        <ele>750</ele>
        <time>2019-04-17T15:20:05Z</time>
      </trkpt>
      <trkpt lat="45.93156" lon="6.71585">
        <ele>752</ele>
        <time>2019-04-17T15:21:05Z</time>
      </trkpt>
      <trkpt lat="45.93156" lon="6.71621">
        <ele>749</ele>
        <time>2019-04-17T15:22:05Z</time>
      </trkpt>
      <trkpt lat="45.93161" lon="6.71637">
        <ele>749</ele>
        <time>2019-04-17T15:23:05Z</time>
      </trkpt>
      <trkpt lat="45.93169" lon="6.71647">
        <ele>750</ele>
        <time>2019-04-17T15:24:05Z</time>
      </trkpt>
      <trkpt lat="45.9318" lon="6.71656">
        <ele>750</ele>
        <time>2019-04-17T15:25:05Z</time>
      </trkpt>
      <trkpt lat="45.93243" lon="6.71701">
        <ele>754</ele>
        <time>2019-04-17T15:26:05Z</time>
      </trkpt>
      <trkpt lat="45.93249" lon="6.71709">
        <ele>754</ele>
        <time>2019-04-17T15:27:05Z</time>
      </trkpt>
      <trkpt lat="45.93252" lon="6.71716">
        <ele>754</ele>
        <time>2019-04-17T15:28:05Z</time>
      </trkpt>
      <trkpt lat="45.9326" lon="6.71757">
        <ele>753</ele>
        <time>2019-04-17T15:29:05Z</time>
      </trkpt>
      <trkpt lat="45.93307" lon="6.71897">
        <ele>740</ele>
        <time>2019-04-17T15:30:05Z</time>
      </trkpt>
      <trkpt lat="45.93314" lon="6.71909">
        <ele>741</ele>
        <time>2019-04-17T15:31:05Z</time>
      </trkpt>
      <trkpt lat="45.93351" lon="6.71932">
        <ele>756</ele>
        <time>2019-04-17T15:32:05Z</time>
      </trkpt>
      <trkpt lat="45.93357" lon="6.71941">
        <ele>756</ele>
        <time>2019-04-17T15:33:05Z</time>
      </trkpt>
      <trkpt lat="45.9337" lon="6.71974">
        <ele>752</ele>
        <time>2019-04-17T15:34:05Z</time>
      </trkpt>
      <trkpt lat="45.93391" lon="6.72015">
        <ele>753</ele>
        <time>2019-04-17T15:35:05Z</time>
      </trkpt>
      <trkpt lat="45.93411" lon="6.72034">
        <ele>760</ele>
        <time>2019-04-17T15:36:05Z</time>
      </trkpt>
      <trkpt lat="45.93431" lon="6.72045">
        <ele>766</ele>
        <time>2019-04-17T15:37:05Z</time>
      </trkpt>
      <trkpt lat="45.93436" lon="6.72055">
        <ele>766</ele>
        <time>2019-04-17T15:38:05Z</time>
      </trkpt>
      <trkpt lat="45.93441" lon="6.72071">
        <ele>765</ele>
        <time>2019-04-17T15:39:05Z</time>
      </trkpt>
      <trkpt lat="45.93443" lon="6.72088">
        <ele>763</ele>
        <time>2019-04-17T15:40:05Z</time>
      </trkpt>
      <trkpt lat="45.9344" lon="6.72151">
        <ele>755</ele>
        <time>2019-04-17T15:41:05Z</time>
      </trkpt>
      <trkpt lat="45.9344" lon="6.72182">
        <ele>753</ele>
        <time>2019-04-17T15:42:05Z</time>
      </trkpt>
      <trkpt lat="45.93445" lon="6.72197">
        <ele>755</ele>
        <time>2019-04-17T15:43:05Z</time>
      </trkpt>
      <trkpt lat="45.93453" lon="6.72214">
        <ele>757</ele>
        <time>2019-04-17T15:44:05Z</time>
      </trkpt>
      <trkpt lat="45.93485" lon="6.72267">
        <ele>767</ele>
        <time>2019-04-17T15:45:05Z</time>
      </trkpt>
      <trkpt lat="45.93488" lon="6.72282">
        <ele>766</ele>
        <time>2019-04-17T15:46:05Z</time>
      </trkpt>
      <trkpt lat="45.93493" lon="6.72332">
        <ele>764</ele>
        <time>2019-04-17T15:47:05Z</time>
      </trkpt>
      <trkpt lat="45.935" lon="6.72377">
        <ele>768</ele>
        <time>2019-04-17T15:48:05Z</time>
      </trkpt>
      <trkpt lat="45.93499" lon="6.72392">
        <ele>768</ele>
        <time>2019-04-17T15:49:05Z</time>
      </trkpt>
      <trkpt lat="45.93489" lon="6.72432">
        <ele>766</ele>
        <time>2019-04-17T15:50:05Z</time>
      </trkpt>
      <trkpt lat="45.9348" lon="6.72522">
        <ele>767</ele>
        <time>2019-04-17T15:51:05Z</time>
      </trkpt>
      <trkpt lat="45.9348" lon="6.72545">
        <ele>768</ele>
        <time>2019-04-17T15:52:05Z</time>
      </trkpt>
      <trkpt lat="45.9349" lon="6.72614">
        <ele>776</ele>
        <time>2019-04-17T15:53:05Z</time>
      </trkpt>
      <trkpt lat="45.93488" lon="6.72627">
        <ele>776</ele>
        <time>2019-04-17T15:54:05Z</time>
      </trkpt>
      <trkpt lat="45.93483" lon="6.72644">
        <ele>775</ele>
        <time>2019-04-17T15:55:05Z</time>
      </trkpt>
      <trkpt lat="45.93475" lon="6.72659">
        <ele>774</ele>
        <time>2019-04-17T15:56:05Z</time>
      </trkpt>
      <trkpt lat="45.93451" lon="6.72699">
        <ele>774</ele>
        <time>2019-04-17T15:57:05Z</time>
      </trkpt>
      <trkpt lat="45.93426" lon="6.72745">
        <ele>777</ele>
        <time>2019-04-17T15:58:05Z</time>
      </trkpt>
      <trkpt lat="45.93407" lon="6.72774">
        <ele>773</ele>
        <time>2019-04-17T15:59:05Z</time>
      </trkpt>
      <trkpt lat="45.93402" lon="6.72798">
        <ele>773</ele>
        <time>2019-04-17T16:00:05Z</time>
      </trkpt>
      <trkpt lat="45.93403" lon="6.72809">
        <ele>774</ele>
        <time>2019-04-17T16:01:05Z</time>
      </trkpt>
      <trkpt lat="45.93408" lon="6.72827">
        <ele>776</ele>
        <time>2019-04-17T16:02:05Z</time>
      </trkpt>
      <trkpt lat="45.93415" lon="6.7284">
        <ele>778</ele>
        <time>2019-04-17T16:03:05Z</time>
      </trkpt>
      <trkpt lat="45.93426" lon="6.72848">
        <ele>779</ele>
        <time>2019-04-17T16:04:05Z</time>
      </trkpt>
      <trkpt lat="45.93471" lon="6.72864">
        <ele>786</ele>
        <time>2019-04-17T16:05:05Z</time>
      </trkpt>
      <trkpt lat="45.93479" lon="6.72871">
        <ele>787</ele>
        <time>2019-04-17T16:06:05Z</time>
      </trkpt>
      <trkpt lat="45.93486" lon="6.72882">
        <ele>787</ele>
        <time>2019-04-17T16:07:05Z</time>
      </trkpt>
      <trkpt lat="45.93492" lon="6.72902">
        <ele>786</ele>
        <time>2019-04-17T16:08:05Z</time>
      </trkpt>
      <trkpt lat="45.93488" lon="6.72944">
        <ele>782</ele>
        <time>2019-04-17T16:09:05Z</time>
      </trkpt>
      <trkpt lat="45.93488" lon="6.72963">
        <ele>781</ele>
        <time>2019-04-17T16:10:05Z</time>
      </trkpt>
      <trkpt lat="45.93491" lon="6.72973">
        <ele>781</ele>
        <time>2019-04-17T16:11:05Z</time>
      </trkpt>
      <trkpt lat="45.93496" lon="6.72982">
        <ele>782</ele>
        <time>2019-04-17T16:12:05Z</time>
      </trkpt>
      <trkpt lat="45.93505" lon="6.72992">
        <ele>784</ele>
        <time>2019-04-17T16:13:05Z</time>
      </trkpt>
      <trkpt lat="45.93528" lon="6.7301">
        <ele>787</ele>
        <time>2019-04-17T16:14:05Z</time>
      </trkpt>
      <trkpt lat="45.93553" lon="6.73027">
        <ele>790</ele>
        <time>2019-04-17T16:15:05Z</time>
      </trkpt>
      <trkpt lat="45.93574" lon="6.73031">
        <ele>794</ele>
        <time>2019-04-17T16:16:05Z</time>
      </trkpt>
      <trkpt lat="45.936" lon="6.73032">
        <ele>799</ele>
        <time>2019-04-17T16:17:05Z</time>
      </trkpt>
      <trkpt lat="45.93652" lon="6.73023">
        <ele>812</ele>
        <time>2019-04-17T16:18:05Z</time>
      </trkpt>
      <trkpt lat="45.93669" lon="6.73028">
        <ele>815</ele>
        <time>2019-04-17T16:19:05Z</time>
      </trkpt>
      <trkpt lat="45.93678" lon="6.73037">
        <ele>814</ele>
        <time>2019-04-17T16:20:05Z</time>
      </trkpt>
      <trkpt lat="45.93685" lon="6.73049">
        <ele>813</ele>
        <time>2019-04-17T16:21:05Z</time>
      </trkpt>
      <trkpt lat="45.93697" lon="6.73099">
        <ele>804</ele>
        <time>2019-04-17T16:22:05Z</time>
      </trkpt>
      <trkpt lat="45.93709" lon="6.73125">
        <ele>803</ele>
        <time>2019-04-17T16:23:05Z</time>
      </trkpt>
      <trkpt lat="45.93732" lon="6.73168">
        <ele>801</ele>
        <time>2019-04-17T16:24:05Z</time>
      </trkpt>
      <trkpt lat="45.93765" lon="6.73224">
        <ele>801</ele>
        <time>2019-04-17T16:25:05Z</time>
      </trkpt>
      <trkpt lat="45.93816" lon="6.73305">
        <ele>807</ele>
        <time>2019-04-17T16:26:05Z</time>
      </trkpt>
      <trkpt lat="45.93825" lon="6.73321">
        <ele>810</ele>
        <time>2019-04-17T16:27:05Z</time>
      </trkpt>
      <trkpt lat="45.93829" lon="6.73345">
        <ele>814</ele>
        <time>2019-04-17T16:28:05Z</time>
      </trkpt>
      <trkpt lat="45.93828" lon="6.7336">
        <ele>817</ele>
        <time>2019-04-17T16:29:05Z</time>
      </trkpt>
      <trkpt lat="45.93823" lon="6.73375">
        <ele>820</ele>
        <time>2019-04-17T16:30:05Z</time>
      </trkpt>
      <trkpt lat="45.93808" lon="6.73405">
        <ele>823</ele>
        <time>2019-04-17T16:31:05Z</time>
      </trkpt>
      <trkpt lat="45.93805" lon="6.73423">
        <ele>826</ele>
        <time>2019-04-17T16:32:05Z</time>
      </trkpt>
      <trkpt lat="45.93806" lon="6.73449">
        <ele>831</ele>
        <time>2019-04-17T16:33:05Z</time>
      </trkpt>
      <trkpt lat="45.93803" lon="6.73467">
        <ele>833</ele>
        <time>2019-04-17T16:34:05Z</time>
      </trkpt>
      <trkpt lat="45.93788" lon="6.7349">
        <ele>833</ele>
        <time>2019-04-17T16:35:05Z</time>
      </trkpt>
      <trkpt lat="45.93754" lon="6.73534">
        <ele>831</ele>
        <time>2019-04-17T16:36:05Z</time>
      </trkpt>
      <trkpt lat="45.93746" lon="6.73566">
        <ele>834</ele>
        <time>2019-04-17T16:37:05Z</time>
      </trkpt>
      <trkpt lat="45.9375" lon="6.73633">
        <ele>840</ele>
        <time>2019-04-17T16:38:05Z</time>
      </trkpt>
      <trkpt lat="45.93771" lon="6.73707">
        <ele>843</ele>
        <time>2019-04-17T16:39:05Z</time>
      </trkpt>
      <trkpt lat="45.93784" lon="6.73765">
        <ele>843</ele>
        <time>2019-04-17T16:40:05Z</time>
      </trkpt>
      <trkpt lat="45.93795" lon="6.73801">
        <ele>844</ele>
        <time>2019-04-17T16:41:05Z</time>
      </trkpt>
      <trkpt lat="45.93802" lon="6.73836">
        <ele>843</ele>
        <time>2019-04-17T16:42:05Z</time>
      </trkpt>
      <trkpt lat="45.93821" lon="6.73903">
        <ele>843</ele>
        <time>2019-04-17T16:43:05Z</time>
      </trkpt>
      <trkpt lat="45.93837" lon="6.73928">
        <ele>847</ele>
        <time>2019-04-17T16:44:05Z</time>
      </trkpt>
      <trkpt lat="45.93876" lon="6.73985">
        <ele>858</ele>
        <time>2019-04-17T16:45:05Z</time>
      </trkpt>
      <trkpt lat="45.93885" lon="6.74004">
        <ele>860</ele>
        <time>2019-04-17T16:46:05Z</time>
      </trkpt>
      <trkpt lat="45.93908" lon="6.74088">
        <ele>862</ele>
        <time>2019-04-17T16:47:05Z</time>
      </trkpt>
      <trkpt lat="45.9391" lon="6.74102">
        <ele>863</ele>
        <time>2019-04-17T16:48:05Z</time>
      </trkpt>
      <trkpt lat="45.93907" lon="6.74137">
        <ele>865</ele>
        <time>2019-04-17T16:49:05Z</time>
      </trkpt>
      <trkpt lat="45.93903" lon="6.7415">
        <ele>865</ele>
        <time>2019-04-17T16:50:05Z</time>
      </trkpt>
      <trkpt lat="45.93889" lon="6.74172">
        <ele>865</ele>
        <time>2019-04-17T16:51:05Z</time>
      </trkpt>
      <trkpt lat="45.93845" lon="6.74216">
        <ele>865</ele>
        <time>2019-04-17T16:52:05Z</time>
      </trkpt>
      <trkpt lat="45.93795" lon="6.74276">
        <ele>867</ele>
        <time>2019-04-17T16:53:05Z</time>
      </trkpt>
      <trkpt lat="45.93714" lon="6.7433">
        <ele>860</ele>
        <time>2019-04-17T16:54:05Z</time>
      </trkpt>
      <trkpt lat="45.93688" lon="6.74351">
        <ele>859</ele>
        <time>2019-04-17T16:55:05Z</time>
      </trkpt>
      <trkpt lat="45.93674" lon="6.74375">
        <ele>860</ele>
        <time>2019-04-17T16:56:05Z</time>
      </trkpt>
      <trkpt lat="45.93662" lon="6.74402">
        <ele>863</ele>
        <time>2019-04-17T16:57:05Z</time>
      </trkpt>
      <trkpt lat="45.93639" lon="6.74496">
        <ele>865</ele>
        <time>2019-04-17T16:58:05Z</time>
      </trkpt>
      <trkpt lat="45.93635" lon="6.7452">
        <ele>867</ele>
        <time>2019-04-17T16:59:05Z</time>
      </trkpt>
      <trkpt lat="45.93635" lon="6.74595">
        <ele>874</ele>
        <time>2019-04-17T17:00:05Z</time>
      </trkpt>
      <trkpt lat="45.93631" lon="6.74612">
        <ele>876</ele>
        <time>2019-04-17T17:01:05Z</time>
      </trkpt>
      <trkpt lat="45.93622" lon="6.74625">
        <ele>875</ele>
        <time>2019-04-17T17:02:05Z</time>
      </trkpt>
      <trkpt lat="45.93584" lon="6.74631">
        <ele>866</ele>
        <time>2019-04-17T17:03:05Z</time>
      </trkpt>
      <trkpt lat="45.93555" lon="6.74648">
        <ele>861</ele>
        <time>2019-04-17T17:04:05Z</time>
      </trkpt>
      <trkpt lat="45.93541" lon="6.74663">
        <ele>860</ele>
        <time>2019-04-17T17:05:05Z</time>
      </trkpt>
      <trkpt lat="45.93516" lon="6.74731">
        <ele>858</ele>
        <time>2019-04-17T17:06:05Z</time>
      </trkpt>
      <trkpt lat="45.93511" lon="6.74746">
        <ele>857</ele>
        <time>2019-04-17T17:07:05Z</time>
      </trkpt>
      <trkpt lat="45.93509" lon="6.74794">
        <ele>862</ele>
        <time>2019-04-17T17:08:05Z</time>
      </trkpt>
      <trkpt lat="45.93505" lon="6.74805">
        <ele>862</ele>
        <time>2019-04-17T17:09:05Z</time>
      </trkpt>
      <trkpt lat="45.93497" lon="6.74816">
        <ele>861</ele>
        <time>2019-04-17T17:10:05Z</time>
      </trkpt>
      <trkpt lat="45.93467" lon="6.74834">
        <ele>855</ele>
        <time>2019-04-17T17:11:05Z</time>
      </trkpt>
      <trkpt lat="45.93455" lon="6.74847">
        <ele>854</ele>
        <time>2019-04-17T17:12:05Z</time>
      </trkpt>
      <trkpt lat="45.9344" lon="6.74892">
        <ele>856</ele>
        <time>2019-04-17T17:13:05Z</time>
      </trkpt>
      <trkpt lat="45.93432" lon="6.74907">
        <ele>857</ele>
        <time>2019-04-17T17:14:05Z</time>
      </trkpt>
      <trkpt lat="45.93421" lon="6.7492">
        <ele>856</ele>
        <time>2019-04-17T17:15:05Z</time>
      </trkpt>
      <trkpt lat="45.93404" lon="6.74928">
        <ele>853</ele>
        <time>2019-04-17T17:16:05Z</time>
      </trkpt>
      <trkpt lat="45.93373" lon="6.74934">
        <ele>848</ele>
        <time>2019-04-17T17:17:05Z</time>
      </trkpt>
      <trkpt lat="45.93352" lon="6.74948">
        <ele>845</ele>
        <time>2019-04-17T17:18:05Z</time>
      </trkpt>
      <trkpt lat="45.9333" lon="6.74985">
        <ele>846</ele>
        <time>2019-04-17T17:19:05Z</time>
      </trkpt>
      <trkpt lat="45.93311" lon="6.75004">
        <ele>846</ele>
        <time>2019-04-17T17:20:05Z</time>
      </trkpt>
      <trkpt lat="45.93285" lon="6.75026">
        <ele>846</ele>
        <time>2019-04-17T17:21:05Z</time>
      </trkpt>
      <trkpt lat="45.93259" lon="6.75057">
        <ele>845</ele>
        <time>2019-04-17T17:22:05Z</time>
      </trkpt>
      <trkpt lat="45.93249" lon="6.75074">
        <ele>845</ele>
        <time>2019-04-17T17:23:05Z</time>
      </trkpt>
      <trkpt lat="45.93245" lon="6.75085">
        <ele>845</ele>
        <time>2019-04-17T17:24:05Z</time>
      </trkpt>
      <trkpt lat="45.93238" lon="6.75125">
        <ele>843</ele>
        <time>2019-04-17T17:25:05Z</time>
      </trkpt>
      <trkpt lat="45.93231" lon="6.75145">
        <ele>842</ele>
        <time>2019-04-17T17:26:05Z</time>
      </trkpt>
      <trkpt lat="45.93221" lon="6.75165">
        <ele>839</ele>
        <time>2019-04-17T17:27:05Z</time>
      </trkpt>
      <trkpt lat="45.93209" lon="6.75186">
        <ele>836</ele>
        <time>2019-04-17T17:28:05Z</time>
      </trkpt>
      <trkpt lat="45.93203" lon="6.75204">
        <ele>835</ele>
        <time>2019-04-17T17:29:05Z</time>
      </trkpt>
      <trkpt lat="45.93199" lon="6.75224">
        <ele>834</ele>
        <time>2019-04-17T17:30:05Z</time>
      </trkpt>
      <trkpt lat="45.932" lon="6.75282">
        <ele>835</ele>
        <time>2019-04-17T17:31:05Z</time>
      </trkpt>
      <trkpt lat="45.93196" lon="6.75316">
        <ele>833</ele>
        <time>2019-04-17T17:32:05Z</time>
      </trkpt>
      <trkpt lat="45.93186" lon="6.75363">
        <ele>832</ele>
        <time>2019-04-17T17:33:05Z</time>
      </trkpt>
      <trkpt lat="45.93179" lon="6.75417">
        <ele>832</ele>
        <time>2019-04-17T17:34:05Z</time>
      </trkpt>
      <trkpt lat="45.93182" lon="6.75471">
        <ele>835</ele>
        <time>2019-04-17T17:35:05Z</time>
      </trkpt>
      <trkpt lat="45.93179" lon="6.75513">
        <ele>834</ele>
        <time>2019-04-17T17:36:05Z</time>
      </trkpt>
      <trkpt lat="45.93163" lon="6.75562">
        <ele>830</ele>
        <time>2019-04-17T17:37:05Z</time>
      </trkpt>
      <trkpt lat="45.93155" lon="6.7558">
        <ele>829</ele>
        <time>2019-04-17T17:38:05Z</time>
      </trkpt>
      <trkpt lat="45.93122" lon="6.75674">
        <ele>822</ele>
        <time>2019-04-17T17:39:05Z</time>
      </trkpt>
      <trkpt lat="45.93116" lon="6.75704">
        <ele>821</ele>
        <time>2019-04-17T17:40:05Z</time>
      </trkpt>
      <trkpt lat="45.93115" lon="6.75737">
        <ele>820</ele>
        <time>2019-04-17T17:41:05Z</time>
      </trkpt>
      <trkpt lat="45.93119" lon="6.75758">
        <ele>819</ele>
        <time>2019-04-17T17:42:05Z</time>
      </trkpt>
      <trkpt lat="45.9318" lon="6.75951">
        <ele>819</ele>
        <time>2019-04-17T17:43:05Z</time>
      </trkpt>
      <trkpt lat="45.93193" lon="6.75995">
        <ele>819</ele>
        <time>2019-04-17T17:44:05Z</time>
      </trkpt>
      <trkpt lat="45.93196" lon="6.76065">
        <ele>818</ele>
        <time>2019-04-17T17:45:05Z</time>
      </trkpt>
      <trkpt lat="45.93163" lon="6.7668">
        <ele>820</ele>
        <time>2019-04-17T17:46:05Z</time>
      </trkpt>
      <trkpt lat="45.93152" lon="6.76734">
        <ele>822</ele>
        <time>2019-04-17T17:47:05Z</time>
      </trkpt>
      <trkpt lat="45.93136" lon="6.76786">
        <ele>821</ele>
        <time>2019-04-17T17:48:05Z</time>
      </trkpt>
      <trkpt lat="45.93113" lon="6.7683">
        <ele>819</ele>
        <time>2019-04-17T17:49:05Z</time>
      </trkpt>
      <trkpt lat="45.93066" lon="6.76952">
        <ele>823</ele>
        <time>2019-04-17T17:50:05Z</time>
      </trkpt>
      <trkpt lat="45.93051" lon="6.76978">
        <ele>822</ele>
        <time>2019-04-17T17:51:05Z</time>
      </trkpt>
      <trkpt lat="45.93026" lon="6.77007">
        <ele>822</ele>
        <time>2019-04-17T17:52:05Z</time>
      </trkpt>
      <trkpt lat="45.92993" lon="6.77018">
        <ele>821</ele>
        <time>2019-04-17T17:53:05Z</time>
      </trkpt>
      <trkpt lat="45.92587" lon="6.77076">
        <ele>818</ele>
        <time>2019-04-17T17:54:05Z</time>
      </trkpt>
      <trkpt lat="45.92566" lon="6.77073">
        <ele>818</ele>
        <time>2019-04-17T17:55:05Z</time>
      </trkpt>
      <trkpt lat="45.92551" lon="6.77073">
        <ele>818</ele>
        <time>2019-04-17T17:56:05Z</time>
      </trkpt>
      <trkpt lat="45.9255" lon="6.77067">
        <ele>818</ele>
        <time>2019-04-17T17:57:05Z</time>
      </trkpt>
      <trkpt lat="45.92544" lon="6.7706">
        <ele>817</ele>
        <time>2019-04-17T17:58:05Z</time>
      </trkpt>
      <trkpt lat="45.9254" lon="6.7706">
        <ele>817</ele>
        <time>2019-04-17T17:59:05Z</time>
      </trkpt>
      <trkpt lat="45.92535" lon="6.77062">
        <ele>818</ele>
        <time>2019-04-17T18:00:05Z</time>
      </trkpt>
      <trkpt lat="45.92531" lon="6.77071">
        <ele>818</ele>
        <time>2019-04-17T18:01:05Z</time>
      </trkpt>
      <trkpt lat="45.92531" lon="6.77076">
        <ele>819</ele>
        <time>2019-04-17T18:02:05Z</time>
      </trkpt>
      <trkpt lat="45.92483" lon="6.77093">
        <ele>825</ele>
        <time>2019-04-17T18:03:05Z</time>
      </trkpt>
      <trkpt lat="45.92142" lon="6.77141">
        <ele>846</ele>
        <time>2019-04-17T18:04:05Z</time>
      </trkpt>
      <trkpt lat="45.92088" lon="6.77131">
        <ele>837</ele>
        <time>2019-04-17T18:05:05Z</time>
      </trkpt>
      <trkpt lat="45.92065" lon="6.7713">
        <ele>836</ele>
        <time>2019-04-17T18:06:05Z</time>
      </trkpt>
      <trkpt lat="45.92034" lon="6.77134">
        <ele>835</ele>
        <time>2019-04-17T18:07:05Z</time>
      </trkpt>
      <trkpt lat="45.91986" lon="6.77151">
        <ele>836</ele>
        <time>2019-04-17T18:08:05Z</time>
      </trkpt>
      <trkpt lat="45.91961" lon="6.77162">
        <ele>835</ele>
        <time>2019-04-17T18:09:05Z</time>
      </trkpt>
      <trkpt lat="45.91921" lon="6.77187">
        <ele>843</ele>
        <time>2019-04-17T18:10:05Z</time>
      </trkpt>
      <trkpt lat="45.91903" lon="6.77194">
        <ele>845</ele>
        <time>2019-04-17T18:11:05Z</time>
      </trkpt>
      <trkpt lat="45.91862" lon="6.77204">
        <ele>845</ele>
        <time>2019-04-17T18:12:05Z</time>
      </trkpt>
      <trkpt lat="45.91765" lon="6.77243">
        <ele>844</ele>
        <time>2019-04-17T18:13:05Z</time>
      </trkpt>
      <trkpt lat="45.91719" lon="6.77268">
        <ele>850</ele>
        <time>2019-04-17T18:14:05Z</time>
      </trkpt>
      <trkpt lat="45.9168" lon="6.77284">
        <ele>856</ele>
        <time>2019-04-17T18:15:05Z</time>
      </trkpt>
      <trkpt lat="45.91603" lon="6.77287">
        <ele>856</ele>
        <time>2019-04-17T18:16:05Z</time>
      </trkpt>
      <trkpt lat="45.91588" lon="6.77282">
        <ele>854</ele>
        <time>2019-04-17T18:17:05Z</time>
      </trkpt>
      <trkpt lat="45.91579" lon="6.77274">
        <ele>851</ele>
        <time>2019-04-17T18:18:05Z</time>
      </trkpt>
      <trkpt lat="45.91573" lon="6.77266">
        <ele>848</ele>
        <time>2019-04-17T18:19:05Z</time>
      </trkpt>
      <trkpt lat="45.91569" lon="6.77256">
        <ele>844</ele>
        <time>2019-04-17T18:20:05Z</time>
      </trkpt>
      <trkpt lat="45.91567" lon="6.77243">
        <ele>842</ele>
        <time>2019-04-17T18:21:05Z</time>
      </trkpt>
      <trkpt lat="45.91566" lon="6.77232">
        <ele>842</ele>
        <time>2019-04-17T18:22:05Z</time>
      </trkpt>
      <trkpt lat="45.9158" lon="6.771">
        <ele>852</ele>
        <time>2019-04-17T18:23:05Z</time>
      </trkpt>
      <trkpt lat="45.91579" lon="6.77081">
        <ele>855</ele>
        <time>2019-04-17T18:24:05Z</time>
      </trkpt>
      <trkpt lat="45.91575" lon="6.77064">
        <ele>858</ele>
        <time>2019-04-17T18:25:05Z</time>
      </trkpt>
      <trkpt lat="45.91568" lon="6.77053">
        <ele>860</ele>
        <time>2019-04-17T18:26:05Z</time>
      </trkpt>
      <trkpt lat="45.91553" lon="6.77038">
        <ele>862</ele>
        <time>2019-04-17T18:27:05Z</time>
      </trkpt>
      <trkpt lat="45.91544" lon="6.77033">
        <ele>863</ele>
        <time>2019-04-17T18:28:05Z</time>
      </trkpt>
      <trkpt lat="45.91529" lon="6.77031">
        <ele>863</ele>
        <time>2019-04-17T18:29:05Z</time>
      </trkpt>
      <trkpt lat="45.9151" lon="6.77037">
        <ele>863</ele>
        <time>2019-04-17T18:30:05Z</time>
      </trkpt>
      <trkpt lat="45.91502" lon="6.77042">
        <ele>863</ele>
        <time>2019-04-17T18:31:05Z</time>
      </trkpt>
      <trkpt lat="45.91495" lon="6.77052">
        <ele>864</ele>
        <time>2019-04-17T18:32:05Z</time>
      </trkpt>
      <trkpt lat="45.91485" lon="6.77085">
        <ele>865</ele>
        <time>2019-04-17T18:33:05Z</time>
      </trkpt>
      <trkpt lat="45.91478" lon="6.77101">
        <ele>865</ele>
        <time>2019-04-17T18:34:05Z</time>
      </trkpt>
      <trkpt lat="45.91428" lon="6.77186">
        <ele>862</ele>
        <time>2019-04-17T18:35:05Z</time>
      </trkpt>
      <trkpt lat="45.91402" lon="6.77242">
        <ele>858</ele>
        <time>2019-04-17T18:36:05Z</time>
      </trkpt>
      <trkpt lat="45.91398" lon="6.77247">
        <ele>858</ele>
        <time>2019-04-17T18:37:05Z</time>
      </trkpt>
      <trkpt lat="45.91393" lon="6.77249">
        <ele>858</ele>
        <time>2019-04-17T18:38:05Z</time>
      </trkpt>
      <trkpt lat="45.91385" lon="6.77248">
        <ele>859</ele>
        <time>2019-04-17T18:39:05Z</time>
      </trkpt>
      <trkpt lat="45.9138" lon="6.77245">
        <ele>860</ele>
        <time>2019-04-17T18:40:05Z</time>
      </trkpt>
      <trkpt lat="45.91376" lon="6.77235">
        <ele>861</ele>
        <time>2019-04-17T18:41:05Z</time>
      </trkpt>
      <trkpt lat="45.91375" lon="6.77222">
        <ele>863</ele>
        <time>2019-04-17T18:42:05Z</time>
      </trkpt>
      <trkpt lat="45.91378" lon="6.77211">
        <ele>863</ele>
        <time>2019-04-17T18:43:05Z</time>
      </trkpt>
      <trkpt lat="45.91412" lon="6.77186">
        <ele>863</ele>
        <time>2019-04-17T18:44:05Z</time>
      </trkpt>
      <trkpt lat="45.91423" lon="6.77172">
        <ele>864</ele>
        <time>2019-04-17T18:45:05Z</time>
      </trkpt>
      <trkpt lat="45.91471" lon="6.77089">
        <ele>867</ele>
        <time>2019-04-17T18:46:05Z</time>
      </trkpt>
      <trkpt lat="45.91478" lon="6.77073">
        <ele>866</ele>
        <time>2019-04-17T18:47:05Z</time>
      </trkpt>
      <trkpt lat="45.91483" lon="6.77049">
        <ele>865</ele>
        <time>2019-04-17T18:48:05Z</time>
      </trkpt>
      <trkpt lat="45.91489" lon="6.77033">
        <ele>865</ele>
        <time>2019-04-17T18:49:05Z</time>
      </trkpt>
      <trkpt lat="45.91509" lon="6.77">
        <ele>863</ele>
        <time>2019-04-17T18:50:05Z</time>
      </trkpt>
      <trkpt lat="45.91517" lon="6.76983">
        <ele>864</ele>
        <time>2019-04-17T18:51:05Z</time>
      </trkpt>
      <trkpt lat="45.91521" lon="6.76965">
        <ele>864</ele>
        <time>2019-04-17T18:52:05Z</time>
      </trkpt>
      <trkpt lat="45.91523" lon="6.76942">
        <ele>864</ele>
        <time>2019-04-17T18:53:05Z</time>
      </trkpt>
      <trkpt lat="45.91522" lon="6.76921">
        <ele>863</ele>
        <time>2019-04-17T18:54:05Z</time>
      </trkpt>
      <trkpt lat="45.91517" lon="6.769">
        <ele>862</ele>
        <time>2019-04-17T18:55:05Z</time>
      </trkpt>
      <trkpt lat="45.91505" lon="6.76867">
        <ele>859</ele>
        <time>2019-04-17T18:56:05Z</time>
      </trkpt>
      <trkpt lat="45.91504" lon="6.76852">
        <ele>858</ele>
        <time>2019-04-17T18:57:05Z</time>
      </trkpt>
      <trkpt lat="45.91507" lon="6.76827">
        <ele>857</ele>
        <time>2019-04-17T18:58:05Z</time>
      </trkpt>
      <trkpt lat="45.91522" lon="6.76785">
        <ele>856</ele>
        <time>2019-04-17T18:59:05Z</time>
      </trkpt>
      <trkpt lat="45.91546" lon="6.76738">
        <ele>853</ele>
        <time>2019-04-17T19:00:05Z</time>
      </trkpt>
      <trkpt lat="45.91554" lon="6.7672">
        <ele>853</ele>
        <time>2019-04-17T19:01:05Z</time>
      </trkpt>
      <trkpt lat="45.91555" lon="6.76707">
        <ele>853</ele>
        <time>2019-04-17T19:02:05Z</time>
      </trkpt>
      <trkpt lat="45.91553" lon="6.76694">
        <ele>852</ele>
        <time>2019-04-17T19:03:05Z</time>
      </trkpt>
      <trkpt lat="45.9155" lon="6.76686">
        <ele>852</ele>
        <time>2019-04-17T19:04:05Z</time>
      </trkpt>
      <trkpt lat="45.91541" lon="6.76674">
        <ele>853</ele>
        <time>2019-04-17T19:05:05Z</time>
      </trkpt>
      <trkpt lat="45.91528" lon="6.7667">
        <ele>853</ele>
        <time>2019-04-17T19:06:05Z</time>
      </trkpt>
      <trkpt lat="45.91453" lon="6.7667">
        <ele>860</ele>
        <time>2019-04-17T19:07:05Z</time>
      </trkpt>
      <trkpt lat="45.91444" lon="6.76666">
        <ele>861</ele>
        <time>2019-04-17T19:08:05Z</time>
      </trkpt>
      <trkpt lat="45.91435" lon="6.76656">
        <ele>863</ele>
        <time>2019-04-17T19:09:05Z</time>
      </trkpt>
      <trkpt lat="45.9143" lon="6.76642">
        <ele>864</ele>
        <time>2019-04-17T19:10:05Z</time>
      </trkpt>
      <trkpt lat="45.91434" lon="6.76615">
        <ele>864</ele>
        <time>2019-04-17T19:11:05Z</time>
      </trkpt>
      <trkpt lat="45.91439" lon="6.76607">
        <ele>863</ele>
        <time>2019-04-17T19:12:05Z</time>
      </trkpt>
      <trkpt lat="45.91446" lon="6.76601">
        <ele>862</ele>
        <time>2019-04-17T19:13:05Z</time>
      </trkpt>
      <trkpt lat="45.9146" lon="6.76597">
        <ele>860</ele>
        <time>2019-04-17T19:14:05Z</time>
      </trkpt>
      <trkpt lat="45.91488" lon="6.76582">
        <ele>856</ele>
        <time>2019-04-17T19:15:05Z</time>
      </trkpt>
      <trkpt lat="45.91493" lon="6.76576">
        <ele>855</ele>
        <time>2019-04-17T19:16:05Z</time>
      </trkpt>
      <trkpt lat="45.91498" lon="6.76568">
        <ele>855</ele>
        <time>2019-04-17T19:17:05Z</time>
      </trkpt>
      <trkpt lat="45.91499" lon="6.76561">
        <ele>855</ele>
        <time>2019-04-17T19:18:05Z</time>
      </trkpt>
      <trkpt lat="45.91498" lon="6.76552">
        <ele>855</ele>
        <time>2019-04-17T19:19:05Z</time>
      </trkpt>
      <trkpt lat="45.91495" lon="6.76546">
        <ele>856</ele>
        <time>2019-04-17T19:20:05Z</time>
      </trkpt>
      <trkpt lat="45.91487" lon="6.76547">
        <ele>858</ele>
        <time>2019-04-17T19:21:05Z</time>
      </trkpt>
      <trkpt lat="45.91482" lon="6.76552">
        <ele>858</ele>
        <time>2019-04-17T19:22:05Z</time>
      </trkpt>
      <trkpt lat="45.91471" lon="6.76568">
        <ele>859</ele>
        <time>2019-04-17T19:23:05Z</time>
      </trkpt>
      <trkpt lat="45.91457" lon="6.76584">
        <ele>861</ele>
        <time>2019-04-17T19:24:05Z</time>
      </trkpt>
      <trkpt lat="45.9145" lon="6.76585">
        <ele>862</ele>
        <time>2019-04-17T19:25:05Z</time>
      </trkpt>
      <trkpt lat="45.91439" lon="6.76579">
        <ele>864</ele>
        <time>2019-04-17T19:26:05Z</time>
      </trkpt>
      <trkpt lat="45.91423" lon="6.76563">
        <ele>867</ele>
        <time>2019-04-17T19:27:05Z</time>
      </trkpt>
      <trkpt lat="45.91417" lon="6.7656">
        <ele>869</ele>
        <time>2019-04-17T19:28:05Z</time>
      </trkpt>
      <trkpt lat="45.91411" lon="6.76562">
        <ele>869</ele>
        <time>2019-04-17T19:29:05Z</time>
      </trkpt>
      <trkpt lat="45.914" lon="6.76568">
        <ele>871</ele>
        <time>2019-04-17T19:30:05Z</time>
      </trkpt>
      <trkpt lat="45.91382" lon="6.76581">
        <ele>871</ele>
        <time>2019-04-17T19:31:05Z</time>
      </trkpt>
      <trkpt lat="45.91372" lon="6.76594">
        <ele>872</ele>
        <time>2019-04-17T19:32:05Z</time>
      </trkpt>
      <trkpt lat="45.91358" lon="6.76621">
        <ele>873</ele>
        <time>2019-04-17T19:33:05Z</time>
      </trkpt>
      <trkpt lat="45.91328" lon="6.76662">
        <ele>875</ele>
        <time>2019-04-17T19:34:05Z</time>
      </trkpt>
      <trkpt lat="45.9132" lon="6.76673">
        <ele>877</ele>
        <time>2019-04-17T19:35:05Z</time>
      </trkpt>
      <trkpt lat="45.9131" lon="6.76678">
        <ele>878</ele>
        <time>2019-04-17T19:36:05Z</time>
      </trkpt>
      <trkpt lat="45.91299" lon="6.76672">
        <ele>880</ele>
        <time>2019-04-17T19:37:05Z</time>
      </trkpt>
      <trkpt lat="45.91277" lon="6.76639">
        <ele>884</ele>
        <time>2019-04-17T19:38:05Z</time>
      </trkpt>
      <trkpt lat="45.91246" lon="6.7662">
        <ele>888</ele>
        <time>2019-04-17T19:39:05Z</time>
      </trkpt>
      <trkpt lat="45.91238" lon="6.76602">
        <ele>888</ele>
        <time>2019-04-17T19:40:05Z</time>
      </trkpt>
      <trkpt lat="45.91237" lon="6.76589">
        <ele>888</ele>
        <time>2019-04-17T19:41:05Z</time>
      </trkpt>
      <trkpt lat="45.91238" lon="6.76568">
        <ele>891</ele>
        <time>2019-04-17T19:42:05Z</time>
      </trkpt>
      <trkpt lat="45.91235" lon="6.76557">
        <ele>894</ele>
        <time>2019-04-17T19:43:05Z</time>
      </trkpt>
      <trkpt lat="45.91227" lon="6.76549">
        <ele>898</ele>
        <time>2019-04-17T19:44:05Z</time>
      </trkpt>
      <trkpt lat="45.91219" lon="6.76552">
        <ele>898</ele>
        <time>2019-04-17T19:45:05Z</time>
      </trkpt>
      <trkpt lat="45.91212" lon="6.76559">
        <ele>898</ele>
        <time>2019-04-17T19:46:05Z</time>
      </trkpt>
      <trkpt lat="45.91203" lon="6.76587">
        <ele>894</ele>
        <time>2019-04-17T19:47:05Z</time>
      </trkpt>
      <trkpt lat="45.9119" lon="6.76653">
        <ele>895</ele>
        <time>2019-04-17T19:48:05Z</time>
      </trkpt>
      <trkpt lat="45.91186" lon="6.76663">
        <ele>895</ele>
        <time>2019-04-17T19:49:05Z</time>
      </trkpt>
      <trkpt lat="45.91179" lon="6.76667">
        <ele>896</ele>
        <time>2019-04-17T19:50:05Z</time>
      </trkpt>
      <trkpt lat="45.91156" lon="6.76672">
        <ele>899</ele>
        <time>2019-04-17T19:51:05Z</time>
      </trkpt>
      <trkpt lat="45.91142" lon="6.76677">
        <ele>901</ele>
        <time>2019-04-17T19:52:05Z</time>
      </trkpt>
      <trkpt lat="45.91121" lon="6.76677">
        <ele>904</ele>
        <time>2019-04-17T19:53:05Z</time>
      </trkpt>
      <trkpt lat="45.91113" lon="6.7667">
        <ele>905</ele>
        <time>2019-04-17T19:54:05Z</time>
      </trkpt>
      <trkpt lat="45.9111" lon="6.76661">
        <ele>906</ele>
        <time>2019-04-17T19:55:05Z</time>
      </trkpt>
      <trkpt lat="45.9111" lon="6.76648">
        <ele>907</ele>
        <time>2019-04-17T19:56:05Z</time>
      </trkpt>
      <trkpt lat="45.91115" lon="6.76639">
        <ele>906</ele>
        <time>2019-04-17T19:57:05Z</time>
      </trkpt>
      <trkpt lat="45.91135" lon="6.76624">
        <ele>903</ele>
        <time>2019-04-17T19:58:05Z</time>
      </trkpt>
      <trkpt lat="45.91144" lon="6.76609">
        <ele>903</ele>
        <time>2019-04-17T19:59:05Z</time>
      </trkpt>
      <trkpt lat="45.91155" lon="6.7658">
        <ele>903</ele>
        <time>2019-04-17T20:00:05Z</time>
      </trkpt>
      <trkpt lat="45.91157" lon="6.76567">
        <ele>905</ele>
        <time>2019-04-17T20:01:05Z</time>
      </trkpt>
      <trkpt lat="45.91153" lon="6.76555">
        <ele>909</ele>
        <time>2019-04-17T20:02:05Z</time>
      </trkpt>
      <trkpt lat="45.91147" lon="6.76546">
        <ele>912</ele>
        <time>2019-04-17T20:03:05Z</time>
      </trkpt>
      <trkpt lat="45.91141" lon="6.76544">
        <ele>913</ele>
        <time>2019-04-17T20:04:05Z</time>
      </trkpt>
      <trkpt lat="45.91131" lon="6.76552">
        <ele>913</ele>
        <time>2019-04-17T20:05:05Z</time>
      </trkpt>
      <trkpt lat="45.91123" lon="6.76563">
        <ele>911</ele>
        <time>2019-04-17T20:06:05Z</time>
      </trkpt>
      <trkpt lat="45.91104" lon="6.76574">
        <ele>912</ele>
        <time>2019-04-17T20:07:05Z</time>
      </trkpt>
      <trkpt lat="45.91091" lon="6.76588">
        <ele>912</ele>
        <time>2019-04-17T20:08:05Z</time>
      </trkpt>
      <trkpt lat="45.91086" lon="6.76644">
        <ele>910</ele>
        <time>2019-04-17T20:09:05Z</time>
      </trkpt>
      <trkpt lat="45.91084" lon="6.76657">
        <ele>910</ele>
        <time>2019-04-17T20:10:05Z</time>
      </trkpt>
      <trkpt lat="45.91077" lon="6.76662">
        <ele>911</ele>
        <time>2019-04-17T20:11:05Z</time>
      </trkpt>
      <trkpt lat="45.91063" lon="6.76663">
        <ele>914</ele>
        <time>2019-04-17T20:12:05Z</time>
      </trkpt>
      <trkpt lat="45.91054" lon="6.76668">
        <ele>915</ele>
        <time>2019-04-17T20:13:05Z</time>
      </trkpt>
      <trkpt lat="45.91049" lon="6.76676">
        <ele>916</ele>
        <time>2019-04-17T20:14:05Z</time>
      </trkpt>
      <trkpt lat="45.91039" lon="6.76699">
        <ele>918</ele>
        <time>2019-04-17T20:15:05Z</time>
      </trkpt>
      <trkpt lat="45.91035" lon="6.76706">
        <ele>919</ele>
        <time>2019-04-17T20:16:05Z</time>
      </trkpt>
      <trkpt lat="45.9103" lon="6.76706">
        <ele>920</ele>
        <time>2019-04-17T20:17:05Z</time>
      </trkpt>
      <trkpt lat="45.91015" lon="6.76702">
        <ele>924</ele>
        <time>2019-04-17T20:18:05Z</time>
      </trkpt>
      <trkpt lat="45.90967" lon="6.767">
        <ele>940</ele>
        <time>2019-04-17T20:19:05Z</time>
      </trkpt>
      <trkpt lat="45.90958" lon="6.76694">
        <ele>943</ele>
        <time>2019-04-17T20:20:05Z</time>
      </trkpt>
      <trkpt lat="45.90955" lon="6.76682">
        <ele>944</ele>
        <time>2019-04-17T20:21:05Z</time>
      </trkpt>
      <trkpt lat="45.90955" lon="6.76673">
        <ele>944</ele>
        <time>2019-04-17T20:22:05Z</time>
      </trkpt>
      <trkpt lat="45.90969" lon="6.76643">
        <ele>943</ele>
        <time>2019-04-17T20:23:05Z</time>
      </trkpt>
      <trkpt lat="45.90986" lon="6.76619">
        <ele>942</ele>
        <time>2019-04-17T20:24:05Z</time>
      </trkpt>
      <trkpt lat="45.91002" lon="6.76591">
        <ele>942</ele>
        <time>2019-04-17T20:25:05Z</time>
      </trkpt>
      <trkpt lat="45.91015" lon="6.76576">
        <ele>941</ele>
        <time>2019-04-17T20:26:05Z</time>
      </trkpt>
      <trkpt lat="45.91029" lon="6.76565">
        <ele>939</ele>
        <time>2019-04-17T20:27:05Z</time>
      </trkpt>
      <trkpt lat="45.91031" lon="6.7656">
        <ele>940</ele>
        <time>2019-04-17T20:28:05Z</time>
      </trkpt>
      <trkpt lat="45.9103" lon="6.76549">
        <ele>944</ele>
        <time>2019-04-17T20:29:05Z</time>
      </trkpt>
      <trkpt lat="45.91028" lon="6.76546">
        <ele>946</ele>
        <time>2019-04-17T20:30:05Z</time>
      </trkpt>
      <trkpt lat="45.91021" lon="6.76546">
        <ele>949</ele>
        <time>2019-04-17T20:31:05Z</time>
      </trkpt>
      <trkpt lat="45.90996" lon="6.76584">
        <ele>945</ele>
        <time>2019-04-17T20:32:05Z</time>
      </trkpt>
      <trkpt lat="45.90985" lon="6.76596">
        <ele>947</ele>
        <time>2019-04-17T20:33:05Z</time>
      </trkpt>
      <trkpt lat="45.90948" lon="6.76626">
        <ele>956</ele>
        <time>2019-04-17T20:34:05Z</time>
      </trkpt>
      <trkpt lat="45.90927" lon="6.7665">
        <ele>960</ele>
        <time>2019-04-17T20:35:05Z</time>
      </trkpt>
      <trkpt lat="45.90918" lon="6.76666">
        <ele>961</ele>
        <time>2019-04-17T20:36:05Z</time>
      </trkpt>
      <trkpt lat="45.90915" lon="6.76674">
        <ele>961</ele>
        <time>2019-04-17T20:37:05Z</time>
      </trkpt>
      <trkpt lat="45.90914" lon="6.76682">
        <ele>961</ele>
        <time>2019-04-17T20:38:05Z</time>
      </trkpt>
      <trkpt lat="45.90923" lon="6.76701">
        <ele>957</ele>
        <time>2019-04-17T20:39:05Z</time>
      </trkpt>
      <trkpt lat="45.90939" lon="6.7672">
        <ele>950</ele>
        <time>2019-04-17T20:40:05Z</time>
      </trkpt>
      <trkpt lat="45.90941" lon="6.76728">
        <ele>949</ele>
        <time>2019-04-17T20:41:05Z</time>
      </trkpt>
      <trkpt lat="45.90921" lon="6.76782">
        <ele>954</ele>
        <time>2019-04-17T20:42:05Z</time>
      </trkpt>
      <trkpt lat="45.90911" lon="6.76795">
        <ele>957</ele>
        <time>2019-04-17T20:43:05Z</time>
      </trkpt>
      <trkpt lat="45.90888" lon="6.76814">
        <ele>961</ele>
        <time>2019-04-17T20:44:05Z</time>
      </trkpt>
      <trkpt lat="45.90875" lon="6.76819">
        <ele>963</ele>
        <time>2019-04-17T20:45:05Z</time>
      </trkpt>
      <trkpt lat="45.90865" lon="6.76819">
        <ele>965</ele>
        <time>2019-04-17T20:46:05Z</time>
      </trkpt>
      <trkpt lat="45.90858" lon="6.76814">
        <ele>967</ele>
        <time>2019-04-17T20:47:05Z</time>
      </trkpt>
      <trkpt lat="45.90857" lon="6.76807">
        <ele>967</ele>
        <time>2019-04-17T20:48:05Z</time>
      </trkpt>
      <trkpt lat="45.90859" lon="6.76799">
        <ele>967</ele>
        <time>2019-04-17T20:49:05Z</time>
      </trkpt>
      <trkpt lat="45.90864" lon="6.76795">
        <ele>967</ele>
        <time>2019-04-17T20:50:05Z</time>
      </trkpt>
      <trkpt lat="45.9089" lon="6.76791">
        <ele>961</ele>
        <time>2019-04-17T20:51:05Z</time>
      </trkpt>
      <trkpt lat="45.90897" lon="6.76782">
        <ele>960</ele>
        <time>2019-04-17T20:52:05Z</time>
      </trkpt>
      <trkpt lat="45.909" lon="6.76771">
        <ele>960</ele>
        <time>2019-04-17T20:53:05Z</time>
      </trkpt>
      <trkpt lat="45.90898" lon="6.7676">
        <ele>961</ele>
        <time>2019-04-17T20:54:05Z</time>
      </trkpt>
      <trkpt lat="45.90893" lon="6.76751">
        <ele>963</ele>
        <time>2019-04-17T20:55:05Z</time>
      </trkpt>
      <trkpt lat="45.90886" lon="6.76747">
        <ele>965</ele>
        <time>2019-04-17T20:56:05Z</time>
      </trkpt>
      <trkpt lat="45.90843" lon="6.76733">
        <ele>977</ele>
        <time>2019-04-17T20:57:05Z</time>
      </trkpt>
      <trkpt lat="45.9083" lon="6.76737">
        <ele>980</ele>
        <time>2019-04-17T20:58:05Z</time>
      </trkpt>
      <trkpt lat="45.90812" lon="6.76778">
        <ele>983</ele>
        <time>2019-04-17T20:59:05Z</time>
      </trkpt>
      <trkpt lat="45.90803" lon="6.76779">
        <ele>986</ele>
        <time>2019-04-17T21:00:05Z</time>
      </trkpt>
      <trkpt lat="45.90797" lon="6.76776">
        <ele>988</ele>
        <time>2019-04-17T21:01:05Z</time>
      </trkpt>
      <trkpt lat="45.90794" lon="6.76763">
        <ele>991</ele>
        <time>2019-04-17T21:02:05Z</time>
      </trkpt>
      <trkpt lat="45.90795" lon="6.76752">
        <ele>991</ele>
        <time>2019-04-17T21:03:05Z</time>
      </trkpt>
      <trkpt lat="45.90813" lon="6.76724">
        <ele>989</ele>
        <time>2019-04-17T21:04:05Z</time>
      </trkpt>
      <trkpt lat="45.90826" lon="6.76709">
        <ele>986</ele>
        <time>2019-04-17T21:05:05Z</time>
      </trkpt>
      <trkpt lat="45.90832" lon="6.76689">
        <ele>987</ele>
        <time>2019-04-17T21:06:05Z</time>
      </trkpt>
      <trkpt lat="45.90837" lon="6.76621">
        <ele>999</ele>
        <time>2019-04-17T21:07:05Z</time>
      </trkpt>
      <trkpt lat="45.9084" lon="6.76589">
        <ele>1005</ele>
        <time>2019-04-17T21:08:05Z</time>
      </trkpt>
      <trkpt lat="45.90858" lon="6.76557">
        <ele>1007</ele>
        <time>2019-04-17T21:09:05Z</time>
      </trkpt>
      <trkpt lat="45.90882" lon="6.7653">
        <ele>1006</ele>
        <time>2019-04-17T21:10:05Z</time>
      </trkpt>
      <trkpt lat="45.90931" lon="6.76491">
        <ele>1001</ele>
        <time>2019-04-17T21:11:05Z</time>
      </trkpt>
      <trkpt lat="45.90976" lon="6.76461">
        <ele>992</ele>
        <time>2019-04-17T21:12:05Z</time>
      </trkpt>
      <trkpt lat="45.91003" lon="6.76447">
        <ele>987</ele>
        <time>2019-04-17T21:13:05Z</time>
      </trkpt>
      <trkpt lat="45.91012" lon="6.76437">
        <ele>987</ele>
        <time>2019-04-17T21:14:05Z</time>
      </trkpt>
      <trkpt lat="45.91015" lon="6.76422">
        <ele>991</ele>
        <time>2019-04-17T21:15:05Z</time>
      </trkpt>
      <trkpt lat="45.91011" lon="6.76413">
        <ele>993</ele>
        <time>2019-04-17T21:16:05Z</time>
      </trkpt>
      <trkpt lat="45.91" lon="6.76403">
        <ele>996</ele>
        <time>2019-04-17T21:17:05Z</time>
      </trkpt>
      <trkpt lat="45.90959" lon="6.76392">
        <ele>1004</ele>
        <time>2019-04-17T21:18:05Z</time>
      </trkpt>
      <trkpt lat="45.90927" lon="6.76391">
        <ele>1009</ele>
        <time>2019-04-17T21:19:05Z</time>
      </trkpt>
      <trkpt lat="45.90878" lon="6.76374">
        <ele>1017</ele>
        <time>2019-04-17T21:20:05Z</time>
      </trkpt>
      <trkpt lat="45.9087" lon="6.76369">
        <ele>1018</ele>
        <time>2019-04-17T21:21:05Z</time>
      </trkpt>
      <trkpt lat="45.90867" lon="6.76363">
        <ele>1017</ele>
        <time>2019-04-17T21:22:05Z</time>
      </trkpt>
      <trkpt lat="45.90864" lon="6.76348">
        <ele>1016</ele>
        <time>2019-04-17T21:23:05Z</time>
      </trkpt>
      <trkpt lat="45.90866" lon="6.76342">
        <ele>1015</ele>
        <time>2019-04-17T21:24:05Z</time>
      </trkpt>
      <trkpt lat="45.90886" lon="6.76324">
        <ele>1012</ele>
        <time>2019-04-17T21:25:05Z</time>
      </trkpt>
      <trkpt lat="45.90929" lon="6.76254">
        <ele>1015</ele>
        <time>2019-04-17T21:26:05Z</time>
      </trkpt>
      <trkpt lat="45.90938" lon="6.76247">
        <ele>1015</ele>
        <time>2019-04-17T21:27:05Z</time>
      </trkpt>
      <trkpt lat="45.9095" lon="6.76241">
        <ele>1016</ele>
        <time>2019-04-17T21:28:05Z</time>
      </trkpt>
      <trkpt lat="45.90952" lon="6.7623">
        <ele>1018</ele>
        <time>2019-04-17T21:29:05Z</time>
      </trkpt>
      <trkpt lat="45.90949" lon="6.76222">
        <ele>1020</ele>
        <time>2019-04-17T21:30:05Z</time>
      </trkpt>
      <trkpt lat="45.90942" lon="6.76215">
        <ele>1022</ele>
        <time>2019-04-17T21:31:05Z</time>
      </trkpt>
      <trkpt lat="45.90937" lon="6.76216">
        <ele>1023</ele>
        <time>2019-04-17T21:32:05Z</time>
      </trkpt>
      <trkpt lat="45.90932" lon="6.7622">
        <ele>1022</ele>
        <time>2019-04-17T21:33:05Z</time>
      </trkpt>
      <trkpt lat="45.90926" lon="6.76232">
        <ele>1020</ele>
        <time>2019-04-17T21:34:05Z</time>
      </trkpt>
      <trkpt lat="45.90901" lon="6.7626">
        <ele>1018</ele>
        <time>2019-04-17T21:35:05Z</time>
      </trkpt>
      <trkpt lat="45.90847" lon="6.76299">
        <ele>1023</ele>
        <time>2019-04-17T21:36:05Z</time>
      </trkpt>
      <trkpt lat="45.90801" lon="6.76305">
        <ele>1030</ele>
        <time>2019-04-17T21:37:05Z</time>
      </trkpt>
      <trkpt lat="45.90777" lon="6.76321">
        <ele>1032</ele>
        <time>2019-04-17T21:38:05Z</time>
      </trkpt>
      <trkpt lat="45.90762" lon="6.76335">
        <ele>1034</ele>
        <time>2019-04-17T21:39:05Z</time>
      </trkpt>
      <trkpt lat="45.90753" lon="6.76334">
        <ele>1035</ele>
        <time>2019-04-17T21:40:05Z</time>
      </trkpt>
      <trkpt lat="45.90748" lon="6.76325">
        <ele>1037</ele>
        <time>2019-04-17T21:41:05Z</time>
      </trkpt>
      <trkpt lat="45.90747" lon="6.76319">
        <ele>1038</ele>
        <time>2019-04-17T21:42:05Z</time>
      </trkpt>
      <trkpt lat="45.90749" lon="6.76313">
        <ele>1039</ele>
        <time>2019-04-17T21:43:05Z</time>
      </trkpt>
      <trkpt lat="45.90775" lon="6.76297">
        <ele>1036</ele>
        <time>2019-04-17T21:44:05Z</time>
      </trkpt>
      <trkpt lat="45.90788" lon="6.76279">
        <ele>1036</ele>
        <time>2019-04-17T21:45:05Z</time>
      </trkpt>
      <trkpt lat="45.90818" lon="6.76259">
        <ele>1033</ele>
        <time>2019-04-17T21:46:05Z</time>
      </trkpt>
      <trkpt lat="45.90823" lon="6.76252">
        <ele>1034</ele>
        <time>2019-04-17T21:47:05Z</time>
      </trkpt>
      <trkpt lat="45.90831" lon="6.76222">
        <ele>1040</ele>
        <time>2019-04-17T21:48:05Z</time>
      </trkpt>
      <trkpt lat="45.90834" lon="6.76203">
        <ele>1045</ele>
        <time>2019-04-17T21:49:05Z</time>
      </trkpt>
      <trkpt lat="45.90834" lon="6.76191">
        <ele>1048</ele>
        <time>2019-04-17T21:50:05Z</time>
      </trkpt>
      <trkpt lat="45.90831" lon="6.76185">
        <ele>1050</ele>
        <time>2019-04-17T21:51:05Z</time>
      </trkpt>
      <trkpt lat="45.90827" lon="6.76181">
        <ele>1052</ele>
        <time>2019-04-17T21:52:05Z</time>
      </trkpt>
      <trkpt lat="45.90817" lon="6.76181">
        <ele>1053</ele>
        <time>2019-04-17T21:53:05Z</time>
      </trkpt>
      <trkpt lat="45.90795" lon="6.76202">
        <ele>1050</ele>
        <time>2019-04-17T21:54:05Z</time>
      </trkpt>
      <trkpt lat="45.90789" lon="6.76205">
        <ele>1050</ele>
        <time>2019-04-17T21:55:05Z</time>
      </trkpt>
      <trkpt lat="45.90761" lon="6.76201">
        <ele>1055</ele>
        <time>2019-04-17T21:56:05Z</time>
      </trkpt>
      <trkpt lat="45.90755" lon="6.76202">
        <ele>1056</ele>
        <time>2019-04-17T21:57:05Z</time>
      </trkpt>
      <trkpt lat="45.90749" lon="6.76206">
        <ele>1056</ele>
        <time>2019-04-17T21:58:05Z</time>
      </trkpt>
      <trkpt lat="45.90727" lon="6.76235">
        <ele>1053</ele>
        <time>2019-04-17T21:59:05Z</time>
      </trkpt>
      <trkpt lat="45.90709" lon="6.76246">
        <ele>1054</ele>
        <time>2019-04-17T22:00:05Z</time>
      </trkpt>
      <trkpt lat="45.9068" lon="6.76249">
        <ele>1058</ele>
        <time>2019-04-17T22:01:05Z</time>
      </trkpt>
      <trkpt lat="45.90653" lon="6.76245">
        <ele>1064</ele>
        <time>2019-04-17T22:02:05Z</time>
      </trkpt>
      <trkpt lat="45.90643" lon="6.76233">
        <ele>1067</ele>
        <time>2019-04-17T22:03:05Z</time>
      </trkpt>
      <trkpt lat="45.90643" lon="6.76223">
        <ele>1069</ele>
        <time>2019-04-17T22:04:05Z</time>
      </trkpt>
      <trkpt lat="45.90646" lon="6.76214">
        <ele>1070</ele>
        <time>2019-04-17T22:05:05Z</time>
      </trkpt>
      <trkpt lat="45.9066" lon="6.76204">
        <ele>1068</ele>
        <time>2019-04-17T22:06:05Z</time>
      </trkpt>
      <trkpt lat="45.90671" lon="6.76202">
        <ele>1066</ele>
        <time>2019-04-17T22:07:05Z</time>
      </trkpt>
      <trkpt lat="45.9068" lon="6.76197">
        <ele>1066</ele>
        <time>2019-04-17T22:08:05Z</time>
      </trkpt>
      <trkpt lat="45.90684" lon="6.7619">
        <ele>1067</ele>
        <time>2019-04-17T22:09:05Z</time>
      </trkpt>
      <trkpt lat="45.90685" lon="6.7618">
        <ele>1068</ele>
        <time>2019-04-17T22:10:05Z</time>
      </trkpt>
      <trkpt lat="45.90682" lon="6.76176">
        <ele>1069</ele>
        <time>2019-04-17T22:11:05Z</time>
      </trkpt>
      <trkpt lat="45.90676" lon="6.76175">
        <ele>1070</ele>
        <time>2019-04-17T22:12:05Z</time>
      </trkpt>
      <trkpt lat="45.90665" lon="6.76186">
        <ele>1070</ele>
        <time>2019-04-17T22:13:05Z</time>
      </trkpt>
      <trkpt lat="45.90607" lon="6.76208">
        <ele>1079</ele>
        <time>2019-04-17T22:14:05Z</time>
      </trkpt>
      <trkpt lat="45.90577" lon="6.76216">
        <ele>1084</ele>
        <time>2019-04-17T22:15:05Z</time>
      </trkpt>
      <trkpt lat="45.90564" lon="6.76226">
        <ele>1086</ele>
        <time>2019-04-17T22:16:05Z</time>
      </trkpt>
      <trkpt lat="45.90557" lon="6.76237">
        <ele>1085</ele>
        <time>2019-04-17T22:17:05Z</time>
      </trkpt>
      <trkpt lat="45.90552" lon="6.76308">
        <ele>1083</ele>
        <time>2019-04-17T22:18:05Z</time>
      </trkpt>
      <trkpt lat="45.90548" lon="6.76332">
        <ele>1084</ele>
        <time>2019-04-17T22:19:05Z</time>
      </trkpt>
      <trkpt lat="45.90521" lon="6.76436">
        <ele>1099</ele>
        <time>2019-04-17T22:20:05Z</time>
      </trkpt>
      <trkpt lat="45.9052" lon="6.76453">
        <ele>1101</ele>
        <time>2019-04-17T22:21:05Z</time>
      </trkpt>
      <trkpt lat="45.90521" lon="6.76464">
        <ele>1101</ele>
        <time>2019-04-17T22:22:05Z</time>
      </trkpt>
      <trkpt lat="45.90525" lon="6.76472">
        <ele>1100</ele>
        <time>2019-04-17T22:23:05Z</time>
      </trkpt>
      <trkpt lat="45.90529" lon="6.76477">
        <ele>1099</ele>
        <time>2019-04-17T22:24:05Z</time>
      </trkpt>
      <trkpt lat="45.90555" lon="6.76485">
        <ele>1092</ele>
        <time>2019-04-17T22:25:05Z</time>
      </trkpt>
      <trkpt lat="45.90567" lon="6.76494">
        <ele>1089</ele>
        <time>2019-04-17T22:26:05Z</time>
      </trkpt>
      <trkpt lat="45.90576" lon="6.76508">
        <ele>1087</ele>
        <time>2019-04-17T22:27:05Z</time>
      </trkpt>
      <trkpt lat="45.90579" lon="6.76517">
        <ele>1087</ele>
        <time>2019-04-17T22:28:05Z</time>
      </trkpt>
      <trkpt lat="45.90581" lon="6.76529">
        <ele>1086</ele>
        <time>2019-04-17T22:29:05Z</time>
      </trkpt>
      <trkpt lat="45.9058" lon="6.76545">
        <ele>1087</ele>
        <time>2019-04-17T22:30:05Z</time>
      </trkpt>
      <trkpt lat="45.90569" lon="6.76586">
        <ele>1092</ele>
        <time>2019-04-17T22:31:05Z</time>
      </trkpt>
      <trkpt lat="45.90548" lon="6.76623">
        <ele>1098</ele>
        <time>2019-04-17T22:32:05Z</time>
      </trkpt>
      <trkpt lat="45.90491" lon="6.76721">
        <ele>1124</ele>
        <time>2019-04-17T22:33:05Z</time>
      </trkpt>
      <trkpt lat="45.90469" lon="6.76786">
        <ele>1135</ele>
        <time>2019-04-17T22:34:05Z</time>
      </trkpt>
      <trkpt lat="45.90463" lon="6.76822">
        <ele>1138</ele>
        <time>2019-04-17T22:35:05Z</time>
      </trkpt>
      <trkpt lat="45.90461" lon="6.76863">
        <ele>1139</ele>
        <time>2019-04-17T22:36:05Z</time>
      </trkpt>
      <trkpt lat="45.90463" lon="6.7689">
        <ele>1138</ele>
        <time>2019-04-17T22:37:05Z</time>
      </trkpt>
      <trkpt lat="45.90472" lon="6.76927">
        <ele>1134</ele>
        <time>2019-04-17T22:38:05Z</time>
      </trkpt>
      <trkpt lat="45.90502" lon="6.76984">
        <ele>1119</ele>
        <time>2019-04-17T22:39:05Z</time>
      </trkpt>
      <trkpt lat="45.90515" lon="6.77018">
        <ele>1107</ele>
        <time>2019-04-17T22:40:05Z</time>
      </trkpt>
      <trkpt lat="45.90513" lon="6.7703">
        <ele>1108</ele>
        <time>2019-04-17T22:41:05Z</time>
      </trkpt>
      <trkpt lat="45.90511" lon="6.77035">
        <ele>1109</ele>
        <time>2019-04-17T22:42:05Z</time>
      </trkpt>
      <trkpt lat="45.90469" lon="6.7707">
        <ele>1122</ele>
        <time>2019-04-17T22:43:05Z</time>
      </trkpt>
      <trkpt lat="45.90461" lon="6.7709">
        <ele>1121</ele>
        <time>2019-04-17T22:44:05Z</time>
      </trkpt>
      <trkpt lat="45.90454" lon="6.77123">
        <ele>1115</ele>
        <time>2019-04-17T22:45:05Z</time>
      </trkpt>
      <trkpt lat="45.90441" lon="6.77155">
        <ele>1112</ele>
        <time>2019-04-17T22:46:05Z</time>
      </trkpt>
      <trkpt lat="45.90419" lon="6.77198">
        <ele>1109</ele>
        <time>2019-04-17T22:47:05Z</time>
      </trkpt>
      <trkpt lat="45.90393" lon="6.77237">
        <ele>1104</ele>
        <time>2019-04-17T22:48:05Z</time>
      </trkpt>
      <trkpt lat="45.90375" lon="6.77251">
        <ele>1103</ele>
        <time>2019-04-17T22:49:05Z</time>
      </trkpt>
      <trkpt lat="45.90331" lon="6.77264">
        <ele>1106</ele>
        <time>2019-04-17T22:50:05Z</time>
      </trkpt>
      <trkpt lat="45.90251" lon="6.77307">
        <ele>1106</ele>
        <time>2019-04-17T22:51:05Z</time>
      </trkpt>
      <trkpt lat="45.9022" lon="6.77337">
        <ele>1104</ele>
        <time>2019-04-17T22:52:05Z</time>
      </trkpt>
      <trkpt lat="45.90198" lon="6.77369">
        <ele>1101</ele>
        <time>2019-04-17T22:53:05Z</time>
      </trkpt>
      <trkpt lat="45.90185" lon="6.77383">
        <ele>1100</ele>
        <time>2019-04-17T22:54:05Z</time>
      </trkpt>
      <trkpt lat="45.90164" lon="6.77415">
        <ele>1095</ele>
        <time>2019-04-17T22:55:05Z</time>
      </trkpt>
      <trkpt lat="45.90145" lon="6.77428">
        <ele>1090</ele>
        <time>2019-04-17T22:56:05Z</time>
      </trkpt>
      <trkpt lat="45.90124" lon="6.77436">
        <ele>1085</ele>
        <time>2019-04-17T22:57:05Z</time>
      </trkpt>
      <trkpt lat="45.90091" lon="6.77429">
        <ele>1084</ele>
        <time>2019-04-17T22:58:05Z</time>
      </trkpt>
      <trkpt lat="45.9006" lon="6.77415">
        <ele>1081</ele>
        <time>2019-04-17T22:59:05Z</time>
      </trkpt>
      <trkpt lat="45.89925" lon="6.77292">
        <ele>1078</ele>
        <time>2019-04-17T23:00:05Z</time>
      </trkpt>
      <trkpt lat="45.89885" lon="6.77263">
        <ele>1076</ele>
        <time>2019-04-17T23:01:05Z</time>
      </trkpt>
      <trkpt lat="45.89822" lon="6.7724">
        <ele>1068</ele>
        <time>2019-04-17T23:02:05Z</time>
      </trkpt>
      <trkpt lat="45.89787" lon="6.7723">
        <ele>1065</ele>
        <time>2019-04-17T23:03:05Z</time>
      </trkpt>
      <trkpt lat="45.8976" lon="6.77229">
        <ele>1061</ele>
        <time>2019-04-17T23:04:05Z</time>
      </trkpt>
      <trkpt lat="45.89743" lon="6.77234">
        <ele>1059</ele>
        <time>2019-04-17T23:05:05Z</time>
      </trkpt>
      <trkpt lat="45.89729" lon="6.77245">
        <ele>1058</ele>
        <time>2019-04-17T23:06:05Z</time>
      </trkpt>
      <trkpt lat="45.89717" lon="6.77285">
        <ele>1053</ele>
        <time>2019-04-17T23:07:05Z</time>
      </trkpt>
      <trkpt lat="45.8971" lon="6.77333">
        <ele>1047</ele>
        <time>2019-04-17T23:08:05Z</time>
      </trkpt>
      <trkpt lat="45.89667" lon="6.77779">
        <ele>1028</ele>
        <time>2019-04-17T23:09:05Z</time>
      </trkpt>
      <trkpt lat="45.89655" lon="6.77823">
        <ele>1026</ele>
        <time>2019-04-17T23:10:05Z</time>
      </trkpt>
      <trkpt lat="45.89507" lon="6.7809">
        <ele>1018</ele>
        <time>2019-04-17T23:11:05Z</time>
      </trkpt>
      <trkpt lat="45.89485" lon="6.78167">
        <ele>1015</ele>
        <time>2019-04-17T23:12:05Z</time>
      </trkpt>
      <trkpt lat="45.89479" lon="6.78184">
        <ele>1015</ele>
        <time>2019-04-17T23:13:05Z</time>
      </trkpt>
      <trkpt lat="45.89459" lon="6.78262">
        <ele>1015</ele>
        <time>2019-04-17T23:14:05Z</time>
      </trkpt>
      <trkpt lat="45.89448" lon="6.78298">
        <ele>1014</ele>
        <time>2019-04-17T23:15:05Z</time>
      </trkpt>
      <trkpt lat="45.89438" lon="6.78316">
        <ele>1013</ele>
        <time>2019-04-17T23:16:05Z</time>
      </trkpt>
      <trkpt lat="45.89402" lon="6.78358">
        <ele>1015</ele>
        <time>2019-04-17T23:17:05Z</time>
      </trkpt>
      <trkpt lat="45.89391" lon="6.78375">
        <ele>1016</ele>
        <time>2019-04-17T23:18:05Z</time>
      </trkpt>
      <trkpt lat="45.89374" lon="6.78415">
        <ele>1016</ele>
        <time>2019-04-17T23:19:05Z</time>
      </trkpt>
      <trkpt lat="45.89358" lon="6.78444">
        <ele>1015</ele>
        <time>2019-04-17T23:20:05Z</time>
      </trkpt>
      <trkpt lat="45.89274" lon="6.78525">
        <ele>1014</ele>
        <time>2019-04-17T23:21:05Z</time>
      </trkpt>
      <trkpt lat="45.89225" lon="6.78586">
        <ele>1005</ele>
        <time>2019-04-17T23:22:05Z</time>
      </trkpt>
      <trkpt lat="45.8921" lon="6.78596">
        <ele>1004</ele>
        <time>2019-04-17T23:23:05Z</time>
      </trkpt>
      <trkpt lat="45.89195" lon="6.78601">
        <ele>1004</ele>
        <time>2019-04-17T23:24:05Z</time>
      </trkpt>
      <trkpt lat="45.89173" lon="6.78604">
        <ele>1005</ele>
        <time>2019-04-17T23:25:05Z</time>
      </trkpt>
      <trkpt lat="45.89134" lon="6.78598">
        <ele>1010</ele>
        <time>2019-04-17T23:26:05Z</time>
      </trkpt>
      <trkpt lat="45.89116" lon="6.78598">
        <ele>1012</ele>
        <time>2019-04-17T23:27:05Z</time>
      </trkpt>
      <trkpt lat="45.89104" lon="6.78604">
        <ele>1012</ele>
        <time>2019-04-17T23:28:05Z</time>
      </trkpt>
      <trkpt lat="45.89088" lon="6.78618">
        <ele>1011</ele>
        <time>2019-04-17T23:29:05Z</time>
      </trkpt>
      <trkpt lat="45.89068" lon="6.78649">
        <ele>1008</ele>
        <time>2019-04-17T23:30:05Z</time>
      </trkpt>
      <trkpt lat="45.89045" lon="6.78694">
        <ele>1005</ele>
        <time>2019-04-17T23:31:05Z</time>
      </trkpt>
      <trkpt lat="45.89024" lon="6.78755">
        <ele>1001</ele>
        <time>2019-04-17T23:32:05Z</time>
      </trkpt>
      <trkpt lat="45.88987" lon="6.78878">
        <ele>998</ele>
        <time>2019-04-17T23:33:05Z</time>
      </trkpt>
      <trkpt lat="45.88987" lon="6.78893">
        <ele>997</ele>
        <time>2019-04-17T23:34:05Z</time>
      </trkpt>
      <trkpt lat="45.88981" lon="6.78901">
        <ele>997</ele>
        <time>2019-04-17T23:35:05Z</time>
      </trkpt>
      <trkpt lat="45.8894" lon="6.79042">
        <ele>1003</ele>
        <time>2019-04-17T23:36:05Z</time>
      </trkpt>
      <trkpt lat="45.88933" lon="6.79075">
        <ele>1007</ele>
        <time>2019-04-17T23:37:05Z</time>
      </trkpt>
      <trkpt lat="45.88926" lon="6.7914">
        <ele>1007</ele>
        <time>2019-04-17T23:38:05Z</time>
      </trkpt>
      <trkpt lat="45.88923" lon="6.79201">
        <ele>1008</ele>
        <time>2019-04-17T23:39:05Z</time>
      </trkpt>
      <trkpt lat="45.88923" lon="6.79229">
        <ele>1009</ele>
        <time>2019-04-17T23:40:05Z</time>
      </trkpt>
      <trkpt lat="45.88933" lon="6.79366">
        <ele>1015</ele>
        <time>2019-04-17T23:41:05Z</time>
      </trkpt>
      <trkpt lat="45.88935" lon="6.79413">
        <ele>1019</ele>
        <time>2019-04-17T23:42:05Z</time>
      </trkpt>
      <trkpt lat="45.88923" lon="6.79518">
        <ele>1021</ele>
        <time>2019-04-17T23:43:05Z</time>
      </trkpt>
      <trkpt lat="45.8894" lon="6.79702">
        <ele>1011</ele>
        <time>2019-04-17T23:44:05Z</time>
      </trkpt>
      <trkpt lat="45.8895" lon="6.79738">
        <ele>1012</ele>
        <time>2019-04-17T23:45:05Z</time>
      </trkpt>
      <trkpt lat="45.88957" lon="6.79752">
        <ele>1012</ele>
        <time>2019-04-17T23:46:05Z</time>
      </trkpt>
      <trkpt lat="45.88993" lon="6.79806">
        <ele>1012</ele>
        <time>2019-04-17T23:47:05Z</time>
      </trkpt>
      <trkpt lat="45.89003" lon="6.79817">
        <ele>1012</ele>
        <time>2019-04-17T23:48:05Z</time>
      </trkpt>
      <trkpt lat="45.89037" lon="6.79848">
        <ele>1011</ele>
        <time>2019-04-17T23:49:05Z</time>
      </trkpt>
      <trkpt lat="45.89071" lon="6.7987">
        <ele>1010</ele>
        <time>2019-04-17T23:50:05Z</time>
      </trkpt>
      <trkpt lat="45.8918" lon="6.79909">
        <ele>1006</ele>
        <time>2019-04-17T23:51:05Z</time>
      </trkpt>
      <trkpt lat="45.89195" lon="6.79926">
        <ele>1005</ele>
        <time>2019-04-17T23:52:05Z</time>
      </trkpt>
      <trkpt lat="45.89228" lon="6.7998">
        <ele>1004</ele>
        <time>2019-04-17T23:53:05Z</time>
      </trkpt>
      <trkpt lat="45.89324" lon="6.80064">
        <ele>999</ele>
        <time>2019-04-17T23:54:05Z</time>
      </trkpt>
      <trkpt lat="45.89405" lon="6.80148">
        <ele>999</ele>
        <time>2019-04-17T23:55:05Z</time>
      </trkpt>
      <trkpt lat="45.89417" lon="6.80162">
        <ele>999</ele>
        <time>2019-04-17T23:56:05Z</time>
      </trkpt>
      <trkpt lat="45.89445" lon="6.80206">
        <ele>997</ele>
        <time>2019-04-17T23:57:05Z</time>
      </trkpt>
      <trkpt lat="45.89465" lon="6.80243">
        <ele>996</ele>
        <time>2019-04-17T23:58:05Z</time>
      </trkpt>
      <trkpt lat="45.89525" lon="6.80385">
        <ele>997</ele>
        <time>2019-04-17T23:59:05Z</time>
      </trkpt>
      <trkpt lat="45.89551" lon="6.80459">
        <ele>997</ele>
        <time>2019-04-18T00:00:05Z</time>
      </trkpt>
      <trkpt lat="45.89555" lon="6.80464">
        <ele>997</ele>
        <time>2019-04-18T00:01:05Z</time>
      </trkpt>
      <trkpt lat="45.89554" lon="6.80468">
        <ele>997</ele>
        <time>2019-04-18T00:02:05Z</time>
      </trkpt>
      <trkpt lat="45.89555" lon="6.80476">
        <ele>997</ele>
        <time>2019-04-18T00:03:05Z</time>
      </trkpt>
      <trkpt lat="45.89561" lon="6.80481">
        <ele>996</ele>
        <time>2019-04-18T00:04:05Z</time>
      </trkpt>
      <trkpt lat="45.89565" lon="6.80481">
        <ele>996</ele>
        <time>2019-04-18T00:05:05Z</time>
      </trkpt>
      <trkpt lat="45.89577" lon="6.80571">
        <ele>995</ele>
        <time>2019-04-18T00:06:05Z</time>
      </trkpt>
      <trkpt lat="45.89582" lon="6.80693">
        <ele>998</ele>
        <time>2019-04-18T00:07:05Z</time>
      </trkpt>
      <trkpt lat="45.89588" lon="6.80764">
        <ele>998</ele>
        <time>2019-04-18T00:08:05Z</time>
      </trkpt>
      <trkpt lat="45.89597" lon="6.80916">
        <ele>1000</ele>
        <time>2019-04-18T00:09:05Z</time>
      </trkpt>
      <trkpt lat="45.89601" lon="6.80938">
        <ele>1001</ele>
        <time>2019-04-18T00:10:05Z</time>
      </trkpt>
      <trkpt lat="45.89612" lon="6.8098">
        <ele>1002</ele>
        <time>2019-04-18T00:11:05Z</time>
      </trkpt>
      <trkpt lat="45.89627" lon="6.81019">
        <ele>1002</ele>
        <time>2019-04-18T00:12:05Z</time>
      </trkpt>
      <trkpt lat="45.89643" lon="6.81052">
        <ele>1001</ele>
        <time>2019-04-18T00:13:05Z</time>
      </trkpt>
      <trkpt lat="45.89667" lon="6.81089">
        <ele>999</ele>
        <time>2019-04-18T00:14:05Z</time>
      </trkpt>
      <trkpt lat="45.89681" lon="6.81117">
        <ele>999</ele>
        <time>2019-04-18T00:15:05Z</time>
      </trkpt>
      <trkpt lat="45.89693" lon="6.81158">
        <ele>1000</ele>
        <time>2019-04-18T00:16:05Z</time>
      </trkpt>
      <trkpt lat="45.89703" lon="6.81216">
        <ele>1002</ele>
        <time>2019-04-18T00:17:05Z</time>
      </trkpt>
      <trkpt lat="45.89705" lon="6.81263">
        <ele>1003</ele>
        <time>2019-04-18T00:18:05Z</time>
      </trkpt>
      <trkpt lat="45.89698" lon="6.81403">
        <ele>1006</ele>
        <time>2019-04-18T00:19:05Z</time>
      </trkpt>
      <trkpt lat="45.89703" lon="6.81457">
        <ele>1005</ele>
        <time>2019-04-18T00:20:05Z</time>
      </trkpt>
      <trkpt lat="45.89712" lon="6.8154">
        <ele>1005</ele>
        <time>2019-04-18T00:21:05Z</time>
      </trkpt>
      <trkpt lat="45.89722" lon="6.81604">
        <ele>1004</ele>
        <time>2019-04-18T00:22:05Z</time>
      </trkpt>
      <trkpt lat="45.8973" lon="6.81636">
        <ele>1004</ele>
        <time>2019-04-18T00:23:05Z</time>
      </trkpt>
      <trkpt lat="45.89743" lon="6.81676">
        <ele>1004</ele>
        <time>2019-04-18T00:24:05Z</time>
      </trkpt>
      <trkpt lat="45.89748" lon="6.81699">
        <ele>1003</ele>
        <time>2019-04-18T00:25:05Z</time>
      </trkpt>
      <trkpt lat="45.89749" lon="6.81713">
        <ele>1003</ele>
        <time>2019-04-18T00:26:05Z</time>
      </trkpt>
      <trkpt lat="45.89749" lon="6.8175">
        <ele>1002</ele>
        <time>2019-04-18T00:27:05Z</time>
      </trkpt>
      <trkpt lat="45.89713" lon="6.81927">
        <ele>1007</ele>
        <time>2019-04-18T00:28:05Z</time>
      </trkpt>
      <trkpt lat="45.89708" lon="6.81968">
        <ele>1007</ele>
        <time>2019-04-18T00:29:05Z</time>
      </trkpt>
      <trkpt lat="45.89706" lon="6.82011">
        <ele>1006</ele>
        <time>2019-04-18T00:30:05Z</time>
      </trkpt>
      <trkpt lat="45.89714" lon="6.82092">
        <ele>1005</ele>
        <time>2019-04-18T00:31:05Z</time>
      </trkpt>
      <trkpt lat="45.89721" lon="6.82136">
        <ele>1005</ele>
        <time>2019-04-18T00:32:05Z</time>
      </trkpt>
      <trkpt lat="45.89716" lon="6.82137">
        <ele>1006</ele>
        <time>2019-04-18T00:33:05Z</time>
      </trkpt>
      <trkpt lat="45.89711" lon="6.82142">
        <ele>1006</ele>
        <time>2019-04-18T00:34:05Z</time>
      </trkpt>
      <trkpt lat="45.89708" lon="6.82148">
        <ele>1007</ele>
        <time>2019-04-18T00:35:05Z</time>
      </trkpt>
      <trkpt lat="45.89707" lon="6.82156">
        <ele>1007</ele>
        <time>2019-04-18T00:36:05Z</time>
      </trkpt>
      <trkpt lat="45.89711" lon="6.82169">
        <ele>1007</ele>
        <time>2019-04-18T00:37:05Z</time>
      </trkpt>
      <trkpt lat="45.89717" lon="6.82175">
        <ele>1007</ele>
        <time>2019-04-18T00:38:05Z</time>
      </trkpt>
      <trkpt lat="45.89724" lon="6.82175">
        <ele>1006</ele>
        <time>2019-04-18T00:39:05Z</time>
      </trkpt>
      <trkpt lat="45.8973" lon="6.8217">
        <ele>1006</ele>
        <time>2019-04-18T00:40:05Z</time>
      </trkpt>
      <trkpt lat="45.89756" lon="6.8223">
        <ele>1006</ele>
        <time>2019-04-18T00:41:05Z</time>
      </trkpt>
      <trkpt lat="45.89835" lon="6.82451">
        <ele>1006</ele>
        <time>2019-04-18T00:42:05Z</time>
      </trkpt>
      <trkpt lat="45.89856" lon="6.82497">
        <ele>1006</ele>
        <time>2019-04-18T00:43:05Z</time>
      </trkpt>
      <trkpt lat="45.89928" lon="6.82623">
        <ele>1006</ele>
        <time>2019-04-18T00:44:05Z</time>
      </trkpt>
      <trkpt lat="45.89979" lon="6.82742">
        <ele>1008</ele>
        <time>2019-04-18T00:45:05Z</time>
      </trkpt>
      <trkpt lat="45.90006" lon="6.82795">
        <ele>1006</ele>
        <time>2019-04-18T00:46:05Z</time>
      </trkpt>
      <trkpt lat="45.90033" lon="6.82835">
        <ele>1005</ele>
        <time>2019-04-18T00:47:05Z</time>
      </trkpt>
      <trkpt lat="45.90062" lon="6.82864">
        <ele>1005</ele>
        <time>2019-04-18T00:48:05Z</time>
      </trkpt>
      <trkpt lat="45.90089" lon="6.82884">
        <ele>1005</ele>
        <time>2019-04-18T00:49:05Z</time>
      </trkpt>
      <trkpt lat="45.90167" lon="6.82931">
        <ele>1006</ele>
        <time>2019-04-18T00:50:05Z</time>
      </trkpt>
      <trkpt lat="45.90191" lon="6.82953">
        <ele>1006</ele>
        <time>2019-04-18T00:51:05Z</time>
      </trkpt>
      <trkpt lat="45.90207" lon="6.82974">
        <ele>1006</ele>
        <time>2019-04-18T00:52:05Z</time>
      </trkpt>
      <trkpt lat="45.90216" lon="6.8299">
        <ele>1006</ele>
        <time>2019-04-18T00:53:05Z</time>
      </trkpt>
      <trkpt lat="45.90322" lon="6.83235">
        <ele>1005</ele>
        <time>2019-04-18T00:54:05Z</time>
      </trkpt>
      <trkpt lat="45.90399" lon="6.8343">
        <ele>1007</ele>
        <time>2019-04-18T00:55:05Z</time>
      </trkpt>
      <trkpt lat="45.90408" lon="6.83457">
        <ele>1008</ele>
        <time>2019-04-18T00:56:05Z</time>
      </trkpt>
      <trkpt lat="45.90405" lon="6.83459">
        <ele>1008</ele>
        <time>2019-04-18T00:57:05Z</time>
      </trkpt>
      <trkpt lat="45.90402" lon="6.83466">
        <ele>1009</ele>
        <time>2019-04-18T00:58:05Z</time>
      </trkpt>
      <trkpt lat="45.90403" lon="6.83476">
        <ele>1009</ele>
        <time>2019-04-18T00:59:05Z</time>
      </trkpt>
      <trkpt lat="45.90409" lon="6.8348">
        <ele>1009</ele>
        <time>2019-04-18T01:00:05Z</time>
      </trkpt>
      <trkpt lat="45.90415" lon="6.83477">
        <ele>1009</ele>
        <time>2019-04-18T01:01:05Z</time>
      </trkpt>
      <trkpt lat="45.90449" lon="6.83542">
        <ele>1011</ele>
        <time>2019-04-18T01:02:05Z</time>
      </trkpt>
      <trkpt lat="45.90563" lon="6.83785">
        <ele>1015</ele>
        <time>2019-04-18T01:03:05Z</time>
      </trkpt>
      <trkpt lat="45.90617" lon="6.83898">
        <ele>1016</ele>
        <time>2019-04-18T01:04:05Z</time>
      </trkpt>
      <trkpt lat="45.90637" lon="6.83929">
        <ele>1017</ele>
        <time>2019-04-18T01:05:05Z</time>
      </trkpt>
      <trkpt lat="45.90744" lon="6.84108">
        <ele>1022</ele>
        <time>2019-04-18T01:06:05Z</time>
      </trkpt>
      <trkpt lat="45.90788" lon="6.84174">
        <ele>1021</ele>
        <time>2019-04-18T01:07:05Z</time>
      </trkpt>
      <trkpt lat="45.90874" lon="6.84312">
        <ele>1021</ele>
        <time>2019-04-18T01:08:05Z</time>
      </trkpt>
      <trkpt lat="45.90902" lon="6.84349">
        <ele>1019</ele>
        <time>2019-04-18T01:09:05Z</time>
      </trkpt>
      <trkpt lat="45.90911" lon="6.84354">
        <ele>1019</ele>
        <time>2019-04-18T01:10:05Z</time>
      </trkpt>
      <trkpt lat="45.9093" lon="6.84358">
        <ele>1019</ele>
        <time>2019-04-18T01:11:05Z</time>
      </trkpt>
      <trkpt lat="45.90945" lon="6.84356">
        <ele>1020</ele>
        <time>2019-04-18T01:12:05Z</time>
      </trkpt>
      <trkpt lat="45.90975" lon="6.84347">
        <ele>1023</ele>
        <time>2019-04-18T01:13:05Z</time>
      </trkpt>
      <trkpt lat="45.90983" lon="6.84348">
        <ele>1024</ele>
        <time>2019-04-18T01:14:05Z</time>
      </trkpt>
      <trkpt lat="45.90994" lon="6.84355">
        <ele>1024</ele>
        <time>2019-04-18T01:15:05Z</time>
      </trkpt>
      <trkpt lat="45.9101" lon="6.84375">
        <ele>1025</ele>
        <time>2019-04-18T01:16:05Z</time>
      </trkpt>
      <trkpt lat="45.91034" lon="6.84412">
        <ele>1025</ele>
        <time>2019-04-18T01:17:05Z</time>
      </trkpt>
      <trkpt lat="45.91047" lon="6.84423">
        <ele>1027</ele>
        <time>2019-04-18T01:18:05Z</time>
      </trkpt>
      <trkpt lat="45.91076" lon="6.84438">
        <ele>1030</ele>
        <time>2019-04-18T01:19:05Z</time>
      </trkpt>
      <trkpt lat="45.91087" lon="6.84446">
        <ele>1031</ele>
        <time>2019-04-18T01:20:05Z</time>
      </trkpt>
      <trkpt lat="45.91097" lon="6.84458">
        <ele>1031</ele>
        <time>2019-04-18T01:21:05Z</time>
      </trkpt>
      <trkpt lat="45.91139" lon="6.84524">
        <ele>1028</ele>
        <time>2019-04-18T01:22:05Z</time>
      </trkpt>
      <trkpt lat="45.91201" lon="6.8459">
        <ele>1020</ele>
        <time>2019-04-18T01:23:05Z</time>
      </trkpt>
      <trkpt lat="45.91238" lon="6.84619">
        <ele>1020</ele>
        <time>2019-04-18T01:24:05Z</time>
      </trkpt>
      <trkpt lat="45.91533" lon="6.84891">
        <ele>1031</ele>
        <time>2019-04-18T01:25:05Z</time>
      </trkpt>
      <trkpt lat="45.91552" lon="6.84912">
        <ele>1034</ele>
        <time>2019-04-18T01:26:05Z</time>
      </trkpt>
      <trkpt lat="45.91568" lon="6.84935">
        <ele>1034</ele>
        <time>2019-04-18T01:27:05Z</time>
      </trkpt>
      <trkpt lat="45.91578" lon="6.84965">
        <ele>1031</ele>
        <time>2019-04-18T01:28:05Z</time>
      </trkpt>
      <trkpt lat="45.91589" lon="6.85005">
        <ele>1027</ele>
        <time>2019-04-18T01:29:05Z</time>
      </trkpt>
      <trkpt lat="45.91598" lon="6.85007">
        <ele>1030</ele>
        <time>2019-04-18T01:30:05Z</time>
      </trkpt>
      <trkpt lat="45.91603" lon="6.85012">
        <ele>1031</ele>
        <time>2019-04-18T01:31:05Z</time>
      </trkpt>
      <trkpt lat="45.91616" lon="6.85045">
        <ele>1030</ele>
        <time>2019-04-18T01:32:05Z</time>
      </trkpt>
      <trkpt lat="45.91635" lon="6.851">
        <ele>1027</ele>
        <time>2019-04-18T01:33:05Z</time>
      </trkpt>
      <trkpt lat="45.91642" lon="6.85134">
        <ele>1030</ele>
        <time>2019-04-18T01:34:05Z</time>
      </trkpt>
      <trkpt lat="45.91654" lon="6.85227">
        <ele>1038</ele>
        <time>2019-04-18T01:35:05Z</time>
      </trkpt>
      <trkpt lat="45.91674" lon="6.85358">
        <ele>1039</ele>
        <time>2019-04-18T01:36:05Z</time>
      </trkpt>
      <trkpt lat="45.917" lon="6.85493">
        <ele>1043</ele>
        <time>2019-04-18T01:37:05Z</time>
      </trkpt>
      <trkpt lat="45.91736" lon="6.85721">
        <ele>1048</ele>
        <time>2019-04-18T01:38:05Z</time>
      </trkpt>
      <trkpt lat="45.91753" lon="6.85801">
        <ele>1047</ele>
        <time>2019-04-18T01:39:05Z</time>
      </trkpt>
      <trkpt lat="45.9177" lon="6.85892">
        <ele>1045</ele>
        <time>2019-04-18T01:40:05Z</time>
      </trkpt>
      <trkpt lat="45.91797" lon="6.86082">
        <ele>1047</ele>
        <time>2019-04-18T01:41:05Z</time>
      </trkpt>
      <trkpt lat="45.91813" lon="6.8622">
        <ele>1042</ele>
        <time>2019-04-18T01:42:05Z</time>
      </trkpt>
      <trkpt lat="45.91824" lon="6.86276">
        <ele>1040</ele>
        <time>2019-04-18T01:43:05Z</time>
      </trkpt>
      <trkpt lat="45.91851" lon="6.86374">
        <ele>1038</ele>
        <time>2019-04-18T01:44:05Z</time>
      </trkpt>
      <trkpt lat="45.9186" lon="6.864">
        <ele>1038</ele>
        <time>2019-04-18T01:45:05Z</time>
      </trkpt>
      <trkpt lat="45.91897" lon="6.86474">
        <ele>1038</ele>
        <time>2019-04-18T01:46:05Z</time>
      </trkpt>
      <trkpt lat="45.91904" lon="6.86491">
        <ele>1038</ele>
        <time>2019-04-18T01:47:05Z</time>
      </trkpt>
      <trkpt lat="45.91901" lon="6.86501">
        <ele>1037</ele>
        <time>2019-04-18T01:48:05Z</time>
      </trkpt>
      <trkpt lat="45.91896" lon="6.86507">
        <ele>1036</ele>
        <time>2019-04-18T01:49:05Z</time>
      </trkpt>
      <trkpt lat="45.91903" lon="6.86525">
        <ele>1036</ele>
        <time>2019-04-18T01:50:05Z</time>
      </trkpt>
      <trkpt lat="45.91901" lon="6.86529">
        <ele>1036</ele>
        <time>2019-04-18T01:51:05Z</time>
      </trkpt>
      <trkpt lat="45.919" lon="6.86538">
        <ele>1036</ele>
        <time>2019-04-18T01:52:05Z</time>
      </trkpt>
      <trkpt lat="45.91902" lon="6.86546">
        <ele>1035</ele>
        <time>2019-04-18T01:53:05Z</time>
      </trkpt>
      <trkpt lat="45.91907" lon="6.8655">
        <ele>1036</ele>
        <time>2019-04-18T01:54:05Z</time>
      </trkpt>
      <trkpt lat="45.91914" lon="6.8655">
        <ele>1036</ele>
        <time>2019-04-18T01:55:05Z</time>
      </trkpt>
      <trkpt lat="45.91917" lon="6.86548">
        <ele>1036</ele>
        <time>2019-04-18T01:56:05Z</time>
      </trkpt>
      <trkpt lat="45.91938" lon="6.86556">
        <ele>1038</ele>
        <time>2019-04-18T01:57:05Z</time>
      </trkpt>
      <trkpt lat="45.91958" lon="6.86551">
        <ele>1040</ele>
        <time>2019-04-18T01:58:05Z</time>
      </trkpt>
      <trkpt lat="45.9201" lon="6.8656">
        <ele>1044</ele>
        <time>2019-04-18T01:59:05Z</time>
      </trkpt>
      <trkpt lat="45.92025" lon="6.86569">
        <ele>1044</ele>
        <time>2019-04-18T02:00:05Z</time>
      </trkpt>
      <trkpt lat="45.92057" lon="6.86599">
        <ele>1045</ele>
        <time>2019-04-18T02:01:05Z</time>
      </trkpt>
      <trkpt lat="45.92068" lon="6.86605">
        <ele>1045</ele>
        <time>2019-04-18T02:02:05Z</time>
      </trkpt>
      <trkpt lat="45.92094" lon="6.86642">
        <ele>1046</ele>
        <time>2019-04-18T02:03:05Z</time>
      </trkpt>
      <trkpt lat="45.92104" lon="6.86653">
        <ele>1046</ele>
        <time>2019-04-18T02:04:05Z</time>
      </trkpt>
      <trkpt lat="45.92119" lon="6.86666">
        <ele>1048</ele>
        <time>2019-04-18T02:05:05Z</time>
      </trkpt>
      <trkpt lat="45.92205" lon="6.86712">
        <ele>1050</ele>
        <time>2019-04-18T02:06:05Z</time>
      </trkpt>
      <trkpt lat="45.92227" lon="6.86722">
        <ele>1049</ele>
        <time>2019-04-18T02:07:05Z</time>
      </trkpt>
      <trkpt lat="45.9224" lon="6.86725">
        <ele>1049</ele>
        <time>2019-04-18T02:08:05Z</time>
      </trkpt>
      <trkpt lat="45.92295" lon="6.86728">
        <ele>1050</ele>
        <time>2019-04-18T02:09:05Z</time>
      </trkpt>
      <trkpt lat="45.92304" lon="6.86733">
        <ele>1049</ele>
        <time>2019-04-18T02:10:05Z</time>
      </trkpt>
      <trkpt lat="45.92332" lon="6.86755">
        <ele>1048</ele>
        <time>2019-04-18T02:11:05Z</time>
      </trkpt>
      <trkpt lat="45.92336" lon="6.86756">
        <ele>1048</ele>
        <time>2019-04-18T02:12:05Z</time>
      </trkpt>
    </trkseg>
  </trk>
</gpx>